[[{"header":{"parameterUnit":"m.s-1","parameterCategory":1,"la1":30.6,"la2":28.766,"lo1":-90.7593,"lo2":-88.6598,"dy":0.0162,"dx":0.0183,"nx":116,"ny":114,"refTime":"2023-04-25T18:00:00:Z","depth":0,"parameterNumber":2,"parameterNumberName":"U-component_of_WINDS"},"data":[0.0,0.0,0.0,0.0,0.0,0.0,0.0,0.0,0.0,0.0,0.0,0.0,0.0,0.0,0.0,0.0,0.0,0.0,0.0,0.0,0.0,0.0,0.0,0.0,0.0,0.0,0.0,0.0,0.0,0.0,0.0,0.0,0.0,0.0,0.0,0.0,0.0,0.0,0.0,0.0,0.0,0.0,0.0,0.0,0.0,0.0,0.0,0.0,0.0,0.0,0.0,0.0,0.0,0.0,0.0,0.0,0.0,0.0,0.0,0.0,0.0,0.0,0.0,0.0,0.0,0.0,0.0,0.0,0.0,0.0,0.0,0.0,0.0,0.0,0.0,0.0,0.0,0.0,0.0,0.0,0.0,0.0,0.0,0.0,0.0,0.0,0.0,0.0,0.0,0.0,0.0,0.0,0.0,0.0,0.0,0.0,0.0,0.0,0.0,0.0,0.0,0.0,0.0,0.0,0.0,0.0,0.0,0.0,0.0,0.0,0.0,0.0,0.0,0.0,0.0,0.0,0.0,0.0,0.0,0.0,0.0,0.0,0.0,0.0,0.0,0.0,0.0,0.0,0.0,0.0,0.0,0.0,0.0,0.0,0.0,0.0,0.0,0.0,0.0,0.0,0.0,0.0,0.0,0.0,0.0,0.0,0.0,0.0,0.0,0.0,0.0,0.0,0.0,0.0,0.0,0.0,0.0,0.0,0.0,0.0,0.0,0.0,0.0,0.0,0.0,0.0,0.0,0.0,0.0,0.0,0.0,0.0,0.0,0.0,0.0,0.0,0.0,0.0,0.0,0.0,0.0,0.0,0.0,0.0,0.0,0.0,0.0,0.0,0.0,0.0,0.0,0.0,0.0,0.0,0.0,0.0,0.0,0.0,0.0,0.0,0.0,0.0,0.0,0.0,0.0,0.0,0.0,0.0,0.0,0.0,0.0,0.0,0.0,0.0,0.0,0.0,0.0,0.0,0.0,0.0,0.0,0.0,0.0,0.0,0.0,0.0,0.0,0.0,0.0,0.0,0.0,0.0,0.0,0.0,0.0,0.0,0.0,0.0,0.0,0.0,0.0,0.0,0.0,0.0,0.0,0.0,0.0,0.0,0.0,0.0,0.0,0.0,0.0,0.0,0.0,0.0,0.0,0.0,0.0,0.0,0.0,0.0,0.0,0.0,0.0,0.0,0.0,0.0,0.0,0.0,0.0,0.0,0.0,0.0,0.0,0.0,0.0,0.0,0.0,0.0,0.0,0.0,0.0,0.0,0.0,0.0,0.0,0.0,0.0,0.0,0.0,0.0,0.0,0.0,0.0,0.0,0.0,0.0,0.0,0.0,0.0,0.0,0.0,0.0,0.0,0.0,0.0,0.0,0.0,0.0,0.0,0.0,0.0,0.0,0.0,0.0,0.0,0.0,0.0,0.0,0.0,0.0,0.0,0.0,0.0,0.0,0.0,0.0,0.0,0.0,0.0,0.0,0.0,0.0,0.0,0.0,0.0,0.0,0.0,0.0,0.0,0.0,0.0,0.0,0.0,0.0,0.0,0.0,0.0,0.0,0.0,0.0,0.0,0.0,0.0,0.0,0.0,0.0,0.0,0.0,0.0,0.0,0.0,0.0,0.0,0.0,0.0,0.0,0.0,0.0,0.0,0.0,0.0,0.0,0.0,0.0,0.0,0.0,0.0,0.0,0.0,0.0,0.0,0.0,0.0,0.0,0.0,0.0,0.0,0.0,0.0,0.0,0.0,0.0,0.0,0.0,0.0,0.0,0.0,0.0,0.0,0.0,0.0,0.0,0.0,0.0,0.0,0.0,0.0,0.0,0.0,0.0,0.0,0.0,0.0,0.0,0.0,0.0,0.0,0.0,0.0,0.0,0.0,0.0,0.0,0.0,0.0,0.0,0.0,0.0,0.0,0.0,0.0,0.0,0.0,0.0,0.0,0.0,0.0,0.0,0.0,0.0,0.0,0.0,0.0,0.0,0.0,0.0,0.0,0.0,0.0,0.0,0.0,0.0,0.0,0.0,0.0,0.0,0.0,0.0,0.0,0.0,0.0,0.0,0.0,0.0,0.0,0.0,0.0,0.0,0.0,0.0,0.0,0.0,0.0,0.0,0.0,0.0,0.0,0.0,0.0,0.0,0.0,0.0,0.0,0.0,0.0,0.0,0.0,0.0,0.0,0.0,0.0,0.0,0.0,0.0,0.0,0.0,0.0,0.0,0.0,0.0,0.0,0.0,0.0,0.0,0.0,0.0,0.0,0.0,0.0,0.0,0.0,0.0,0.0,0.0,0.0,0.0,0.0,0.0,0.0,0.0,0.0,0.0,0.0,0.0,0.0,0.0,0.0,0.0,0.0,0.0,0.0,0.0,0.0,0.0,0.0,0.0,0.0,0.0,0.0,0.0,0.0,0.0,0.0,0.0,0.0,0.0,0.0,0.0,0.0,0.0,0.0,0.0,0.0,0.0,0.0,0.0,0.0,0.0,0.0,0.0,0.0,0.0,0.0,0.0,0.0,0.0,0.0,0.0,0.0,0.0,0.0,0.0,0.0,0.0,0.0,0.0,0.0,0.0,0.0,0.0,0.0,0.0,0.0,0.0,0.0,0.0,0.0,0.0,0.0,0.0,0.0,0.0,0.0,0.0,0.0,0.0,0.0,0.0,0.0,0.0,0.0,0.0,0.0,0.0,0.0,0.0,0.0,0.0,0.0,0.0,0.0,0.0,0.0,0.0,0.0,0.0,0.0,0.0,0.0,0.0,0.0,0.0,0.0,0.0,0.0,0.0,0.0,0.0,0.0,0.0,0.0,0.0,0.0,0.0,0.0,0.0,0.0,0.0,0.0,0.0,0.0,0.0,0.0,0.0,0.0,0.0,0.0,0.0,0.0,0.0,0.0,0.0,0.0,0.0,0.0,0.0,0.0,0.0,0.0,0.0,0.0,0.0,0.0,0.0,0.0,0.0,0.0,0.0,0.0,0.0,0.0,0.0,0.0,0.0,0.0,0.0,0.0,0.0,0.0,0.0,0.0,0.0,0.0,0.0,0.0,0.0,0.0,0.0,0.0,0.0,0.0,0.0,0.0,0.0,0.0,0.0,0.0,0.0,0.0,0.0,0.0,0.0,0.0,0.0,0.0,0.0,0.0,0.0,0.0,0.0,0.0,0.0,0.0,0.0,0.0,0.0,0.0,0.0,0.0,0.0,0.0,0.0,0.0,0.0,0.0,0.0,0.0,0.0,0.0,0.0,0.0,0.0,0.0,0.0,0.0,0.0,0.0,0.0,0.0,0.0,0.0,0.0,0.0,0.0,0.0,0.0,0.0,0.0,0.0,0.0,0.0,0.0,0.0,0.0,0.0,0.0,0.0,0.0,0.0,0.0,0.0,0.0,0.0,0.0,0.0,0.0,0.0,0.0,0.0,0.0,0.0,0.0,0.0,0.0,0.0,0.0,0.0,0.0,0.0,0.0,0.0,0.0,0.0,0.0,0.0,0.0,0.0,0.0,0.0,0.0,0.0,0.0,0.0,0.0,0.0,0.0,0.0,0.0,0.0,0.0,0.0,0.0,0.0,0.0,0.0,0.0,0.0,0.0,0.0,0.0,0.0,0.0,0.0,0.0,0.0,0.0,0.0,0.0,0.0,0.0,0.0,0.0,0.0,0.0,0.0,0.0,0.0,0.0,0.0,0.0,0.0,0.0,0.0,0.0,0.0,0.0,0.0,0.0,0.0,0.0,0.0,0.0,0.0,0.0,0.0,0.0,0.0,0.0,0.0,0.0,0.0,0.0,0.0,0.0,0.0,0.0,0.0,0.0,0.0,0.0,0.0,0.0,0.0,0.0,0.0,0.0,0.0,0.0,0.0,0.0,0.0,0.0,0.0,0.0,0.0,0.0,0.0,0.0,0.0,0.0,0.0,0.0,0.0,0.0,0.0,0.0,0.0,0.0,0.0,0.0,0.0,0.0,0.0,0.0,0.0,0.0,0.0,0.0,0.0,0.0,0.0,0.0,0.0,0.0,0.0,0.0,0.0,0.0,0.0,0.0,0.0,0.0,0.0,0.0,0.0,0.0,0.0,0.0,0.0,0.0,0.0,0.0,0.0,0.0,0.0,0.0,0.0,0.0,0.0,0.0,0.0,0.0,0.0,0.0,0.0,0.0,0.0,0.0,0.0,0.0,0.0,0.0,0.0,0.0,0.0,0.0,0.0,0.0,0.0,0.0,0.0,0.0,0.0,0.0,0.0,0.0,0.0,0.0,0.0,0.0,0.0,0.0,0.0,0.0,0.0,0.0,0.0,0.0,0.0,0.0,0.0,0.0,0.0,0.0,0.0,0.0,0.0,0.0,0.0,0.0,0.0,0.0,0.0,0.0,0.0,0.0,0.0,0.0,0.0,0.0,0.0,0.0,0.0,0.0,0.0,0.0,0.0,0.0,0.0,0.0,0.0,0.0,0.0,0.0,0.0,0.0,0.0,0.0,0.0,0.0,0.0,0.0,0.0,0.0,0.0,0.0,0.0,0.0,0.0,0.0,0.0,0.0,0.0,0.0,0.0,0.0,0.0,0.0,0.0,0.0,0.0,0.0,0.0,0.0,0.0,0.0,0.0,0.0,0.0,0.0,0.0,0.0,0.0,0.0,0.0,0.0,0.0,0.0,0.0,0.0,0.0,0.0,0.0,0.0,0.0,0.0,0.0,0.0,0.0,0.0,0.0,0.0,0.0,0.0,0.0,0.0,0.0,0.0,0.0,0.0,0.0,0.0,0.0,0.0,0.0,0.0,0.0,0.0,0.0,0.0,0.0,0.0,0.0,0.0,0.0,0.0,0.0,0.0,0.0,0.0,0.0,0.0,0.0,0.0,0.0,0.0,0.0,0.0,0.0,0.0,0.0,0.0,0.0,0.0,0.0,0.0,0.0,0.0,0.0,0.0,0.0,0.0,0.0,0.0,0.0,0.0,0.0,0.0,0.0,0.0,0.0,0.0,0.0,0.0,0.0,0.0,0.0,0.0,0.0,0.0,0.0,0.0,0.0,0.0,0.0,0.0,0.0,0.0,0.0,0.0,0.0,0.0,0.0,0.0,0.0,0.0,0.0,0.0,0.0,0.0,0.0,0.0,0.0,0.0,0.0,0.0,0.0,0.0,0.0,0.0,0.0,0.0,0.0,0.0,0.0,0.0,0.0,0.0,0.0,0.0,0.0,0.0,0.0,0.0,0.0,0.0,0.0,0.0,0.0,0.0,0.0,0.0,0.0,0.0,0.0,0.0,0.0,0.0,0.0,0.0,0.0,0.0,0.0,0.0,0.0,0.0,0.0,0.0,0.0,0.0,0.0,0.0,0.0,0.0,0.0,0.0,0.0,0.0,0.0,0.0,0.0,0.0,0.0,0.0,0.0,0.0,0.0,0.0,0.0,0.0,0.0,0.0,0.0,0.0,0.0,0.0,0.0,0.0,0.0,0.0,0.0,0.0,0.0,0.0,0.0,0.0,0.0,0.0,0.0,0.0,0.0,0.0,0.0,0.0,0.0,0.0,0.0,0.0,0.0,0.0,0.0,0.0,0.0,0.0,0.0,0.0,0.0,0.0,0.0,0.0,0.0,0.0,0.0,0.0,0.0,0.0,0.0,0.0,0.0,0.0,0.0,0.0,0.0,0.0,0.0,0.0,0.0,0.0,0.0,0.0,0.0,0.0,0.0,0.0,0.0,0.0,0.0,0.0,0.0,0.0,0.0,0.0,0.0,0.0,0.0,0.0,0.0,0.0,0.0,0.0,0.0,0.0,0.0,0.0,0.0,0.0,0.0,0.0,0.0,0.0,0.0,0.0,0.0,0.0,0.0,0.0,0.0,0.0,0.0,0.0,0.0,0.0,0.0,0.0,0.0,0.0,0.0,0.0,0.0,0.0,0.0,0.0,0.0,0.0,0.0,0.0,0.0,0.0,0.0,0.0,0.0,0.0,0.0,0.0,0.0,0.0,0.0,0.0,0.0,0.0,0.0,0.0,0.0,0.0,0.0,0.0,0.0,0.0,0.0,0.0,0.0,0.0,0.0,0.0,0.0,0.0,0.0,0.0,0.0,0.0,0.0,0.0,0.0,0.0,0.0,0.0,0.0,0.0,-1.2947,0.0,0.0,0.0,0.0,0.0,0.0,0.0,0.0,0.0,0.0,0.0,0.0,0.0,0.0,0.0,0.0,0.0,0.0,0.0,0.0,0.0,0.0,0.0,0.0,0.0,0.0,0.0,0.0,0.0,0.0,0.0,0.0,0.0,0.0,0.0,0.0,0.0,0.0,0.0,-0.0,-0.0,-0.0,-0.0,-0.0,-0.0095,0.0,0.0,0.0,0.0,0.0,0.0,0.0,0.0,0.0,0.0,0.0,0.0,0.0,0.0,0.0,0.0,0.0,0.0,0.0,0.0,0.0,0.0,0.0,0.0,0.0,0.0,0.0,0.0,0.0,0.0,0.0,0.0,0.0,0.0,0.0,0.0,0.0,0.0,0.0,0.0,0.0,0.0,0.0,0.0,0.0,0.0,0.0,0.0,0.0,0.0,0.0,0.0,0.0,0.0,0.0,0.0,0.0,0.0,0.0,0.0,0.0,0.0,0.0,0.0,0.0,0.0,0.0,0.0,0.0,0.0,0.0,-1.3331,0.0,0.0,0.0,0.0,0.0,0.0,0.0,0.0,0.0,0.0,0.0,0.0,0.0,0.0,0.0,0.0,0.0,0.0,0.0,0.0,0.0,0.0,0.0,0.0,0.7217,0.7184,0.6804,0.5019,0.0,0.0,0.0,0.0,0.0,0.0,0.0,-0.0,-0.0,-0.0,-0.0,-0.0,-0.0,-0.0,-0.0,-0.0,-0.0,0.0,0.0,0.0,0.0,0.0,0.0,0.0,0.0,0.0,0.0,0.0,0.0,0.0,0.0,0.0,0.0,0.0,0.0,0.0,0.0,0.0,0.0,0.0,0.0,0.0,0.0,0.0,0.0,0.0,0.0,0.0,0.0,0.0,0.0,0.0,0.0,0.0,0.0,0.0,0.0,0.0,0.0,0.0,0.0,0.0,0.0,0.0,0.0,0.0,0.0,0.0,0.0,0.0,0.0,0.0,0.0,0.0,0.0,0.0,0.0,0.0,0.0,0.0,-1.3416,-1.2927,-1.3204,-1.3154,-1.1979,-1.0067,-1.3005,-1.247,-0.9875,-1.4521,0.0,0.0,0.0,0.0,0.0,0.0,0.0,0.0,0.0,0.0,0.0,0.0,0.0,0.0,0.0,0.0,0.0,0.0,0.0,0.0,0.0,0.7489,0.7543,0.7607,0.5475,0.4835,0.6848,0.0,0.0,0.0,0.0,0.0,-0.0,-0.0,-0.0,-0.0,-0.0,-0.0,-0.0,-0.0,-0.0,-0.0,-0.0,-0.033,-0.1108,0.0,0.0,0.0,0.0,0.0,0.0,0.0,0.0,0.0,0.0,0.0,0.0,0.0,0.0,0.0,0.0,0.0,0.0,0.0,0.0,0.0,0.0,0.0,0.0,0.0,0.0,0.0,0.0,0.0,0.0,0.0,0.0,0.0,0.0,0.0,0.0,0.0,0.0,0.0,0.0,0.0,-0.7699,-0.829,0.0,0.0,0.0,0.0,0.0,0.0,0.0,0.0,0.0,0.0,0.0,0.0,0.0,-1.4941,-1.3362,-1.222,-1.13,-1.0656,-1.0273,-1.0105,-1.0162,-1.1387,-1.1628,-1.1427,-1.1767,0.0,-1.0,-1.0889,0.0,0.0,0.0,0.0,0.0,0.0,0.0,0.0,0.0,0.0,0.0,0.0,0.0,0.0,0.0,0.0,0.0,0.0,0.0,0.0,0.0,0.7916,0.818,0.8336,0.6052,0.4256,0.3535,0.1341,0.0,0.0,0.0,-0.0,-0.0,-0.0,-0.0,-0.0,-0.0,-0.0,-0.0,-0.0,-0.0,-0.0,-0.0,-0.0,-0.0113,-0.1169,0.0,0.0,0.0,0.0,0.0,0.0,0.0,0.0,0.0,0.0,0.0,0.0,0.0,0.0,0.0,0.0,0.0,0.0,0.0,0.0,0.0,0.0,0.0,0.0,0.0,0.0,0.0,0.0,0.0,0.0,0.0,0.0,0.0,0.0,0.0,0.0,0.0,0.0,0.0,-0.9609,-0.866,-0.9771,-1.2004,-1.3229,0.0,0.0,0.0,0.0,0.0,0.0,0.0,0.0,0.0,-1.1422,-1.2875,-1.2849,-1.133,-1.1405,-1.1245,-1.0775,-1.0809,-1.0738,-1.0758,-1.1348,-1.2187,-1.3167,-1.3167,-1.3477,-1.3986,-1.2836,-1.3216,-1.4796,0.0,0.0,0.0,0.0,-1.6103,-1.4558,0.0,0.0,0.0,0.0,0.0,0.0,0.0,0.0,0.0,0.0,0.0,0.0,0.797,0.8438,0.89,0.9133,0.7561,0.5342,0.2572,0.0858,-0.0,0.0,-0.0,-0.0,-0.0,-0.0,-0.0,-0.0,-0.0,-0.0,-0.0,-0.0,-0.0,-0.0,-0.0,-0.0,-0.0,-0.0,-0.0,-0.0221,0.0,0.0,0.0,0.0,0.0,0.0,0.0,0.0,0.0,0.0,0.0,0.0,0.0,0.0,0.0,0.0,0.0,0.0,0.0,0.0,0.0,0.0,0.0,0.0,0.0,0.0,0.0,0.0,0.0,0.0,0.0,0.0,0.0,0.0,0.0,0.0,0.0,-1.0259,-0.9878,-1.044,-1.189,-1.2789,0.0,0.0,0.0,0.0,0.0,0.0,-1.1621,-1.3006,-1.2588,-0.9792,-1.1248,-1.1475,-1.0127,-1.1118,-1.1619,-1.1619,-1.1619,-1.1619,-1.1619,-1.1619,-1.2323,-1.3729,-1.3729,-1.4441,-1.5747,-1.4604,-1.4291,-1.4417,-1.5649,-1.661,-1.7138,-1.5835,-1.4581,-1.3176,0.0,0.0,0.0,0.0,0.0,0.0,0.0,0.0,0.0,0.0,0.0,0.8438,0.8445,0.8981,0.947,0.9736,0.9624,0.942,0.8994,0.3273,-0.0,-0.0,-0.0,-0.0,-0.0,-0.0,-0.0,-0.0,-0.0,-0.0,-0.0,-0.0,-0.0,-0.0,-0.0,-0.0,-0.0,-0.0,-0.0,-0.0,-0.0109,0.0,0.0,0.0,0.0,0.0,0.0,0.0,0.0,0.0,0.0,0.0,0.0,0.0,0.0,0.0,0.0,0.0,0.0,0.0,0.0,0.0,0.0,0.0,0.0,0.0,0.0,0.0,0.0,0.0,0.0,0.0,0.0,0.0,0.0,0.0,0.0,0.0,0.0,-0.7204,-0.8909,0.0,0.0,0.0,0.0,-1.2673,-1.2852,-1.2092,-1.0397,-1.1589,-1.1526,-0.9676,-1.0853,-1.1545,-1.1518,-1.1586,-1.1619,-1.1619,-1.1619,-1.1619,-1.1619,-1.1619,-1.1619,-1.1763,-1.1763,-1.1763,-1.208,-1.428,-1.6663,-1.8897,-1.5946,-1.564,-1.6439,-1.3247,-1.1169,-0.9835,0.0,0.0,0.0,0.0,0.0,0.0,0.0,0.0,0.7536,0.759,0.8201,0.8587,0.8492,0.9279,0.9815,0.995,1.0259,1.051,1.039,0.7732,0.4186,0.021,-0.0,-0.0,-0.0,-0.0,-0.0,-0.0,-0.0,-0.0,-0.0,-0.0,-0.0,-0.0,-0.0,-0.0,-0.0,-0.0,-0.0,-0.0,-0.0,-0.0,0.0,0.0,0.0,0.0,0.0,0.0,0.0,0.0,0.0,0.0,0.0,0.0,0.0,0.0,0.0,0.0,0.0,0.0,0.0,0.0,0.0,0.0,0.0,0.0,0.0,0.0,0.0,0.0,0.0,0.0,0.0,0.0,0.0,0.0,0.0,0.0,0.0,-0.9615,-1.0842,0.0,-1.1413,-1.0977,-1.0843,-1.1121,-1.0948,-1.0469,-0.9894,-1.1128,-1.153,-1.0907,-1.1369,-1.1619,-1.1619,-1.1619,-1.1619,-1.1619,-1.1708,-1.1755,-1.1755,-1.1857,-1.2626,-1.3783,-1.3783,-1.4359,-1.5614,-1.6491,-1.5808,-1.4266,-1.3135,-1.3026,-1.3299,-1.2079,-1.1349,-1.0899,0.0,0.0,0.0,0.0,0.0,0.0,0.0,0.0,0.7746,0.795,0.8533,0.8954,0.9008,0.9768,1.0297,1.0351,1.0717,1.0795,1.0479,1.0158,0.7453,0.1582,0.0512,-0.0,-0.0,-0.0,-0.0,-0.0,-0.0,-0.0,-0.0,-0.0,-0.0,-0.0,-0.0,-0.0,-0.0,-0.0,-0.0,-0.0,-0.0,-0.0,-0.0,0.0,0.0,0.0,0.0,0.0,0.0,0.0,0.0,0.0,0.0,0.0,0.0,0.0,0.0,0.0,0.0,0.0,0.0,0.0,0.0,0.0,0.0,0.0,0.0,0.0,0.0,0.0,0.0,0.0,0.0,0.0,0.0,0.0,0.0,0.0,-1.0266,-1.0189,-1.0997,-1.1658,-1.1733,-1.0858,-1.0393,-1.0677,-1.0369,-1.029,-1.029,-1.1138,-1.1619,-1.1619,-1.1667,-1.1687,-1.1687,-1.1742,-1.1769,-1.1769,-1.1864,-1.1911,-1.1911,-1.2013,-1.2799,-1.3964,-1.3964,-1.4695,-1.5874,-1.5874,-1.427,-1.1769,-1.2482,-1.2764,-1.2627,-1.2053,-1.1769,-1.1769,0.0,0.0,0.0,0.0,0.0,0.0,0.0,0.7719,0.8024,0.8628,0.9096,0.9551,0.9992,1.0446,1.0778,1.0934,1.0955,1.0582,0.97,1.0636,0.9017,0.4048,0.1354,-0.0,-0.0,-0.0,-0.0,-0.0,-0.0,-0.0,-0.0,-0.0,-0.0,-0.0,-0.0,-0.0,-0.0,-0.0,-0.0,-0.0,-0.0,-0.0,-0.0,0.0,0.0,0.0,0.0,0.0,0.0,0.0,0.0,0.0,0.0,0.0,0.0,0.0,0.0,0.0,0.0,0.0,0.0,0.0,0.0,0.0,0.0,0.0,0.0,0.0,0.0,0.0,0.0,0.0,0.0,0.0,0.0,0.0,-0.9961,-1.0469,-1.0062,-0.8627,-0.9131,-0.9721,-0.9888,-0.9801,-1.0215,-1.1518,-1.1619,-1.1619,-1.1626,-1.1626,-1.1626,-1.1633,-1.1769,-1.1837,-1.1837,-1.1986,-1.206,-1.206,-1.2067,-1.2067,-1.2067,-1.2074,-1.2074,-1.2074,-1.2074,-1.2074,-1.2074,-1.2074,-1.2074,-1.2223,-1.4112,-1.4834,-1.4547,-1.2799,-1.206,-1.206,0.0,0.0,0.0,0.0,0.0,0.0,0.0,0.7719,0.7991,0.8479,0.9035,0.951,0.9849,1.0385,1.0778,1.0934,1.1043,1.1008,1.0842,1.0415,0.7431,0.1359,0.0356,-0.0,-0.0,-0.0,-0.0,-0.0,-0.0,-0.0,-0.0,-0.0,-0.0,-0.0,-0.0,-0.0,-0.0,-0.0,-0.0,-0.0,-0.0,-0.0,-0.0,0.0,0.0,0.0,0.0,0.0,0.0,0.0,0.0,0.0,0.0,0.0,0.0,0.0,0.0,0.0,0.0,0.0,0.0,0.0,0.0,0.0,0.0,0.0,0.0,0.0,0.0,0.0,0.0,0.0,0.0,0.0,0.0,-0.7148,-0.9799,-0.9957,-1.0042,-1.0584,-1.0873,-1.1111,-1.1094,-1.1138,-1.1219,-1.1592,-1.1619,-1.166,-1.1769,-1.1775,-1.1823,-1.1938,-1.1979,-1.1999,-1.1999,-1.204,-1.206,-1.206,-1.2176,-1.223,-1.223,-1.2332,-1.2379,-1.2379,-1.2379,-1.2379,-1.2379,-1.2379,-1.2379,-1.2359,-1.2735,-1.294,-1.2791,-1.2359,-1.206,-1.206,0.0,0.0,0.0,0.0,0.0,0.0,0.0,0.7814,0.8133,0.8777,0.9164,0.9591,1.0141,1.0568,1.0873,1.1023,1.109,1.1094,1.0966,0.9717,0.6308,0.0236,-0.0,-0.0,-0.0,-0.0,-0.0,-0.0,-0.0,-0.0,-0.0,-0.0,-0.0,-0.0,-0.0,-0.0,-0.0,-0.0,-0.0,-0.0,-0.0,-0.0,-0.0,-0.0,-0.0,-0.0,-0.0,-0.0,-0.0,-0.0,0.0,0.0,0.0,0.0,0.0,0.0,0.0,0.0,0.0,0.0,0.0,0.0,0.0,0.0,0.0,0.0,0.0,0.0,0.0,0.0,0.0,0.0,0.0,0.0,-0.551,-0.7023,-1.0245,-1.0565,-1.0744,-1.1525,-1.1619,-1.1619,-1.1619,-1.1674,-1.1708,-1.1708,-1.1769,-1.1843,-1.1925,-1.1925,-1.1972,-1.206,-1.2121,-1.2155,-1.2155,-1.2216,-1.2244,-1.225,-1.24,-1.2474,-1.2481,-1.263,-1.2691,0.0,-1.2691,-1.2691,-1.2691,-1.2691,-1.2691,0.0,0.0,0.0,0.0,0.0,-1.2244,-1.2244,0.0,0.0,0.0,0.0,0.0,0.0,0.0,0.7943,0.8364,0.9266,0.9381,0.972,1.0622,1.086,1.1002,1.1151,1.1319,1.106,1.0539,0.8326,0.4922,0.0267,-0.0,-0.0,-0.0,-0.0,-0.0,-0.0,-0.0,-0.0,-0.0,-0.0,-0.0,-0.0,-0.0,-0.0,-0.0,-0.0,-0.0,-0.0,-0.0,-0.0,-0.0,-0.0,-0.0,-0.0,-0.0,-0.0,-0.0,-0.0,0.0,0.0,0.0,0.0,0.0,0.0,0.0,0.0,0.0,0.0,0.0,0.0,0.0,0.0,0.0,0.0,0.0,0.0,0.0,0.0,0.0,0.0,0.0,0.0,-0.6401,-0.7222,-1.1142,-1.1708,-1.1667,-1.1647,-1.166,-1.1667,-1.1667,-1.1782,-1.1857,-1.1857,-1.1986,-1.2067,-1.2088,0.0,0.0,0.0,0.0,-1.2345,-1.2366,-1.2494,-1.2556,-1.2556,-1.2691,-1.2759,-1.2759,-1.2901,-1.2963,-1.2963,-1.2963,-1.2963,-1.2963,-1.2963,-1.2963,-1.2935,-1.2657,-1.2556,-1.2556,-1.2556,-1.2556,-1.2549,0.0,0.0,0.0,0.0,0.0,0.0,0.0,0.7943,0.8364,0.9266,0.9381,0.972,1.0622,1.086,1.1002,1.1151,1.1319,1.1337,1.1343,0.5168,0.1041,-0.0,-0.0,-0.0,-0.0,-0.0,-0.0,-0.0,-0.0,-0.0,-0.0,-0.0,-0.0,-0.0,-0.0,-0.0,-0.0,-0.0,-0.0,-0.0,-0.0,-0.0,-0.0,-0.0,-0.0,-0.0,-0.0,-0.0,-0.0,-0.0,-0.0,-0.0132,-0.0608,-0.0334,0.0,0.0,0.0,0.0,0.0,0.0,0.0,0.0,0.0,0.0,0.0,0.0,0.0,0.0,0.0,0.0,0.0,0.0,0.0,-0.6542,-0.6331,-0.7597,-1.1411,-1.2013,-1.1932,-1.1809,-1.1904,-1.1979,-1.1979,-1.1999,-1.202,-1.202,-1.2047,-1.2115,-1.2237,-1.2244,-1.2352,-1.2589,-1.263,-1.2705,-1.2834,-1.2861,-1.2874,-1.2874,0.0,0.0,-1.2915,-1.2949,-1.2963,-1.2963,-1.2963,-1.2963,-1.2963,-1.2963,-1.2963,-1.2956,-1.2895,-1.2874,-1.2874,-1.2874,-1.2874,-1.2854,0.0,0.0,0.0,0.0,0.0,0.0,0.0,0.7991,0.8255,0.8852,0.8933,0.9184,0.9863,1.0073,1.0222,1.0371,0.9305,0.7717,0.5927,0.2184,-0.0,-0.0,-0.0,-0.0,-0.0,-0.0,-0.0,-0.0,-0.0,-0.0,-0.0,-0.0,-0.0,-0.0,-0.0,-0.0,-0.0,-0.0,-0.0,-0.0,-0.0,-0.0,-0.0,-0.0,-0.0,-0.0,-0.0,-0.0,-0.0,-0.0,-0.0,-0.0,-0.0,-0.0,-0.0,0.0,0.0,0.0,0.0,0.0,0.0,0.0,0.0,0.0,0.0,0.0,0.0,0.0,0.0,-0.5023,-0.6251,0.0,-0.5876,-0.3554,-0.4916,-0.7712,-1.1684,-1.2176,-1.2128,-1.1965,-1.2013,-1.206,-1.206,-1.2128,-1.2176,-1.2176,-1.2311,-1.2427,-1.2508,-1.2583,-1.2691,-1.284,-1.2847,-1.2881,-1.2963,-1.2963,-1.2963,-1.2963,-1.303,-1.3064,-1.3071,-1.3146,-1.318,-1.318,-1.318,-1.318,-1.318,-1.318,-1.318,-1.318,-1.318,-1.3091,-1.2963,-1.2963,-1.2963,-1.2949,0.0,0.0,0.0,0.0,0.0,0.0,0.0,0.8038,0.8153,0.8486,0.8499,0.8662,0.9144,0.9306,0.9415,0.9607,0.8015,0.4899,0.0364,-0.0,-0.0,-0.0,-0.0,-0.0,-0.0,-0.0,-0.0,-0.0,-0.0,-0.0,-0.0,-0.0,-0.0,-0.0,-0.0,-0.0,-0.0,-0.0,-0.0,-0.0,-0.0,-0.0,-0.0,-0.0,-0.0,-0.0,-0.0,-0.0,-0.0,-0.0,-0.0,-0.0,-0.0,-0.0,-0.0,-0.0,-0.3102,0.0,0.0,0.0,0.0,0.0,0.0,0.0,0.0,-0.2528,-0.2523,-0.2496,-0.2534,-0.3077,-0.472,-0.5035,-0.3978,-0.0512,-0.2827,-0.6857,-1.1776,-1.2318,-1.2311,-1.2162,-1.2149,-1.2149,-1.2149,-1.2284,-1.2372,-1.2372,-1.2467,-1.2773,-1.2773,-1.2895,-1.2976,-1.3003,-1.3003,-1.3017,-1.3044,-1.3051,-1.3051,-1.3051,-1.3159,-1.3214,-1.322,-1.3342,-1.3403,-1.3403,-1.3403,-1.3403,-1.3403,-1.3403,-1.3403,-1.3403,-1.3403,-1.3254,-1.3051,-1.3051,-1.3051,-1.3044,0.0,0.0,0.0,0.0,0.0,0.0,0.0,0.0,0.8194,0.8628,0.8567,0.8703,0.9293,0.9367,0.953,0.9778,1.0461,0.7837,0.0494,-0.0,-0.0,-0.0,-0.0,-0.0,-0.0,-0.0,-0.0,-0.0,-0.0,-0.0,-0.0,-0.0,-0.0,-0.0,-0.0,-0.0,-0.0,-0.0,-0.0,-0.0,-0.0,-0.0,-0.0,-0.0,-0.0,-0.0,-0.0,-0.0,-0.0,-0.0,-0.0,-0.0,-0.0,-0.0,-0.0,-0.0,-0.1931,-0.402,-0.3956,-0.3974,-0.4464,-0.6246,-0.3495,-0.0342,0.0,-0.0325,-0.0331,-0.0325,-0.0324,-0.0431,-0.0642,-0.0725,-0.0527,-0.0131,-0.0435,-0.3428,-1.1442,-1.2535,-1.2508,-1.2461,-1.2454,-1.2454,-1.2454,-1.2434,-1.2521,-1.2521,-1.2509,-1.2609,-1.3095,-1.3116,-1.3185,-1.3146,-1.3152,-1.3214,-1.3349,-1.3349,-1.3349,-1.3349,-1.337,-1.3376,-1.3376,-1.3397,-1.3403,-1.3403,-1.3403,-1.3403,-1.3403,-1.3403,-1.3403,-1.3403,-1.3403,-1.3383,-1.3349,-1.3349,-1.3349,-1.3336,0.0,0.0,0.0,0.0,0.0,0.0,0.0,0.0,0.0,0.8174,0.8058,0.8065,0.8316,0.8431,0.8452,0.8688,0.9912,0.7592,0.0488,-0.0,-0.0,-0.0,-0.0,-0.0,-0.0,-0.0,-0.0,-0.0,-0.0,-0.0,-0.0,-0.0,-0.0,-0.0,-0.0,-0.0,-0.0,-0.0,-0.0,-0.0,-0.0,-0.0,-0.0,-0.0,-0.0,-0.0,-0.0,-0.0,0.0,-0.0,-0.0,-0.0,-0.0,-0.0,-0.0,-0.0,-0.0727,-0.2112,-0.4927,-0.3656,-0.1737,-0.2739,-0.1504,-0.0,-0.0,-0.0,-0.0,-0.0,-0.0,-0.0,-0.0,-0.0,-0.0,-0.0,-0.0,-0.1266,-0.4734,-0.9392,-1.2496,-1.245,-1.2608,-1.2574,-1.2487,-1.245,-1.2536,-1.2702,-1.2836,-1.2916,-1.3085,-1.3166,-1.3247,-1.3302,-1.3308,-1.3376,-1.3532,-1.3532,-1.3573,-1.3654,-1.3654,-1.3654,-1.3654,-1.3654,-1.3654,-1.3654,-1.3654,-1.3654,-1.3654,-1.3654,-1.3607,-1.3365,-1.3532,-1.3478,-1.3403,-1.3403,-1.3403,-1.339,0.0,0.0,0.0,0.0,0.0,0.0,0.0,0.0,0.0,0.0,0.7746,0.7658,0.7665,0.7087,0.7082,0.7957,0.741,0.603,0.3398,0.3228,0.2293,0.0146,-0.0,-0.0,-0.0,-0.0,-0.0,-0.0,-0.0,-0.0,-0.0,-0.0,-0.0,-0.0,-0.0,-0.0,-0.0,-0.0,-0.0,-0.0,-0.0,-0.0,-0.0,-0.0,-0.0,-0.0,-0.0,-0.0,-0.0,-0.0,-0.0,-0.0,-0.0,-0.0,-0.0,-0.0,-0.0,-0.0716,-0.4172,-0.3599,-0.1634,-0.027,-0.0,-0.0,-0.0,-0.0,-0.0,-0.0,-0.0,-0.0,-0.0,-0.0,-0.0,-0.0,-0.0,-0.0802,-0.3353,-0.8875,-1.2695,-1.2802,-1.2829,-1.2969,-1.2702,-1.2622,-1.2849,-1.3024,-1.3152,-1.307,-1.3234,-1.3383,-1.3464,-1.3464,-1.3498,-1.3573,-1.3688,-1.3688,-1.3736,-1.3838,-1.3838,-1.3844,-1.3844,-1.3844,-1.3838,-1.3838,-1.3838,-1.3838,-1.3838,-1.3844,-1.3777,-1.3512,-1.3688,-1.362,-1.3519,-1.3478,-1.3437,-1.3403,0.0,0.0,0.0,0.0,0.0,0.0,0.0,0.0,0.0,0.0,0.0,0.0,0.0,0.5577,0.5134,0.7798,0.3239,0.3467,1.0767,1.1192,0.7893,0.029,-0.0,-0.0,-0.0,-0.0,-0.0,-0.0,-0.0,-0.0,-0.0,-0.0,-0.0,-0.0,-0.0,-0.0,-0.0,-0.0,-0.0,-0.0,-0.0,-0.0,-0.0,-0.0,-0.0,-0.0,-0.0,-0.0,-0.0,-0.0,-0.0,-0.0,-0.0,-0.0,-0.0,-0.0,-0.0,-0.0,-0.021,-0.3462,-0.5788,-0.1216,-0.0,-0.0,-0.0,-0.0,-0.0,-0.0,-0.0,-0.0,-0.0,-0.0,-0.0,-0.0,-0.0,-0.3087,-1.1726,-1.3212,-1.336,-1.3297,-1.3415,-1.3329,0.0,-1.3159,-1.3159,-1.3336,-1.3308,-1.3397,-1.3397,-1.3539,-1.3627,-1.362,-1.3756,-1.3831,-1.3831,-1.3831,-1.3838,-1.3666,-1.3838,-1.3844,-1.4016,-1.3844,-1.3838,-1.3666,-1.3666,-1.3838,-1.4016,-1.4016,-1.3844,-1.3831,-1.3831,-1.3831,-1.381,-1.3675,-1.3532,-1.3403,0.0,0.0,0.0,0.0,0.0,0.0,0.0,0.0,0.0,0.0,0.0,0.0,0.0,0.0,0.0,0.0,0.1076,0.113,0.3703,0.8701,1.0496,0.7774,0.2715,-0.0,-0.0,-0.0,-0.0,-0.0,-0.0,-0.0,-0.0,-0.0,-0.0,-0.0,-0.0,-0.0,-0.0,-0.0,-0.0,-0.0,-0.0,-0.0,-0.0,-0.0,-0.0,-0.0,0.0,-0.0,-0.0,-0.0,-0.0,-0.0,-0.0,-0.0,-0.0,-0.0,-0.0,-0.0,-0.0,-0.1168,-0.1972,-0.0455,-0.0,-0.0,-0.0,-0.0,-0.0,-0.0,-0.2491,-0.4641,-0.4641,-0.2092,-0.0,-0.0,-0.0,-0.3124,-1.22,-1.3453,-1.3329,-1.3425,-1.3459,0.0,0.0,0.0,0.0,-1.3322,-1.337,-1.3444,-1.3546,-1.3607,-1.3675,-1.377,-1.3817,-1.3892,-1.3994,-1.3994,-1.4041,-1.4143,-1.4143,-1.415,-1.415,-1.415,-1.4143,-1.4143,-1.4143,-1.415,-1.415,-1.415,-1.4089,-1.4174,-1.4174,-1.3933,-1.3838,-1.379,-1.3736,-1.3661,0.0,0.0,0.0,0.0,0.0,0.0,0.0,0.0,0.0,0.0,0.0,0.0,0.0,0.0,0.0,0.0,0.0,-0.0,-0.0,0.4714,0.8707,1.1475,0.6766,0.2882,-0.0,-0.0,-0.0,-0.0,-0.0,-0.0,-0.0,-0.0,-0.0,-0.0,-0.0,-0.0,-0.0,-0.0,-0.0,-0.0,-0.0,-0.0,-0.0,-0.0,-0.0,0.0,-0.0,-0.0,-0.0,-0.0,-0.0,-0.0,-0.0,-0.0,-0.0,-0.0,-0.0,-0.0,-0.0,-0.0,-0.0,-0.0,-0.0,-0.0,-0.0,-0.0,-0.0,-0.0,-0.3854,-0.7119,-0.7119,-0.4603,-0.2302,-0.1373,-0.202,-0.4853,-1.1742,-1.2702,-1.2876,-1.3363,-1.3403,-1.3424,0.0,0.0,0.0,-1.3485,-1.3485,-1.3546,-1.3695,-1.3756,-1.3831,-1.3919,-1.3973,-1.4055,-1.415,-1.415,-1.4204,-1.4299,-1.4299,-1.4299,-1.4299,-1.4299,-1.4299,-1.4299,-1.4299,-1.4299,-1.4299,-1.4299,-1.4245,-1.4331,-1.4331,-1.4095,-1.4,-1.4119,-1.4098,-1.3892,0.0,0.0,0.0,0.0,0.0,0.0,0.0,0.0,0.0,0.0,0.0,0.0,0.0,0.0,0.0,0.0,0.0,0.0,-0.0,-0.0,0.3334,1.0738,1.1432,0.7994,0.0121,-0.0,-0.0,-0.0,-0.0,-0.0,-0.0,-0.0,-0.0,-0.0,-0.0,-0.0,-0.0,-0.0,-0.0,-0.0,-0.0,-0.0,-0.0,-0.0,-0.0,-0.0,-0.0,-0.0,-0.0,-0.0,-0.0,-0.0,-0.0,-0.0,-0.0,-0.0,-0.0,-0.0,-0.0,-0.0,-0.0,-0.0,-0.0,-0.0,-0.0,-0.0,-0.0,-0.0,-0.3766,-0.6945,-0.7056,-0.7044,-0.6394,-0.3957,-0.5522,-0.8023,-1.0875,-1.136,-1.1854,-1.3295,-1.341,-1.3471,-1.3627,-1.3641,0.0,-1.3654,0.0,-1.3702,-1.3844,-1.3994,-1.4075,-1.4082,-1.4224,-1.4299,-1.4299,-1.4306,-1.4312,-1.4319,-1.4319,-1.4319,-1.4312,-1.4312,-1.4306,-1.4299,-1.4299,-1.4299,-1.4299,-1.4299,-1.4299,-1.4299,-1.4299,-1.4299,-1.4285,-1.4318,-1.4263,-1.4242,0.0,0.0,0.0,0.0,0.0,0.0,0.0,0.0,0.0,0.0,0.0,0.0,0.0,0.0,0.0,0.0,0.0,0.0,-0.0,-0.0,0.0901,0.2873,0.8462,0.791,0.0123,-0.0,-0.0,-0.0,-0.0,-0.0,-0.0,-0.0,-0.0,-0.0,-0.0,-0.0,-0.0,-0.0,-0.0,-0.0,-0.0,-0.0,-0.0,-0.0,-0.0,-0.0,-0.0,-0.0,-0.0,-0.0,-0.0,-0.0,-0.0,-0.0,-0.0,-0.0,-0.0,-0.0,-0.0,-0.0,-0.0,-0.0,-0.0,-0.0,-0.0,-0.0,-0.0,-0.0,-0.2595,-0.5297,-0.6803,-0.7103,-0.631,-0.3984,-0.5627,-0.7906,-1.0233,-1.1925,-1.3043,-1.3532,-1.3573,-1.3627,-1.377,-1.3783,0.0,0.0,-1.3851,-1.3851,-1.4007,-1.4048,-1.4122,-1.4238,-1.4278,-1.4299,-1.4299,-1.4222,-1.433,-1.4256,-1.4256,-1.4383,-1.4276,-1.4276,-1.4222,-1.4299,-1.4299,-1.4299,-1.4299,-1.4299,-1.4299,-1.4299,-1.4299,-1.4299,-1.4292,-1.4258,-1.4245,-1.4238,0.0,0.0,0.0,0.0,0.0,0.0,0.0,0.0,0.0,0.0,0.0,0.0,0.0,0.0,0.0,0.0,0.0,0.0,0.0,-0.0,-0.0,-0.0,0.4231,0.4418,0.0112,-0.0,-0.0,-0.0,-0.0,-0.0,-0.0,-0.0,-0.0,-0.0,-0.0,-0.0,-0.0,-0.0,-0.0,0.0,0.0,-0.0,-0.0,-0.0,-0.0,-0.0,-0.0,-0.0,-0.0,-0.0,-0.0,-0.0,-0.0,-0.0,-0.0,-0.0,-0.0,-0.0,-0.0,-0.0,-0.0,-0.0,-0.0,-0.0,-0.0,-0.1597,-0.312,-0.3141,-0.4319,-0.5893,-0.7059,-0.7159,-0.6712,-0.5445,-0.4487,-0.5104,-0.8369,-1.1054,-1.2909,-1.3573,-1.3682,-1.3777,-1.3926,-1.3939,-1.4007,0.0,-1.4027,-1.4007,-1.4163,-1.417,-1.4211,-1.4299,-1.436,-1.4428,-1.4489,-1.439,-1.447,-1.4362,-1.4362,-1.4504,-1.4618,-1.4423,-1.4383,-1.4303,0.0,-1.4216,-1.4387,-1.4326,-1.4299,-1.4299,-1.4299,-1.4299,-1.4299,-1.4299,-1.4299,-1.4299,0.0,0.0,0.0,0.0,0.0,0.0,0.0,0.0,0.0,0.0,0.0,0.0,0.0,0.0,0.0,0.0,0.0,0.0,0.0,0.0,-0.0,-0.0,-0.0,-0.0,-0.0,-0.0,-0.0,-0.0,-0.0,-0.0,-0.0,-0.0,-0.0,-0.0,-0.0,-0.0,-0.0,-0.0,-0.0,-0.0,-0.0,-0.0,-0.0,0.0,-0.0,-0.0,-0.0,-0.0,-0.0,-0.0,-0.0,-0.0,-0.0,-0.0,-0.0,-0.0,-0.0,-0.0,-0.0,-0.0,-0.0,-0.0,-0.0,-0.0,-0.0,-0.3722,-0.7255,-0.7307,-0.7417,-0.7527,-0.7541,-0.7338,-0.7113,-0.6951,-0.3007,-0.1568,-0.6219,-0.9769,-1.2364,-1.358,-1.3797,-1.3933,-1.4089,-1.4102,-1.4156,-1.4292,-1.4177,-1.4156,-1.4292,-1.4299,-1.4306,-1.4326,-1.4468,-1.4611,-1.4584,-1.4584,-1.4591,-1.4421,-1.4421,-1.4604,-1.5146,-1.4584,-1.4388,-1.4362,-1.4417,-1.435,-1.4316,-1.438,-1.4319,-1.4299,-1.4299,-1.4299,-1.4299,-1.4299,-1.4299,-1.4299,0.0,0.0,0.0,0.0,0.0,0.0,0.0,0.0,0.0,0.0,0.5622,0.2984,0.0,0.0,0.0,0.0,0.0,0.0,0.0,0.0,0.0,-0.0,-0.0,-0.0,-0.0,-0.0,-0.0,-0.0,-0.0,-0.0,-0.0,-0.0,-0.0,-0.0,-0.0,-0.0,-0.0,-0.0,-0.0,-0.0,-0.0,-0.0,-0.0,-0.0,0.0,0.0,-0.0,-0.0,-0.0,-0.0,-0.0,-0.0,-0.0,-0.0,-0.0,-0.0,-0.0,-0.0,-0.0,-0.0,-0.0,-0.0,-0.0,-0.0,-0.0,-0.405,-0.7972,-0.8459,-0.8206,-0.7969,-0.8157,-0.8004,-0.7108,-0.4628,-0.1823,-0.1675,-0.6417,-1.0786,-1.3546,-1.3966,-1.4014,-1.4095,-1.4245,-1.4258,0.0,0.0,-1.4278,-1.4272,-1.4299,-1.4299,-1.4353,-1.4468,-1.4624,-1.4774,-1.493,-1.4738,-1.4798,-1.5106,-1.5106,-1.5045,-1.5121,-1.5121,-1.5053,-1.5111,-1.5083,0.0,-1.4323,-1.4303,-1.4222,-1.4299,-1.4299,-1.4299,-1.4299,-1.4299,-1.4299,-1.4299,0.0,0.0,0.0,0.0,0.0,0.0,0.0,0.8045,0.7453,0.6142,0.4822,0.2994,0.0295,-0.0,-0.0,0.0,0.0,0.0,0.0,0.0,0.0,0.0,0.0,0.0,-0.0,-0.0,-0.0,-0.0,0.0,-0.0,-0.0,-0.0,-0.0,-0.0,-0.0,-0.0,-0.0,-0.0,-0.0,-0.0,-0.0,-0.0,-0.0,0.0,0.0,0.0,-0.0,-0.0,-0.0,-0.0,-0.0,-0.0,-0.0,-0.0,-0.0,-0.0,-0.0,-0.0,-0.0,-0.0,-0.0,-0.0,-0.0,-0.0,-0.0,-0.3233,-0.6639,-0.8394,-0.8355,-0.8049,-0.8241,-0.8361,-0.7731,-0.6177,-0.257,-0.2194,-0.8701,-1.2228,-1.4068,-1.4075,-1.4143,-1.4217,-1.4292,-1.4299,-1.4299,-1.4299,-1.4299,-1.4299,-1.4299,-1.4373,-1.4516,-1.474,-1.4821,-1.493,-1.5079,-1.5079,-1.5113,-1.5181,-1.5181,-1.5147,-1.5272,-1.5272,-1.5231,-1.5156,-1.5271,0.0,-1.4746,-1.4477,-1.4356,-1.4229,-1.4229,-1.4367,-1.4299,-1.4299,-1.4299,-1.4299,0.0,0.0,0.0,0.0,0.0,0.0,0.0,0.8045,0.7241,0.5127,0.4321,0.2999,0.0297,-0.0,-0.0,0.0,0.0,0.0,0.0,0.0,0.0,0.0,0.0,0.0,0.0,0.0,0.0,-0.0,-0.0,0.0,0.0,0.0,0.0,0.0,-0.0,-0.0,-0.0,-0.0,-0.0,0.0,0.0,-0.0,0.0,0.0,0.0,0.0,0.0,-0.0,-0.0,-0.0,-0.0,-0.0,-0.0,-0.0,-0.0,-0.0,-0.0,-0.0,-0.0,-0.0,-0.0,-0.0,-0.0,-0.0,-0.0,-0.2382,-0.5234,-0.8011,-0.8287,-0.8194,-0.8377,-0.8504,-0.8518,-0.8239,-0.4521,-0.4063,-1.0986,-1.3097,-1.3939,-1.4102,-1.4224,-1.4299,-1.4299,-1.4299,0.0,-1.4299,-1.4326,-1.4346,-1.4346,-1.4516,-1.4719,-1.4964,-1.5004,-1.5072,-1.5181,-1.5181,-1.5181,-1.5181,-1.5181,-1.5181,-1.5181,-1.5181,-1.5181,-1.5174,-1.5252,0.0,0.0,-1.4651,-1.451,-1.4557,-1.4336,-1.4263,-1.434,-1.4312,-1.4299,-1.4299,0.0,0.0,0.0,0.0,0.0,0.0,0.0,0.7959,0.7872,0.7679,0.5546,0.3022,0.0302,-0.0,-0.0,0.0,0.0,0.0,0.0,0.0,0.0,0.0,0.0,0.0,0.0,0.0,0.0,-0.0,-0.0,0.0,0.0,0.0,0.0,0.0,0.0,-0.0,-0.0,-0.0,0.0,0.0,0.0,0.0,0.0,0.0,0.0,0.0,0.0,-0.0,-0.0,-0.0,-0.0,-0.0,-0.0,-0.0,-0.0,-0.0,-0.0,-0.0,-0.0,-0.0,-0.0,-0.0,-0.0,-0.0,-0.0,-0.2281,-0.5339,-0.8308,-0.8674,-0.8533,-0.8825,-0.8608,-0.8575,-0.8769,-0.7926,-0.8429,-1.2017,-1.235,-1.2913,-1.417,-1.4292,-1.4299,-1.4299,-1.4299,-1.4299,-1.4299,-1.4421,-1.4489,-1.4489,-1.4767,-1.4943,-1.497,-1.5099,-1.5167,-1.5181,-1.5181,-1.5181,-1.5181,-1.5181,-1.5181,-1.5181,-1.5181,-1.5181,-1.5181,-1.5167,0.0,0.0,-1.5142,-1.5053,-1.5083,-1.4563,-1.4316,-1.4289,-1.4346,-1.4299,-1.4299,0.0,0.0,0.0,0.0,0.0,0.0,0.8038,0.8045,0.7959,0.7985,0.5641,0.302,0.0303,-0.0,-0.0,-0.0,0.0,0.0,0.0,0.0,0.0,0.0,0.0,0.0,0.0,0.0,-0.0,-0.0,-0.0,0.0,0.0,0.0,0.0,0.0,0.0,-0.0,-0.0,-0.0,0.0,0.0,0.0,0.0,0.0,0.0,0.0,0.0,0.0,0.0,-0.0,-0.0,-0.0,-0.0,-0.0,-0.0,-0.0,-0.0,-0.0,-0.0,-0.0,-0.0,-0.0,-0.0,-0.0,-0.0915,-0.4524,-0.4943,-0.5395,-0.8246,-0.8751,-0.8682,-0.8899,-0.8764,-0.8649,-0.8729,-0.8648,-0.9032,-1.0644,-1.0902,-1.1592,-1.307,-1.3275,-1.3505,-1.4231,-1.4299,-1.4333,-1.4421,-1.4563,-1.4692,-1.478,-1.4903,-1.5011,-1.5099,-1.5153,-1.5181,-1.5181,-1.5181,-1.5181,-1.5181,-1.5181,-1.5181,-1.5181,-1.5181,-1.5181,-1.5181,-1.5181,0.0,0.0,-1.5286,-1.5204,-1.525,-1.4998,-1.4672,-1.4316,-1.4263,-1.4373,-1.4299,0.0,0.0,0.0,0.0,0.0,0.8038,0.8038,0.8038,0.7952,0.7979,0.5636,0.3015,0.0302,-0.0,-0.0,-0.0,-0.0,0.0,0.0,0.0,0.0,0.0,0.0,0.0,0.0,0.0,-0.0,-0.0,-0.0,-0.0,0.0,0.0,-0.0,-0.0,0.0,0.0,0.0,0.0,0.0,0.0,0.0,0.0,0.0,0.0,0.0,0.0,0.0,0.0,0.0,0.0,0.0,-0.0,-0.0,-0.0,-0.0,-0.0,-0.0,-0.0,-0.0,-0.0,-0.0,-0.0,-0.0,-0.1617,-0.7584,-0.7306,-0.6396,-0.852,-0.8797,-0.8811,-0.892,-0.8852,-0.8777,-0.8777,-0.8749,-0.9061,-0.9754,-0.998,-1.0535,-1.1938,-1.2067,-1.2447,-1.3654,-1.4089,-1.438,-1.4563,-1.4679,-1.4828,-1.5025,-1.5031,-1.5079,-1.5181,-1.5181,-1.5181,-1.5181,-1.5181,-1.5181,-1.5181,-1.5181,-1.5181,-1.5181,-1.5181,-1.5181,-1.5181,-1.5181,0.0,0.0,-1.5181,-1.5126,-1.5217,-1.5176,-1.5025,-1.445,-1.4363,-1.4263,-1.4353,0.0,0.0,0.0,0.0,0.0,0.0,0.8038,0.8038,0.8045,0.7972,0.5632,0.3012,0.0302,-0.0,-0.0,-0.0,-0.0,0.0,0.0,0.0,0.0,0.0,0.0,0.0,0.0,0.0,-0.0,-0.0,-0.0,-0.0,-0.0,-0.0,-0.0,-0.0,0.0,0.0,0.0,0.0,0.0,0.0,0.0,0.0,0.0,0.0,0.0,0.0,0.0,0.0,0.0,0.0,0.0,0.0,0.0,-0.0,-0.0,-0.0,-0.0,-0.0,-0.0,-0.0,-0.0,-0.0,-0.0,-0.1489,-0.7553,-0.8874,-0.8821,-0.8906,-0.8845,-0.894,-0.894,-0.894,-0.894,-0.894,-0.8689,-0.8866,-0.9903,-0.9808,-0.9958,-1.086,-1.0833,-1.1206,-1.2406,-1.36,-1.4421,-1.4713,-1.474,0.0,-1.5167,-1.5181,-1.5181,-1.5181,-1.5181,-1.5181,-1.5181,-1.5181,-1.5181,-1.5181,-1.5181,-1.5181,-1.5181,-1.5181,-1.5181,-1.5181,0.0,0.0,0.0,-1.5181,-1.5181,-1.5167,-1.5217,-1.5162,-1.5121,-1.4443,-1.4323,-1.4303,0.0,0.0,0.0,0.0,0.0,0.0,0.0,0.8038,0.8045,0.7972,0.7266,0.5031,0.0503,-0.0,-0.0,-0.0,-0.0,0.0,0.0,0.0,0.0,0.0,0.0,0.0,0.0,0.0,-0.0,-0.0,-0.0,-0.0,-0.0,-0.0,-0.0,-0.0,-0.0,-0.0,0.0,0.0,0.0,0.0,0.0,0.0,0.0,0.0,0.0,0.0,0.0,0.0,0.0,0.0,0.0,0.0,0.0,0.0,0.0,-0.0,-0.0,-0.0,-0.0,-0.0,-0.0,-0.0,-0.2718,-0.5582,-0.5863,-0.7343,-0.8702,-0.8866,-0.8825,-0.8784,-0.8784,-0.8696,-0.8662,-0.8764,-0.8703,-0.8682,-0.8818,-0.9367,-1.0053,-1.0853,-1.2264,-1.3315,0.0,0.0,-1.4428,-1.4564,-1.4591,-1.4731,-1.5248,-1.5262,-1.5255,-1.5228,-1.5228,-1.5228,-1.5228,-1.5228,-1.5215,-1.5181,-1.5181,-1.5181,-1.5181,-1.5181,-1.5181,0.0,0.0,0.0,0.0,-1.5181,-1.5181,-1.5174,-1.5133,-1.5245,-1.5149,-1.5046,-1.4692,-1.4316,0.0,0.0,0.0,0.0,0.0,0.0,0.0,0.8038,0.8045,0.7959,0.7972,0.6348,0.2009,0.06,-0.0,-0.0,-0.0,0.0,0.0,0.0,0.0,0.0,0.0,0.0,-0.0,-0.0,-0.0,-0.0,-0.0,-0.0,-0.0,-0.0,-0.0,-0.0,-0.0,-0.0,0.0,0.0,0.0,0.0,0.0,0.0,-0.0,0.0,0.0,0.0,0.0,0.0,0.0,0.0,0.0,0.0,0.0,0.0,0.0,0.0,-0.0,-0.0,-0.0,-0.0,-0.0,-0.0,-0.2505,-0.5167,-0.5859,-0.7387,-0.8709,-0.8866,-0.8818,-0.871,-0.871,-0.8587,-0.8513,-0.8608,-0.8581,-0.8515,-0.8285,-0.8787,-0.966,-1.1206,-1.2515,0.0,0.0,-1.3854,-1.4289,-1.4415,-1.2741,-1.1922,-1.2378,-1.2389,-1.3163,-1.51,-1.3335,-1.3329,-1.5269,-1.5255,-1.5235,-1.5208,-1.5194,-1.5181,-1.5181,-1.5181,-1.5181,0.0,0.0,0.0,0.0,-1.5181,-1.5181,-1.5181,-1.5181,-1.5126,-1.5238,-1.5183,-1.5039,-1.4672,0.0,0.0,0.0,0.0,0.0,0.0,0.0,0.8038,0.8038,0.8038,0.7959,0.7054,0.4522,0.1679,-0.0,-0.0,0.0,0.0,0.0,0.0,0.0,0.0,0.0,0.0,-0.0,-0.0,-0.0,-0.0,-0.0,-0.0,-0.0,-0.0,-0.0,-0.0,-0.0,-0.0,0.0,0.0,0.0,0.0,0.0,0.0,0.0,0.0,0.0,0.0,0.0,0.0,0.0,0.0,0.0,0.0,0.0,0.0,0.0,0.0,0.0,0.0,0.0,-0.0,-0.0,-0.0,-0.0,-0.141,-0.6673,-0.8458,0.0,-0.8872,-0.8804,-0.8696,-0.8696,-0.856,-0.8459,-0.8479,-0.8364,-0.8308,-0.8228,-0.8111,-0.8998,-1.2052,-1.2162,0.0,-1.1863,-1.2952,-1.397,-1.4245,-1.0151,-0.7435,-0.7011,-0.7406,-0.9905,-1.497,-1.0673,-1.0086,-1.414,-1.4109,-1.448,-1.5248,-1.5208,-1.5187,-1.5181,-1.5181,-1.5181,0.0,0.0,0.0,0.0,-1.5181,-1.5181,-1.5181,-1.5181,-1.5181,-1.5167,-1.5224,-1.5169,-1.5142,0.0,0.0,0.0,0.0,0.0,0.0,0.0,0.0,0.0,0.0,0.7959,0.7772,0.7166,0.2865,-0.0,0.0,0.0,0.0,0.0,0.0,0.0,0.0,0.0,0.0,-0.0,-0.0,-0.0,-0.0,-0.0,-0.0,-0.0,-0.0,-0.0,-0.0,-0.0,-0.0,0.0,0.0,0.0,0.0,0.0,0.0,0.0,0.0,0.0,0.0,-0.0,-0.0,0.0,0.0,0.0,0.0,0.0,0.0,0.0,0.0,-0.0,-0.0,-0.0,0.0,-0.0,-0.0,-0.0,-0.0317,0.0,-0.5409,-0.8687,-0.8642,-0.8655,-0.8533,-0.8533,-0.8323,-0.8221,-0.8445,-0.8364,-0.8275,-0.8118,-0.7631,-0.8863,-1.3211,-1.3756,-1.374,-1.3707,-1.0781,-1.0276,-1.3965,-1.3321,-0.9499,-0.2259,-0.551,-0.9954,-1.5017,-1.4031,-1.0326,-0.361,-0.3608,-0.7403,-1.5248,-1.5242,-1.5215,-1.5181,-1.5181,-1.5181,0.0,0.0,0.0,-1.5181,-1.5181,-1.5181,-1.5181,-1.5181,-1.5181,-1.5181,-1.5147,-1.5252,-1.5156,0.0,0.0,0.0,0.0,0.0,0.0,0.0,0.0,0.0,0.0,0.0,0.7965,0.7979,0.4317,0.0,0.0,0.0,0.0,0.0,0.0,0.0,0.0,0.0,-0.0,-0.0,-0.0,-0.0,-0.0,-0.0,-0.0,-0.0,-0.0,-0.0,-0.0,-0.0,-0.0,0.0,0.0,0.0,0.0,-0.0,0.0,0.0,0.0,0.0,0.0,-0.0,-0.0,0.0,-0.0,-0.0,-0.0,0.0,0.0,0.0,0.0,-0.0,-0.0,-0.0,-0.0,-0.0,-0.0,-0.0,-0.0,-0.0,-0.2426,-0.5426,-0.8075,-0.8454,-0.8367,-0.8404,-0.8199,-0.8048,-0.8248,-0.8203,-0.8045,-0.7838,-0.7986,-0.9195,-1.2216,-1.3672,-1.4231,0.0,-0.7881,-0.4859,-0.7478,-0.7706,-0.5554,-0.0188,-0.2647,-0.5327,-0.8229,-0.8233,-0.554,-0.0,-0.0,-0.2848,-0.8353,-1.2939,-1.5235,-1.5215,-1.5194,-1.5181,0.0,0.0,0.0,-1.5181,-1.5181,-1.5181,-1.5181,-1.5181,-1.5181,-1.5181,-1.5181,-1.5133,-1.5259,0.0,0.0,0.0,0.0,0.0,0.0,0.0,0.0,0.0,0.0,0.0,0.0,0.0,0.0,0.0,0.0,0.0,0.0,0.0,0.0,0.0,0.0,-0.0,-0.0,-0.0,-0.0,-0.0,-0.0,-0.0,-0.0,-0.0,-0.0,-0.0,-0.0,-0.0,-0.0,0.0,0.0,-0.0,0.0,-0.0,0.0,0.0,0.0,0.0,0.0,0.0,0.0,0.0,-0.0,-0.0,-0.0,-0.0,0.0,0.0,0.0,0.0,0.0,-0.0,-0.0,-0.0,-0.0,-0.0,-0.0,-0.0,-0.0,-0.1368,-0.6322,-0.7824,-0.8327,-0.8255,-0.7831,-0.7376,-0.7496,-0.7761,-0.7948,-0.7636,-0.8377,-0.9231,-1.0014,-1.2628,0.0,-1.434,-0.5567,-0.0,-0.0,-0.0,-0.0,-0.0,-0.0,-0.0,-0.0,-0.0,-0.0,-0.0,-0.0,-0.0,-0.019,-0.8735,-1.3706,-1.5248,-1.5208,-1.5187,-1.5181,0.0,0.0,-1.5181,-1.5181,-1.5181,-1.5181,-1.5181,-1.5181,-1.5181,-1.5181,-1.5181,-1.5181,0.0,0.0,0.0,0.0,0.0,0.0,0.0,0.0,0.0,0.0,0.0,0.0,0.0,0.0,0.0,0.0,0.0,0.0,0.0,0.0,0.0,-0.0,-0.0,-0.0,-0.0,-0.0,-0.0,-0.0,-0.0,-0.0,-0.0,-0.0,-0.0,-0.0,-0.0,-0.0,-0.0,-0.0,-0.0,-0.0,-0.0,0.0,0.0,0.0,0.0,0.0,0.0,0.0,0.0,-0.0,-0.0,-0.0,-0.0,0.0,0.0,0.0,0.0,0.0,-0.0,-0.0,-0.0,-0.0,-0.0,-0.0,-0.0,-0.0,-0.0203,-0.1114,-0.5141,-0.8371,-0.8082,-0.6158,-0.4666,-0.5014,-0.6708,-0.7917,-0.7894,-0.7612,-0.7263,-0.702,0.0,-1.4231,-1.4256,-0.5567,-0.0,-0.0,-0.0,-0.0,-0.0,-0.0,-0.0,-0.0,-0.0,-0.0,-0.0,-0.0,-0.0,-0.0,-0.152,-0.6835,-1.5248,-1.5242,-1.5221,-1.5181,0.0,-1.5181,-1.5181,-1.5181,-1.5181,-1.5181,-1.5181,-1.5181,-1.5181,-1.5181,-1.5181,-1.5181,0.0,0.0,0.0,0.0,0.0,0.0,0.0,0.0,0.0,0.0,0.0,0.0,0.0,0.0,0.0,0.0,0.0,0.0,0.0,0.0,-0.0,-0.0,-0.0,-0.0,-0.0,-0.0,-0.0,-0.0,-0.0,-0.0,-0.0,-0.0,-0.0,-0.0,-0.0,-0.0,-0.0,-0.0,-0.0,-0.0,0.0,0.0,0.0,0.0,0.0,0.0,0.0,0.0,0.0,0.0,-0.0,-0.0,-0.0,0.0,0.0,0.0,0.0,0.0,-0.0,-0.0,-0.0,-0.0,-0.0,-0.0,-0.0,-0.0,-0.0,-0.0,-0.4342,-0.8138,-0.8034,-0.7032,-0.5302,-0.252,-0.4152,-0.5298,-0.3908,-0.4507,-0.5648,0.0,0.0,-0.9004,-0.6793,-0.2513,-0.0,-0.0,-0.0,-0.0,-0.0,-0.0,-0.0,-0.0,-0.0,-0.0,-0.0,-0.0,-0.0,-0.0,-0.0,-0.2468,-0.7213,-1.275,-1.5242,-1.5221,0.0,-1.5181,-1.5181,-1.5181,-1.5181,-1.5181,-1.5181,-1.5181,-1.5181,-1.5181,-1.5181,-1.5181,0.0,0.0,0.0,0.0,0.0,0.0,0.0,0.0,0.0,0.0,0.0,0.0,0.0,0.0,0.0,0.0,0.0,0.0,0.0,0.0,-0.0,-0.0,-0.0,-0.0,-0.0,-0.0,-0.0,-0.0,-0.0,-0.0,-0.0,-0.0,-0.0,-0.0,-0.0,-0.0,-0.0,-0.0,-0.0,-0.0,0.0,0.0,0.0,0.0,0.0,0.0,0.0,0.0,0.0,0.0,0.0,0.0,0.0,0.0,0.0,-0.0,-0.0,-0.0,-0.0,-0.0,-0.0,-0.0,-0.0,-0.0,-0.0,-0.0,-0.0,-0.0,-0.3323,-0.6098,-0.6169,-0.6148,-0.4777,-0.0735,-0.1753,-0.2352,-0.0321,-0.166,-0.3395,-0.5147,-0.4995,-0.3636,-0.0357,-0.0,-0.0,-0.0,-0.0,-0.0,-0.0,-0.0,-0.0,-0.0,-0.0,-0.0,-0.0,-0.0,-0.0,-0.0,-0.0,-0.0,-0.019,-0.8164,-1.2939,-1.5248,-1.5215,-1.5194,-1.5181,-1.5181,-1.5181,-1.5181,-1.5181,-1.5181,-1.5181,-1.5181,-1.5181,-1.5181,0.0,0.0,0.0,0.0,0.0,0.0,0.0,0.0,0.0,0.0,0.0,0.0,0.0,0.0,0.0,0.0,0.0,0.0,0.0,0.0,-0.0,-0.0,-0.0,-0.0,-0.0,-0.0,-0.0,-0.0,-0.0,-0.0,-0.0,-0.0,-0.0,-0.0,-0.0,-0.0,-0.0,-0.0,-0.0,-0.0,-0.0,0.0,0.0,0.0,0.0,0.0,0.0,0.0,0.0,0.0,0.0,0.0,0.0,0.0,-0.0,-0.0,-0.0,-0.0,-0.0,-0.0,-0.0,-0.0,-0.0,-0.0,-0.0,-0.0,-0.0,-0.0,-0.027,-0.0524,-0.057,-0.0559,-0.0475,-0.0,-0.0151,-0.0163,-0.0,0.0,-0.0353,-0.0533,-0.0533,-0.0356,-0.0,-0.0,-0.0,-0.0,-0.0,-0.0,-0.0,-0.0,-0.0,-0.0,-0.0,-0.0,-0.0,-0.0,-0.0,-0.0,-0.0,-0.0,-0.0,-0.076,-0.6263,-1.5248,-1.5248,-1.5221,-1.5181,-1.5181,-1.5181,-1.5181,-1.5181,-1.5181,-1.5181,-1.5181,-1.5181,-1.5181,0.0,0.0,0.0,0.0,0.0,0.0,0.0,0.0,0.0,0.0,0.0,0.0,0.0,0.0,0.0,0.0,0.0,0.0,0.0,-0.0,-0.0,-0.0,-0.0,-0.0,-0.0,-0.0,-0.0,-0.0,-0.0,-0.0,-0.0,-0.0,-0.0,-0.0,-0.0,-0.0,-0.0,-0.0,-0.0,-0.0,-0.0,-0.0,0.0,0.0,0.0,0.0,0.0,0.0,0.0,0.0,-0.0,-0.0,-0.0,-0.0,-0.0,-0.0,-0.0,-0.0,-0.0,-0.0,-0.0,-0.0,-0.0,-0.0,-0.0,-0.0,-0.0,-0.0,-0.0,-0.0,-0.0,-0.0,-0.0,-0.0,-0.0,-0.0,-0.0,-0.0,-0.0,-0.0,-0.0,-0.0,-0.0,-0.0,-0.0,-0.0,-0.0,-0.0,-0.0,-0.0,-0.0,-0.0,-0.0,-0.0,-0.0,-0.0,-0.0,-0.0,-0.0,-0.0,-0.0,-0.0,-0.2087,-0.606,-1.2356,-1.5228,-1.5181,-1.5181,-1.5181,-1.5181,-1.5181,-1.5181,-1.5181,-1.5181,-1.5181,-1.5181,0.0,0.0,0.0,0.0,0.0,0.0,0.0,0.0,0.0,0.0,0.0,0.0,0.0,0.0,0.0,0.0,0.0,0.0,0.0197,-0.0,-0.0,-0.0,-0.0,-0.0,-0.0,-0.0,-0.0,-0.0,-0.0,-0.0,-0.0,-0.0,-0.0,-0.0,-0.0,-0.0,-0.0,-0.0,-0.0,-0.0,-0.0,-0.0,0.0,0.0,0.0,0.0,0.0,0.0,0.0,0.0,-0.0,-0.0,-0.0,-0.0,-0.0,-0.0,-0.0,-0.0,-0.0,-0.0,-0.0,-0.0,-0.0,-0.0,-0.0,-0.0,-0.0,-0.0,-0.0,-0.0,-0.0,-0.0,0.0,0.0,-0.0,-0.0,-0.0,-0.0,-0.0,-0.0,-0.0,-0.0,-0.0,-0.0,-0.0,-0.0,-0.0,-0.0,-0.0,-0.0,-0.0,-0.0,-0.0,-0.0,-0.0,-0.0,-0.0,-0.0,-0.0,-0.0,-0.0,-0.0,-0.171,-0.5124,-1.2183,-1.5242,-1.5201,-1.5187,-1.5181,-1.5181,-1.5181,-1.5181,-1.5181,-1.5181,-1.5181,-1.5181,0.0,0.0,0.0,0.0,0.0,0.0,0.0,0.0,0.0,0.0,0.0,0.0,0.0,0.0,0.0,0.0,0.0,0.0,0.0402,-0.0,-0.0,-0.0,-0.0,-0.0,-0.0,-0.0,-0.0,-0.0,-0.0,-0.0,-0.0,-0.0,-0.0,-0.0,-0.0,-0.0,-0.0,-0.0,-0.0,-0.0,-0.0,-0.0,-0.0,0.0,0.0,0.0,0.0,0.0,0.0,0.0,-0.0,-0.0,-0.0,-0.0,-0.0,-0.0,-0.0,-0.0,-0.0,-0.0,-0.0,-0.0,-0.0,-0.0,-0.0,-0.0,-0.0,-0.0,-0.0,-0.0,-0.0,-0.0,0.0,-0.0,-0.0,-0.0,-0.0,-0.0,-0.0,-0.0,-0.0,-0.0,-0.0,-0.0,-0.0,-0.0,-0.0,-0.0,-0.0,-0.0,-0.0,-0.0,-0.0,-0.0,-0.0,-0.0,-0.0,-0.0,-0.0,-0.0,-0.0,-0.0,-0.5535,-1.497,-1.5127,-1.5282,-1.5248,-1.5201,-1.5181,-1.5181,-1.5181,-1.5181,-1.5181,-1.5181,-1.5181,-1.5181,0.0,0.0,0.0,0.0,0.0,0.0,0.0,0.0,0.0,0.0,0.0,0.0,0.0,0.0,0.0,0.0,0.0,0.0,0.5727,0.2109,-0.0,-0.0,-0.0,-0.0,-0.0,-0.0,-0.0,-0.0,-0.0,-0.0,-0.0,-0.0,-0.0,-0.0,-0.0,-0.0,-0.0,-0.0,-0.0,-0.0,-0.0,-0.0,-0.0,0.0,0.0,0.0,0.0,0.0,0.0,0.0,0.0,0.0,-0.0,-0.0,-0.0,-0.0,-0.0,-0.0,-0.0,-0.0,-0.0,-0.0,0.0,0.0,-0.0,-0.0,-0.0,-0.0,-0.0,-0.0,-0.0,-0.0,0.0,-0.0,-0.0,-0.0,-0.0,-0.0,-0.0,-0.0,-0.0,-0.0,-0.0,-0.0,-0.0,-0.0,-0.0,-0.0,-0.0,-0.0,-0.0,-0.0,-0.0,-0.0,-0.0,-0.0,-0.0,-0.0,-0.0,-0.0,-0.0,-0.0,-0.1716,-0.4945,-1.2021,-1.5282,-1.5248,-1.5201,-1.5181,-1.5181,-1.5181,-1.5181,-1.5181,-1.5181,-1.5181,-1.5181,0.0,0.0,0.0,0.0,0.0,0.0,0.0,0.0,0.0,0.0,0.7821,0.0,0.0,0.0,0.0,0.0,0.0,0.0,0.0,0.4926,0.2711,0.1607,0.0604,-0.0,-0.0,-0.0,-0.0,-0.0,-0.0,-0.0,-0.0,-0.0,-0.0,-0.0,-0.0,-0.0,-0.0,-0.0,-0.0,-0.0,-0.0,-0.0,-0.0,0.0,0.0,0.0,0.0,0.0,0.0,0.0,0.0,0.0,-0.0,-0.0,-0.0,-0.0,-0.0,-0.0,-0.0,-0.0,-0.0,-0.0,-0.0,-0.0,-0.0,0.0,0.0,0.0,-0.0,-0.0,-0.0,-0.0,0.0,-0.0,-0.0,-0.0,-0.0,-0.0,-0.0,-0.0,-0.0,-0.0,-0.0,-0.0,-0.0,-0.0,-0.0,-0.0,-0.0,-0.0,-0.0,-0.0,-0.0,-0.0,-0.0,-0.0,-0.0,-0.0,-0.0,-0.0,-0.0,-0.0,-0.0,-0.0571,-1.0687,-1.5107,-1.5248,-1.5235,-1.5215,-1.5181,-1.5201,-1.5201,-1.5181,-1.5181,-1.5181,-1.5187,0.0,0.0,0.0,0.0,0.0,0.0,0.0,0.0,0.0,0.0,0.7685,0.759,0.0,0.0,0.0,0.0,0.0,0.0,0.0,0.0,0.6954,0.4518,0.1607,-0.0,-0.0,-0.0,-0.0,-0.0,-0.0,-0.0,-0.0,-0.0,-0.0,-0.0,-0.0,-0.0,-0.0,-0.0,-0.0,-0.0,-0.0,-0.0,-0.0,-0.0,0.0,0.0,0.0,0.0,0.0,0.0,0.0,0.0,-0.0,-0.0,-0.0,-0.0,-0.0,-0.0,-0.0,-0.0,-0.0,-0.0,-0.0,0.0,-0.0,-0.0,-0.0,-0.0,0.0,-0.0,-0.0,-0.0,-0.0,-0.0,-0.0,-0.0,-0.0,-0.0,-0.0,-0.0,-0.0,-0.0,-0.0,-0.0,-0.0,-0.0,-0.0,-0.0,-0.0,-0.0,-0.0,-0.0,-0.0,-0.0,-0.0,-0.0,-0.0,-0.0,-0.0,-0.0,-0.0,-0.0,-0.0,-0.0572,-0.9746,-1.3761,-1.3901,-1.4897,-1.5255,-1.5194,-1.5235,-1.5228,-1.5187,-1.5194,-1.5194,-1.5201,0.0,0.0,0.0,0.0,0.0,0.0,0.0,0.0,0.0,0.0,0.0,0.0,0.0,0.0,0.0,0.0,0.0,0.0,0.0,0.0,0.7766,0.7153,0.2511,-0.0,-0.0,-0.0,-0.0,-0.0,-0.0,-0.0,-0.0,-0.0,-0.0,-0.0,-0.0,-0.0,-0.0,-0.0,-0.0,-0.0,-0.0,-0.0,-0.0,-0.0,-0.0,0.0,0.0,0.0,0.0,0.0,0.0,0.0,-0.0,-0.0,-0.0,-0.0,-0.0,-0.0,-0.0,-0.0,0.0,-0.0,-0.0,-0.0,-0.0,-0.0,-0.0,-0.0,-0.0,-0.0,-0.0,-0.0,-0.0,-0.0,-0.0,-0.0,-0.0,-0.0,-0.0,-0.0,-0.0,-0.0,-0.0,-0.0,-0.0,-0.0,-0.0,-0.0,-0.0,-0.0,-0.0,-0.0,-0.0,-0.0,-0.0,-0.0,-0.0,-0.0,-0.0,-0.0,-0.0,-0.0,-0.0,-0.019,-0.2281,-0.3227,-0.3977,-1.181,-1.5276,-1.5242,-1.5276,-1.5269,-1.5242,-1.5269,-1.5276,-1.5276,0.0,0.0,0.0,0.0,0.0,0.0,0.0,0.0,0.0,0.0,0.0,0.0,0.0,0.0,0.0,0.0,0.0,0.0,0.0,0.0,0.7959,0.7972,0.5331,0.3215,0.1908,0.191,0.1805,0.1689,0.1754,0.1177,-0.0,-0.0,-0.0,-0.0,-0.0,-0.0,-0.0,-0.0,-0.0,-0.0,-0.0,-0.0,-0.0,-0.0,-0.0,-0.0,-0.0,0.0,0.0,0.0,0.0,0.0,0.0,0.0,-0.0,-0.0,-0.0,-0.0,-0.0,-0.0,0.0,-0.0,0.0,-0.0,-0.0,-0.0,-0.0,-0.0,-0.0,-0.0,-0.0,-0.0,-0.0,-0.0,-0.0,-0.0,-0.0,-0.0,-0.0,-0.0,-0.0,-0.0,-0.0,-0.0,-0.0,-0.0,-0.0,-0.0,-0.0,-0.0,-0.0,-0.0,-0.0,-0.0,-0.0,-0.0,-0.0,-0.0,-0.0,-0.0,-0.0,-0.0,-0.0,-0.0,-0.0,-0.0,-0.0379,-0.5707,-0.7989,-0.8345,-1.337,-1.2199,-0.8153,-1.0654,-1.1621,-1.1815,0.0,0.0,0.0,0.0,0.0,0.0,0.0,0.0,0.0,0.0,0.0,0.0,0.0,0.0,0.0,0.0,0.0,0.0,0.0,0.0,0.0,0.7965,0.7972,0.6954,0.4722,0.4606,0.4468,0.4306,0.4219,0.3195,0.1305,0.0884,0.0676,0.067,0.0668,0.0654,0.0632,0.0632,0.036,-0.0,-0.0,-0.0,-0.0,-0.0,-0.0,-0.0,-0.0,-0.0,-0.0,-0.0,0.0,0.0,0.0,0.0,-0.0,-0.0,-0.0,-0.0,-0.0,-0.0,-0.0,-0.0,-0.0,0.0,-0.0,-0.0,-0.0,-0.0,-0.0,-0.0,-0.0,-0.0,-0.0,-0.0,-0.0,-0.0,-0.0,-0.0,-0.0,-0.0,-0.0,-0.0,-0.0,-0.0,0.0718,0.2333,0.0898,-0.0,-0.0,-0.0,-0.0,-0.0,-0.0,-0.0,-0.0,-0.0,-0.0,-0.0,-0.0,-0.0,-0.0,-0.0,-0.0,-0.0,-0.0,-0.0,-0.0,-0.0,-0.0,-0.0758,-0.9344,-0.8573,-0.2844,-0.5316,-0.6269,-0.6841,0.0,0.0,0.0,0.0,0.0,0.0,0.0,0.0,0.0,0.0,0.0,0.0,0.0,0.0,0.0,0.0,0.0,0.0,0.0,0.0,0.0,0.8045,0.7965,0.7865,0.7459,0.726,0.7095,0.7082,0.6745,0.6661,0.6508,0.4163,0.3213,0.3503,0.3445,0.3377,0.3121,0.3121,0.1907,-0.0,-0.0,-0.0,-0.0,-0.0,-0.0,-0.0,-0.0,-0.0,-0.0,-0.0,-0.0,0.0,0.0,0.0,-0.0,-0.0,-0.0,-0.0,-0.0,0.0,-0.0,0.0,-0.0,-0.0,0.0,0.0,-0.0,0.0,-0.0,-0.0,-0.0,-0.0,-0.0,-0.0,-0.0,-0.0,-0.0,-0.0,-0.0,-0.0,-0.0,-0.0,-0.0,-0.0,0.3411,1.1715,0.4668,-0.0,-0.0,-0.0,-0.0,-0.0,-0.0,-0.0,-0.0,-0.0,-0.0,-0.0,-0.0,-0.0,-0.0,-0.0,-0.0,-0.0,-0.0,-0.0,-0.0,-0.0,-0.0,-0.019,-0.1524,-0.6678,-1.2237,-0.4004,-0.0954,-0.1143,0.0,0.0,0.0,0.0,0.0,0.0,0.0,0.0,0.0,0.0,0.0,0.0,0.0,0.0,0.0,0.0,0.0,0.0,0.0,0.0,0.0,0.8038,0.8052,0.7952,0.7952,0.7811,0.7704,0.7624,0.7376,0.7383,0.7624,0.6426,0.5905,0.5981,0.6128,0.6194,0.6029,0.5722,0.4903,0.3954,0.399,0.5415,0.7133,0.3439,0.2038,0.1852,0.0517,-0.0,-0.0,-0.0,-0.0,-0.0,-0.0,0.0,0.0,0.0,-0.0,-0.0,-0.0,-0.0,-0.0,0.0,-0.0,-0.0,-0.0,-0.0,-0.0,-0.0,-0.0,-0.0,-0.0,-0.0,-0.0,-0.0,-0.0,-0.0,-0.0,-0.0,-0.0,-0.0,0.4668,0.809,0.809,0.3224,0.1788,0.5904,0.7345,0.5728,0.0357,-0.0,-0.0,-0.0,-0.0,-0.0,-0.0,-0.0,-0.0,-0.0,-0.0,-0.0,-0.0,-0.0,-0.0,-0.0,-0.0,-0.0,-0.0,-0.0,-0.0,-0.0,-0.0,-0.2671,-0.6106,-0.1717,-0.0,-0.0,0.0,0.0,0.0,0.0,0.0,0.0,0.0,0.0,0.0,0.0,0.0,0.0,0.0,0.0,0.0,0.0,0.0,0.0,0.0,0.0,0.0,0.8038,0.8038,0.8024,0.7984,0.7834,0.7685,0.7543,0.7387,0.7414,0.7597,0.7597,0.7617,0.772,0.7923,0.798,0.7937,0.7435,0.697,0.6612,0.6948,0.9233,1.2039,0.7082,0.4858,0.4159,0.2403,0.1451,0.0948,0.092,0.0833,0.0752,0.0802,0.087,0.0,0.0,0.0,0.0177,0.0698,0.0,-0.0,-0.0,-0.0,-0.0,0.0,0.0,-0.0,0.0,-0.0,-0.0,-0.0,-0.0,-0.0,-0.0,-0.0,0.0897,0.3231,0.359,0.323,0.1972,0.8079,1.2973,1.4256,0.7874,0.3566,0.3565,1.0209,1.112,0.4099,0.3571,0.2504,-0.0,-0.0,-0.0,-0.0,-0.0,-0.0,-0.0,-0.0,-0.0,-0.0,-0.0,-0.0,-0.0,-0.0,-0.0,-0.0,-0.0,-0.0,-0.0,-0.0,-0.0,-0.0,-0.0,-0.0,-0.0,0.0,0.0,0.0,0.0,0.0,0.0,0.0,0.0,0.0,0.0,0.0,0.0,0.8248,0.8126,0.8038,0.8038,0.8038,0.8038,0.8038,0.8038,0.8038,0.8038,0.8038,0.0,0.7828,0.7685,0.7536,0.7387,0.7224,0.7305,0.7597,0.7597,0.7753,0.7932,0.8031,0.7943,0.7787,0.7658,0.6638,0.5337,0.6355,0.8252,1.0409,0.9723,0.828,0.654,0.6647,0.5297,0.3376,0.3369,0.3238,0.292,0.293,0.315,0.3396,0.0,0.0,0.0,0.2746,0.1793,0.0,-0.0,-0.0,-0.0,0.0,0.0,-0.0,-0.0,-0.0,-0.0,-0.0,-0.0,-0.0,-0.0,-0.0,0.3231,1.2264,1.3541,1.1883,0.7331,0.7149,0.9308,1.3859,1.3859,1.3477,1.3623,1.4018,1.4024,1.3623,1.3477,0.9322,0.0358,-0.0,-0.0,-0.0,-0.0,-0.0,-0.0,-0.0,-0.0,-0.0,-0.0,-0.0,-0.0,-0.0,-0.0,-0.0,-0.0,-0.0,-0.0,-0.0,-0.0,-0.0,-0.0,-0.0,-0.0,0.0,0.0,0.0,0.0,0.0,0.0,0.0,0.0,0.0,0.0,0.0,0.0,0.0,0.8072,0.8038,0.8038,0.8038,0.8038,0.8038,0.8038,0.8038,0.8038,0.7943,0.7868,0.7814,0.7577,0.7475,0.7516,0.7366,0.7441,0.774,0.7834,0.7936,0.8038,0.7936,0.7875,0.7925,0.7868,0.7429,0.6828,0.8005,0.953,1.0921,0.9537,0.9361,0.9819,0.8701,0.0,0.5856,0.6067,0.5946,0.5667,0.5442,0.546,0.5587,0.5756,0.524,0.4426,0.3828,0.0,0.0,0.2743,0.5843,0.8414,0.5237,0.4473,0.4472,0.4472,0.4472,0.4472,0.4472,0.1971,0.1974,0.809,0.9173,0.9348,0.9688,1.2407,1.3687,1.1849,1.1649,1.2366,1.4189,1.4346,1.4333,1.4319,1.4326,1.4333,1.4319,1.4353,1.274,0.9322,0.3219,-0.0,-0.0,-0.0,-0.0,-0.0,-0.0,-0.0,-0.0,-0.0,-0.0,-0.0,-0.0,-0.0,-0.0,-0.0,-0.0,-0.0,-0.0,-0.0,-0.0,-0.0,-0.0,-0.0,0.0,0.0,0.0,0.0,0.0,0.0,0.0,0.0,0.0,0.8275,0.0,0.0,0.0,0.0,0.8038,0.8038,0.8038,0.8038,0.8038,0.7991,0.7963,0.7963,0.7821,0.7719,0.7665,0.7468,0.7421,0.7522,0.7421,0.7522,0.7814,0.7916,0.8018,0.8106,0.7902,0.7848,0.8007,0.8,0.787,0.7882,0.9245,1.0429,1.1149,0.971,1.0012,0.0,0.0,0.0,0.7743,0.84,0.8477,0.8092,0.7583,0.7121,0.6837,0.6993,0.7128,0.6783,0.5157,0.5955,0.6614,0.0,0.7917,1.1429,0.9905,0.9524,0.9478,0.9428,0.9491,0.9491,0.9491,0.6988,0.6279,1.1146,1.3158,1.3146,1.0021,1.2194,1.438,1.4373,1.4346,1.4333,1.4333,1.4312,1.4299,1.4299,1.4299,0.0,1.4299,1.4319,1.38,1.274,0.447,-0.0,-0.0,-0.0,-0.0,-0.0,-0.0,-0.0,-0.0,-0.0,-0.0,-0.0,-0.0,-0.0,-0.0,-0.0,-0.0,-0.0,-0.0,-0.0,-0.0,-0.0,-0.0,-0.0,0.0,0.0,0.0,0.0,0.0,0.0,0.0,0.0,0.8431,0.8282,0.0,0.0,0.0,0.0,0.0,0.8038,0.8038,0.8038,0.8031,0.7896,0.7814,0.7814,0.7678,0.7536,0.7387,0.738,0.738,0.7387,0.7387,0.7536,0.7821,0.7821,0.7977,0.8248,0.7957,0.7902,0.8038,0.8031,0.8038,0.8187,0.9836,1.0588,1.069,1.0426,1.0344,0.0,0.9184,0.8906,0.0,1.0209,0.0,0.0,0.9042,0.7868,0.6966,0.7102,0.7068,0.7081,0.0,0.0,0.0,0.526,0.0,0.0,1.3015,0.0,1.4185,1.4242,1.4162,1.4175,1.4216,1.4222,1.2752,0.804,1.1293,1.4209,1.4353,1.4346,1.434,1.4306,1.4299,1.4299,1.4299,1.4299,1.4299,1.4299,1.4299,1.4299,1.4299,1.4299,1.2863,0.981,0.3571,0.0358,-0.0,-0.0,-0.0,-0.0,-0.0,-0.0,-0.0,-0.0,-0.0,-0.0,-0.0,-0.0,-0.0,-0.0,-0.0,-0.0,-0.0,-0.0,-0.0,-0.0,-0.0,-0.0,0.0,0.0,0.0,0.0,0.0,1.0675,0.9315,0.8822,0.8391,0.0,0.0,0.0,0.8038,0.8038,0.8038,0.8038,0.8038,0.7991,0.7882,0.7936,0.7929,0.7814,0.7773,0.7733,0.7692,0.759,0.759,0.7692,0.7692,0.7787,0.7977,0.7977,0.8024,0.8106,0.8133,0.8106,0.8031,0.7923,0.7936,0.8194,0.9951,1.0683,1.0772,0.0,0.0,0.0,0.0,1.1233,1.1423,0.0,1.0799,0.9157,0.795,0.7428,0.7238,0.7163,0.7054,0.7061,0.7143,0.0,0.0,0.0,0.0,0.0,0.0,0.0,1.1804,1.2617,1.2874,1.3173,1.415,1.4326,1.3748,1.2378,1.3369,1.4353,1.4319,1.4312,1.4312,1.4299,1.4299,1.4299,1.4299,1.4299,1.4299,0.0,1.4299,1.4299,1.4299,1.4326,1.3971,1.3071,1.1314,0.6994,-0.0,-0.0,-0.0,-0.0,-0.0,-0.0,-0.0,-0.0,-0.0,-0.0,-0.0,-0.0,-0.0,-0.0,-0.0,-0.0,-0.0,-0.0,-0.0,-0.0,-0.0,-0.0,0.0,0.0,0.0,0.0,0.0,1.1648,1.0598,0.9354,0.8397,0.0,0.0,0.0,0.8038,0.8099,0.8133,0.8133,0.8133,0.8099,0.8011,0.7963,0.7902,0.7814,0.7753,0.7726,0.7726,0.7645,0.7672,0.7814,0.7814,0.7889,0.8038,0.8038,0.8072,0.814,0.816,0.816,0.8133,0.8038,0.8052,0.8289,1.0093,0.0,0.0,1.1803,1.2549,0.0,0.0,0.0,1.2542,1.3003,1.1606,0.0,0.0,0.8011,0.7258,0.717,0.7143,0.7143,0.7143,0.7061,0.7068,0.7143,0.0,0.0,0.9313,0.9992,1.0921,0.0,1.3132,1.337,1.4156,1.4299,1.4251,1.4095,1.4163,1.4224,1.4204,1.4204,1.4231,1.4292,1.4299,1.4299,1.4299,1.4299,1.4299,1.4299,1.4299,1.4299,1.4299,1.4319,1.4326,1.4326,1.438,1.0585,0.3037,0.1074,-0.0,-0.0,-0.0,-0.0,-0.0,-0.0,-0.0,-0.0,-0.0,-0.0,-0.0,-0.0,-0.0,-0.0,-0.0,-0.0,-0.0,-0.0,-0.0,-0.0,0.0,0.0,1.7462,1.7028,1.5059,1.3398,1.2856,1.0451,0.864,0.0,0.8174,0.8079,0.8065,0.8201,0.8289,0.8275,0.8269,0.8255,0.8221,0.7977,0.7828,0.7814,0.7706,0.7651,0.7651,0.7665,0.7726,0.7834,0.7855,0.7923,0.8038,0.8038,0.8113,0.8241,0.8119,0.814,0.8275,0.8289,0.8364,0.8615,1.0297,1.1036,0.0,0.0,1.2678,1.2678,1.2698,1.2786,1.3003,1.3675,1.2583,0.0,0.0,0.0,0.0,0.0,0.7238,0.7312,0.7177,0.7143,0.7143,0.7143,0.6946,0.0,0.9734,1.0073,1.0595,0.0,1.3627,1.3668,1.3804,1.3831,1.377,1.358,1.3688,1.3858,1.4021,1.4048,1.4095,1.4231,1.4251,1.4251,1.4251,1.4265,1.4278,1.4278,1.4292,1.4299,1.4299,1.4299,1.4299,1.4299,1.4333,1.2183,0.7866,0.2681,-0.0,-0.0,-0.0,-0.0,-0.0,-0.0,-0.0,-0.0,-0.0,-0.0,-0.0,-0.0,-0.0,-0.0,-0.0,-0.0,-0.0,-0.0,-0.0,-0.0,1.7462,1.7355,1.6964,1.5964,1.5281,1.4147,1.17,1.0766,0.9808,0.8647,0.8418,0.835,0.8241,0.8357,0.8397,0.8282,0.8269,0.8167,0.7916,0.7963,0.7936,0.7814,0.7902,0.795,0.795,0.8079,0.8092,0.7997,0.8119,0.8133,0.8038,0.8038,0.8058,0.8092,0.818,0.8241,0.8275,0.8391,0.0,0.9788,1.0738,1.107,1.1192,1.3057,1.3763,1.3783,1.3905,1.3966,1.3871,1.3078,1.2596,1.1979,0.0,0.0,0.0,0.7746,0.0,0.0,0.7407,0.7143,0.7143,0.0,0.0,0.0,0.7421,0.7441,0.7787,0.0,0.9449,0.9741,1.0704,1.088,1.0751,1.0358,1.1307,1.2515,1.3715,1.3885,1.3899,1.3926,1.3933,1.3933,1.3933,1.4041,1.4116,1.4297,1.4231,1.4299,1.4299,1.4299,1.4299,1.4299,1.4333,1.382,1.2936,0.4293,-0.0,-0.0,-0.0,-0.0,-0.0,-0.0,-0.0,-0.0,-0.0,-0.0,-0.0,-0.0,-0.0,-0.0,-0.0,-0.0,-0.0,-0.0,-0.0,-0.0,1.6927,1.6927,1.6764,1.6175,1.5559,1.4484,1.2452,1.1416,1.0404,0.8918,0.8642,0.854,0.8391,0.8438,0.8452,0.8384,0.8309,0.8208,0.8052,0.8113,0.8119,0.8045,0.818,0.8262,0.8262,0.8269,0.8235,0.8153,0.8153,0.8113,0.8038,0.8038,0.7963,0.7828,0.8052,0.8113,0.8058,0.8357,0.9042,1.0012,1.0914,0.0,1.2115,1.3614,1.4183,1.4197,1.4272,1.4299,1.4211,1.36,1.2705,0.0,1.0955,1.0412,0.9788,0.0,0.8465,0.8676,0.0,0.0,0.0,0.7143,0.0,0.0,0.0,0.759,0.7821,0.9028,0.9211,0.934,0.9937,0.9985,0.9842,0.9544,1.069,1.1565,1.1416,1.2745,1.3763,1.3831,1.3838,1.3838,1.3838,1.3912,1.3987,1.4242,1.4217,1.4299,1.4299,1.4299,1.4299,1.4299,1.4319,1.434,1.438,0.7153,0.2325,-0.0,-0.0,-0.0,-0.0,-0.0,-0.0,-0.0,-0.0,-0.0,-0.0,-0.0,-0.0,-0.0,-0.0,-0.0,-0.0,-0.0,-0.0,-0.0,1.6406,1.65,1.666,1.6767,1.6049,1.5013,1.3879,1.2695,1.1259,0.9501,0.9061,0.8927,0.8765,0.9301,0.9587,0.9557,0.9854,0.9724,0.9115,0.9129,0.8877,0.8316,0.8391,0.8438,0.8438,0.833,0.8255,0.8228,0.8133,0.8085,0.8085,0.8085,0.7957,0.7746,0.8221,0.8228,0.7936,0.8533,0.0,1.0195,0.0,1.202,1.3057,1.396,1.4319,1.434,1.434,1.434,1.4312,1.4143,1.2874,1.1443,1.1823,1.0995,0.0,0.0,0.0,0.0,0.0,0.0,0.0,0.0,0.0,0.7021,0.0,0.0,0.0,0.9286,0.0,0.0,0.9239,0.0,0.0,0.8621,0.0,0.0,0.0,1.0819,0.0,1.2793,1.337,1.3634,1.3315,1.3281,1.3505,1.4034,1.3865,1.3905,1.4278,1.4299,1.4299,1.4299,1.4299,1.4319,1.4353,1.0382,0.5719,-0.0,-0.0,-0.0,-0.0,-0.0,-0.0,-0.0,-0.0,-0.0,-0.0,-0.0,-0.0,-0.0,-0.0,-0.0,-0.0,-0.0,-0.0,-0.0,1.666,1.6473,1.6486,1.7007,1.7025,1.6509,1.5376,1.4918,1.375,1.0837,1.0176,0.9999,0.9823,1.1999,1.3476,1.3287,1.496,1.4881,1.2134,1.2109,1.1156,0.8591,0.835,0.8296,0.8296,0.8282,0.8201,0.8065,0.8187,0.8241,0.8241,0.8241,0.8228,0.8241,0.9334,0.9225,0.8289,0.9401,1.0392,0.0,1.1341,1.202,0.0,1.396,1.438,1.4489,1.4489,1.4489,1.4367,0.0,1.3132,1.2569,0.0,1.1131,1.187,0.8526,0.0,0.0,0.0,0.0,0.0,0.0,0.7021,0.0,0.0,0.0,0.6681,0.6715,0.0,0.6444,0.6308,0.0,0.0,0.0,0.0,0.0,0.6281,0.7834,0.9069,0.9089,1.1674,1.2881,1.1416,1.1274,1.2054,1.3933,1.261,1.2474,1.4211,1.4299,1.4299,1.4299,1.4299,1.4319,1.4353,1.3833,0.896,-0.0,-0.0,-0.0,-0.0,-0.0,-0.0,-0.0,-0.0,-0.0,-0.0,-0.0,-0.0,-0.0,-0.0,-0.0,-0.0,-0.0,-0.0,-0.0,1.67,1.6607,1.666,1.7074,1.7154,1.6821,1.5589,1.4051,1.2526,1.125,1.0257,0.9713,0.9544,1.0516,0.0,1.3381,0.0,1.412,0.0,1.2813,1.1634,0.8625,0.8513,0.8486,0.8397,0.8316,0.8282,0.8296,0.8282,0.8316,0.8391,0.8391,0.8255,0.8058,0.9347,0.9544,0.8967,0.0,1.0622,0.0,0.0,0.0,0.0,1.4116,1.4516,1.4645,1.4645,1.4645,1.4584,0.0,1.3214,0.0,0.0,0.0,0.0,0.9856,0.0,0.0,0.0,0.0,0.0,0.0,0.0,0.0,0.6763,0.0,0.6308,0.0,0.0,0.0,0.0,0.0,0.0,0.0,0.6051,0.0,0.0,0.0,0.8452,0.837,0.0,0.0,1.0792,1.0894,1.1748,1.3668,1.2311,1.2203,1.4068,1.4251,1.4299,1.4299,1.4299,1.4306,1.4319,1.436,1.0926,0.4109,0.1253,-0.0,-0.0,-0.0,-0.0,-0.0,-0.0,-0.0,-0.0,-0.0,-0.0,-0.0,-0.0,-0.0,-0.0,-0.0,-0.0,-0.0,1.6941,1.682,1.6794,1.7101,1.7154,1.6924,1.6131,1.3993,1.259,1.259,1.1673,1.09,1.0324,1.1435,0.0,0.0,1.5887,1.5909,0.0,1.4285,1.304,1.0333,0.9226,0.9033,0.9712,0.8822,0.8377,0.8479,0.8377,0.8404,0.8547,0.8547,0.835,0.8052,0.9361,0.9761,0.949,0.0,1.1063,1.1999,1.2142,1.2657,1.3431,1.4306,1.4679,1.4746,1.4787,1.4801,1.4767,1.4516,1.3349,0.0,1.3532,0.0,1.0724,0.0,0.0,0.0,0.8336,0.0,0.0,0.0,0.0,0.0,0.0,0.0,0.0,0.0,0.0,0.0,0.0,0.0,0.5257,0.4938,0.0,0.5895,0.0,0.5813,0.0,0.0,0.0,0.0,0.0,0.9639,1.0385,1.2718,1.1463,1.1613,1.3946,1.4217,1.4299,1.4299,1.4299,1.4299,1.4299,1.4333,1.2544,0.8947,0.2868,-0.0,-0.0,-0.0,-0.0,-0.0,-0.0,-0.0,-0.0,-0.0,-0.0,-0.0,-0.0,-0.0,-0.0,-0.0,-0.0,-0.0,1.7555,1.7101,1.6794,1.7101,1.7154,1.7248,1.7528,1.651,0.0,0.0,0.0,0.0,0.0,0.0,0.0,0.0,0.0,2.352,1.8656,0.0,1.6361,0.0,0.0,0.9874,1.2857,1.0014,0.8479,0.8479,0.8479,0.8554,0.8703,0.8703,0.8615,0.8513,0.9727,1.0019,0.9686,1.1009,1.2088,1.2929,1.3071,1.3152,1.3308,0.0,1.4869,1.476,1.4909,0.0,0.0,1.396,1.3614,0.0,0.0,0.0,0.0,0.0,0.0,0.0,0.0,0.0,0.0,0.7658,0.0,0.0,0.0,0.0,0.6338,0.0,0.0,0.0,0.0,0.5555,0.5121,0.4341,0.4551,0.0,0.0,0.3581,0.0,0.0,0.0,0.0,0.0,0.6559,0.7068,1.0758,0.951,1.0181,1.3871,1.4217,1.4299,1.4299,1.4299,1.4299,1.4299,1.4333,1.4189,1.4037,0.4519,-0.0,-0.0,-0.0,-0.0,-0.0,-0.0,-0.0,-0.0,-0.0,-0.0,-0.0,-0.0,-0.0,-0.0,-0.0,-0.0,-0.0,1.7582,1.7422,1.7382,1.7689,0.0,0.0,0.0,1.7017,0.0,0.0,1.6436,0.0,0.0,1.7937,1.9492,0.0,0.0,2.2094,1.892,1.8094,0.0,0.0,0.0,1.0219,0.0,1.0139,0.8533,0.8635,0.8635,0.8662,0.871,0.8811,0.8723,0.8533,0.9741,1.0527,0.0,0.0,0.0,0.0,0.0,1.2759,1.3498,0.0,1.381,1.3966,1.4808,1.5113,0.0,1.476,1.4129,1.3546,1.3926,1.3207,1.2291,1.2623,1.2338,0.0,0.0,0.0,1.1016,0.8927,0.0,0.0,0.0,0.0,0.0,0.0,0.0,0.0,0.0,0.5494,0.5216,0.4769,0.4775,0.4599,0.0,0.3493,0.0,0.0,0.0,0.0,0.0,0.0,0.8194,1.0758,1.0521,1.1375,1.3933,1.4217,1.4299,1.4299,1.4299,1.4299,1.4299,1.4312,1.4216,1.419,0.7801,0.3113,-0.0,-0.0,-0.0,-0.0,-0.0,-0.0,-0.0,-0.0,-0.0,-0.0,-0.0,-0.0,-0.0,-0.0,-0.0,-0.0,1.7582,1.7582,1.7649,0.0,0.0,0.0,0.0,0.0,0.0,0.0,1.8113,0.0,1.8709,0.0,2.084,0.0,2.3091,2.2356,1.9064,1.9391,0.0,1.6519,1.375,1.3711,0.0,0.0,1.0393,1.0501,0.9382,0.8818,0.8872,0.8967,0.8879,0.8682,0.951,1.0527,1.1633,1.183,1.2705,0.0,0.0,1.2223,0.0,0.0,1.2976,1.3634,0.0,1.5181,1.5181,1.5181,1.4672,1.417,1.4936,1.4122,1.3037,1.381,1.3417,1.2644,1.2223,1.2488,0.0,1.0256,1.0086,0.0,0.7685,0.0,0.681,0.0,0.0,0.0,0.0,0.5501,0.5264,0.4965,0.4918,0.4687,0.0,0.3466,0.3032,0.2788,0.0,0.0,0.0,0.5908,0.7285,0.9876,1.0209,1.1118,1.3017,1.3871,1.4299,1.4299,1.4299,1.4299,1.4299,1.4299,1.4401,1.4423,0.9485,0.4606,-0.0,-0.0,-0.0,-0.0,-0.0,-0.0,-0.0,-0.0,-0.0,-0.0,-0.0,-0.0,-0.0,-0.0,-0.0,-0.0,1.7582,1.7582,0.0,0.0,1.7849,0.0,0.0,0.0,1.8343,0.0,2.0254,2.0185,2.0707,2.3168,2.4136,2.2606,2.5218,2.4631,1.9516,2.1383,0.0,0.0,1.8778,1.9708,2.29,0.0,0.0,1.3751,1.0524,0.9015,0.9144,0.9157,0.9083,0.8947,0.9089,1.0039,1.1558,1.1843,1.3057,1.4611,1.2474,1.1619,1.1633,1.1687,1.2508,1.3763,1.4808,1.5181,1.5181,1.5181,1.5181,1.5181,1.5181,1.5181,1.5181,1.5181,1.5181,1.4936,1.3797,1.3376,1.2935,1.1586,0.0,0.0,0.0,0.0,0.8004,0.0,0.0,0.0,0.0,0.0,0.5352,0.4979,0.4897,0.4633,0.3894,0.3419,0.3086,0.2937,0.2795,0.3425,0.5277,0.4002,0.4565,0.8221,0.8635,0.9544,1.1436,1.3214,1.4217,1.4299,1.4299,1.4299,1.4299,1.4306,1.4401,1.4577,0.9734,0.4821,-0.0,-0.0,-0.0,-0.0,-0.0,-0.0,-0.0,-0.0,-0.0,-0.0,-0.0,-0.0,-0.0,-0.0,-0.0,-0.0,1.7582,1.7582,1.7582,0.0,1.8023,1.837,0.0,0.0,0.0,0.0,2.147,2.2085,2.4553,2.5634,2.6095,2.5609,2.664,0.0,0.0,0.0,0.0,2.3301,2.0332,2.015,2.3181,1.6985,1.3751,1.3751,1.0638,0.9062,0.9001,0.9218,0.9184,0.8947,0.9089,0.9639,1.046,1.0534,1.124,1.2271,1.1809,1.1681,1.1864,0.0,1.3227,1.3763,1.4808,1.5181,1.5181,1.5181,1.5181,1.5181,1.5181,1.5181,1.5181,1.5181,1.5181,1.5113,1.4808,1.4618,1.4183,1.2834,1.2271,1.1681,0.0,0.0,0.0,0.0,0.0,0.0,0.0,0.0,0.0,0.5148,0.4582,0.422,0.3853,0.3602,0.0,0.31,0.0,0.0,0.3561,0.4484,0.6057,0.8472,0.8791,1.0249,1.339,0.0,1.303,1.4258,1.4299,1.4299,1.4299,1.4407,1.455,1.4551,1.3407,0.8255,-0.0,-0.0,-0.0,-0.0,-0.0,-0.0,-0.0,-0.0,-0.0,-0.0,-0.0,-0.0,-0.0,-0.0,-0.0,-0.0,1.7756,1.7889,0.0,1.7983,0.0,0.0,1.9265,1.8303,0.0,2.2164,2.2098,0.0,2.5518,2.6533,2.7014,2.7014,2.7281,0.0,2.3799,0.0,0.0,2.4134,2.3261,2.3741,2.5494,2.0554,0.0,1.5869,1.2845,1.0612,0.9232,0.9401,0.9354,0.9137,0.9286,0.9686,1.0304,1.1226,1.2166,1.319,1.262,1.3048,0.0,1.3654,1.3777,1.4387,1.497,1.5181,1.5181,1.5181,1.5181,1.5181,1.5181,1.5181,1.5181,1.5181,1.5181,1.5181,1.5181,1.5126,1.4869,1.4048,1.3661,1.3112,1.1694,1.126,1.0995,0.0,0.0,0.0,0.0,0.0,0.0,0.5291,0.4633,0.426,0.0,0.0,0.0,0.0,0.3222,0.0,0.3113,0.409,0.5562,0.7584,0.7814,0.8743,1.0772,0.0,1.223,1.3098,1.3186,1.36,1.4387,1.3756,1.3919,1.4685,1.4633,1.0751,0.3227,0.0953,-0.0,-0.0,-0.0,-0.0,-0.0,-0.0,-0.0,-0.0,-0.0,-0.0,-0.0,-0.0,-0.0,-0.0,1.805,1.8317,0.0,0.0,0.0,0.0,0.0,1.9199,0.0,2.2712,0.0,2.3073,2.5144,2.6533,2.7321,2.7321,0.0,2.6607,2.3841,2.6483,2.6948,2.4009,2.6652,2.8136,2.8136,2.4983,2.1928,0.0,1.5643,1.2591,0.9612,0.9632,0.9557,0.9415,0.9551,1.0169,0.0,1.2824,1.4439,1.5894,1.4851,1.5679,1.7328,1.5393,1.4977,1.5737,1.5737,1.5556,1.5181,1.5181,1.5181,1.5181,1.5181,1.5181,1.5181,1.5181,1.5181,1.5181,1.5181,1.5181,1.5147,1.5004,1.4855,1.4394,1.3064,1.2657,1.2223,1.105,1.0704,1.0678,0.0,0.0,0.0,0.5657,0.0,0.0,0.0,0.0,0.0,0.0,0.0,0.0,0.3475,0.3405,0.426,0.6315,0.6288,0.6471,0.7136,0.0,1.1653,1.1959,1.2088,1.2807,1.4177,1.301,1.3166,1.4652,1.4765,1.2284,0.7403,0.2284,-0.0,-0.0,-0.0,-0.0,-0.0,-0.0,-0.0,-0.0,-0.0,-0.0,-0.0,-0.0,-0.0,-0.0,1.8397,0.0,0.0,0.0,0.0,2.1069,2.2218,2.1724,2.2058,2.4382,2.4182,2.4596,2.6653,2.7321,2.7629,2.7629,2.7896,0.0,0.0,0.0,0.0,2.735,2.7808,2.8136,2.8136,2.5173,2.2106,0.0,0.0,1.2842,0.9612,0.9727,0.9707,0.9571,0.9598,1.0951,1.333,1.3479,0.0,1.8315,1.9118,1.9735,2.0222,2.0657,1.9742,1.8321,1.8321,1.7032,1.5181,1.5181,1.5181,1.5181,1.5181,1.5181,1.5181,1.5181,1.5181,1.5181,1.5181,1.5181,1.5147,1.5004,1.4855,1.4638,1.4251,1.4048,1.3878,1.3648,1.3573,1.3824,1.4408,0.0,0.0,0.0,0.0,0.0,0.0,0.0,0.0,0.0,0.0,0.5281,0.0,0.371,0.4484,0.6335,0.5332,0.6471,1.067,0.0,1.1043,0.0,1.3851,0.0,0.0,0.0,1.3817,1.2956,1.4489,1.2539,0.7403,0.228,-0.0,-0.0,-0.0,-0.0,-0.0,-0.0,-0.0,-0.0,-0.0,-0.0,-0.0,-0.0,-0.0,-0.0,1.8718,0.0,0.0,0.0,0.0,0.0,0.0,2.4877,2.5211,2.5291,2.5197,2.5491,2.648,2.7388,2.7923,2.7923,2.8056,2.8136,2.8136,2.8136,2.8136,2.8136,2.8297,2.8377,2.8377,2.7148,2.4527,2.0405,0.0,1.6175,1.2209,1.2294,1.1758,1.0909,1.1717,1.3304,0.0,0.0,0.0,2.1848,2.1734,2.2481,2.3453,2.2775,2.1083,1.9056,2.0344,1.9242,1.7211,1.7211,1.7949,1.9056,1.9056,1.8135,1.7398,1.8693,1.7219,1.5549,1.6845,1.6104,1.5167,1.5099,1.497,1.5181,1.6092,1.6285,1.6487,1.7613,1.7938,1.7695,1.7423,1.4508,0.0,0.0,0.0,0.0,0.0,0.0,1.017,0.0,0.0,0.0,0.0,0.0,0.0,0.0,0.0,0.0,0.0,0.0,1.0466,0.0,0.0,0.0,1.3451,0.0,1.3682,1.3905,1.4814,1.3914,1.1237,0.3608,-0.0,-0.0,-0.0,-0.0,-0.0,-0.0,-0.0,-0.0,-0.0,-0.0,-0.0,-0.0,-0.0,-0.0,0.0,1.9372,0.0,0.0,2.2939,0.0,2.5718,2.7201,2.7642,2.6253,2.6279,2.6426,2.6426,2.7455,2.8136,2.8136,2.8136,2.8177,2.823,2.8243,2.827,2.8323,2.8564,2.8698,2.8698,2.8978,2.6838,0.0,0.0,0.0,0.0,1.469,1.4062,0.0,0.0,0.0,0.0,0.0,2.3411,2.5762,2.4575,2.5309,2.6785,2.4763,2.2556,2.0705,2.2556,2.2004,2.0529,2.0529,2.1452,2.2556,2.2556,2.1267,1.9974,2.1267,1.9056,1.6479,1.8313,1.7398,1.6104,1.6666,1.6725,1.6926,1.8544,1.8884,1.922,2.0915,2.1566,2.1379,1.9351,1.7005,0.0,0.0,0.0,0.0,0.0,0.0,0.0,0.0,0.0,0.0,0.7041,0.0,0.0,0.0,0.0,0.0,0.7007,0.0,0.0,0.0,0.0,1.2589,1.3682,0.0,1.358,1.4665,1.5052,1.5262,1.4917,0.57,0.0951,-0.0,-0.0,-0.0,-0.0,-0.0,-0.0,-0.0,-0.0,-0.0,-0.0,-0.0,-0.1336,-0.3243,0.0,0.0,0.0,0.0,0.0,0.0,2.5692,2.7201,2.8083,2.7923,2.7923,2.7936,2.7936,2.8056,2.8136,2.8136,2.8136,2.827,2.8551,2.8564,2.8684,2.8938,2.8978,2.9005,2.9005,2.9285,2.7628,0.0,0.0,2.0167,0.0,1.5095,0.0,0.0,0.0,0.0,0.0,2.4316,2.6361,2.9455,2.9283,2.9362,2.9541,2.9362,2.7702,2.5491,2.5855,2.5673,2.5491,2.5491,2.4204,2.2556,2.2556,2.2372,2.182,1.9789,1.8871,1.8685,1.8871,1.8685,1.9056,2.1267,2.1654,2.162,2.1581,2.1363,2.1319,2.1262,2.2955,2.323,1.9647,2.0472,1.9835,0.0,0.0,0.0,0.0,0.0,1.6563,1.478,0.0,0.0,0.8899,0.6078,0.0,0.0,0.6593,0.0,0.0,0.0,0.0,1.1762,1.1972,1.1491,1.029,1.3247,1.4143,1.2976,1.4475,1.5228,1.4917,0.9509,0.4373,-0.0,-0.0,-0.0,-0.0,-0.0,-0.0,-0.0,-0.0,-0.0,-0.0,-0.0,-0.5916,-1.3804,0.0,0.0,0.0,0.0,0.0,0.0,0.0,2.7762,2.8136,2.8136,2.8136,2.8136,2.8136,2.8136,2.8217,2.8404,2.8417,2.8551,2.8845,2.8871,2.8911,2.9032,2.9205,2.9312,2.9312,2.9593,2.8512,0.0,0.0,0.0,0.0,0.0,0.0,0.0,0.0,2.3259,2.6079,2.733,2.8614,2.9913,2.9913,2.9913,2.9913,2.9913,2.8436,2.6411,2.7883,2.7521,2.6411,2.7883,2.7702,2.6966,2.6966,2.5866,2.4763,2.5309,2.3462,2.1452,2.2912,2.2178,2.1267,2.2188,2.2485,2.2727,2.3949,2.4064,2.417,2.533,2.619,2.6414,2.4801,2.3405,2.2463,0.0,0.0,0.0,0.0,0.0,0.0,1.5722,0.0,1.0874,0.9401,0.6308,0.0,0.0,0.0,0.0,0.0,0.0,0.0,1.0473,0.0,1.2949,1.1443,1.3871,1.4794,1.4211,1.4869,1.5228,1.5107,0.9892,0.4753,-0.0,-0.0,-0.0,-0.0,-0.0,-0.0,-0.0,-0.0,-0.0,-0.0,-0.0,-0.6737,-1.5705,2.4329,0.0,2.4262,0.0,2.6172,2.6386,2.803,2.8283,2.831,2.839,2.8404,2.8377,2.8283,2.835,2.8497,2.8711,2.8738,2.8858,2.9152,2.9165,2.9205,2.9299,2.9499,0.0,2.9606,2.9806,2.9299,2.8043,2.6279,0.0,0.0,0.0,0.0,0.0,2.5391,2.6349,2.7829,2.9299,2.9913,2.9913,2.9913,2.9913,2.9913,2.9913,2.8809,2.7521,2.9362,2.8809,2.7521,2.9362,2.9913,2.9913,2.9913,2.8629,2.7521,2.8436,2.6411,2.4021,2.5684,2.4945,2.3838,2.458,2.4763,2.506,2.6629,2.6552,2.6785,2.8195,2.8297,2.8136,2.8136,2.5951,2.4661,2.632,0.0,0.0,0.0,2.4377,0.0,1.7077,1.4379,1.2207,1.0371,0.7183,0.0,0.0,0.0,0.0,0.0,0.0,0.0,0.0,0.0,0.0,1.2515,1.4285,1.5181,1.5181,1.5181,1.5228,1.4917,0.8372,0.3426,-0.0,-0.0,-0.0,-0.0,-0.0,-0.0,-0.0,-0.0,-0.0,-0.0,-0.0,-0.5812,-1.3855,2.5651,2.4529,2.4342,2.7549,2.668,2.6213,2.8283,2.8604,2.8711,2.8991,2.9032,2.8925,2.8631,2.8858,2.9032,2.9032,2.9032,2.9165,2.9459,2.9486,2.9606,0.0,0.0,2.9913,2.9913,2.9913,2.99,2.9887,0.0,0.0,2.6293,0.0,2.4716,2.7215,2.6947,2.7963,2.9873,2.99,2.9913,2.9913,2.9913,2.9913,2.9913,2.9913,2.9913,2.9913,2.9913,2.9913,2.9913,2.9913,2.9913,2.9913,2.9913,2.9913,2.9362,2.6966,2.6229,2.6229,2.6229,2.6229,2.6785,2.9182,2.9734,2.9833,2.9553,2.9259,2.8871,2.827,2.815,2.8136,2.8136,2.811,2.6972,2.3228,0.0,0.0,0.0,2.3719,0.0,1.9348,1.5485,1.2849,1.2164,0.9042,0.0,0.0,0.0,0.0,0.0,0.0,0.0,1.1979,1.2359,0.0,1.2501,1.4285,1.5181,1.5181,1.5181,1.5228,1.4917,0.4766,-0.0,-0.0,-0.0,-0.0,-0.0,-0.0,-0.0,-0.0,-0.0,-0.0,-0.0,-0.0,-0.3495,-0.8795,2.7936,2.7602,2.7549,2.8577,2.8283,2.8136,2.8804,2.8898,2.8938,2.9032,2.9219,2.9312,2.9219,2.9112,2.9125,0.0,2.9339,2.9472,0.0,2.978,2.982,2.9913,2.9913,2.9913,2.9913,2.9913,2.9913,2.9913,0.0,0.0,0.0,2.6319,2.7108,2.9072,2.8978,2.9299,2.9913,2.9913,2.9913,2.9913,2.9913,2.9913,2.9913,2.9913,2.9913,2.9913,2.9913,2.9913,2.9913,2.9913,2.9913,2.9913,2.9913,2.9913,2.9734,2.8989,2.8809,2.8809,2.8809,2.8809,2.8989,2.9734,2.9913,2.9887,2.9806,2.9392,2.8925,2.8537,2.8283,2.8136,2.8136,2.8136,2.7829,2.6558,2.7357,0.0,2.6545,0.0,2.1764,1.7748,1.3793,1.1176,1.0475,0.833,0.0,0.0,0.0,0.0,0.0,0.0,0.0,0.0,1.2963,0.0,1.2664,1.4333,1.5181,1.5181,1.5181,1.3293,0.9703,0.3048,-0.0,-0.0,-0.0,-0.0,-0.0,-0.0,-0.0,-0.0,-0.0,-0.0,-0.0,-0.0,-0.3353,-0.8693,2.9165,2.9045,2.9045,2.9045,2.9045,2.9072,2.9192,2.9205,2.9245,2.9352,2.9526,2.9646,2.9646,2.9472,0.0,2.9633,2.9646,2.9726,2.99,2.9913,2.9913,2.9913,2.9913,2.9913,2.9913,2.9913,0.0,2.9913,2.8804,2.8257,2.8257,2.8257,2.8858,2.9913,2.9913,2.9913,2.9913,2.9913,2.9913,2.9913,2.9913,2.9913,2.9913,2.9913,2.9913,2.9913,2.9913,2.9913,2.9913,2.9913,2.9913,2.9913,2.9913,2.9913,2.9913,2.9913,2.9913,2.9913,2.9913,2.9913,2.9913,2.9913,2.9913,2.9887,2.978,2.9472,2.9125,2.8831,2.8524,2.8323,2.8323,2.8217,2.8136,2.8136,2.8136,2.7762,2.6653,0.0,2.1207,0.0,0.0,0.0,0.0,0.9564,0.9598,0.0,0.0,0.0,0.0,0.0,0.0,1.1884,1.3946,1.4597,1.3661,1.4672,1.5181,1.5181,1.5215,1.2544,0.7406,0.2285,-0.0,-0.0,-0.0,-0.0,-0.0,-0.0,-0.0,-0.0,-0.0,-0.0,-0.0588,-0.4561,-0.6973,-0.8776,2.9768,2.9098,2.9098,0.0,2.9098,0.0,2.9472,2.9513,2.9606,2.9887,2.9913,2.9913,2.9913,2.9913,2.9913,2.9913,0.0,0.0,0.0,2.9913,2.9913,2.9913,2.9913,2.9913,2.9913,2.9913,2.9913,2.9913,2.9913,2.9913,2.9913,2.9913,2.9913,2.9913,2.9913,2.9913,2.9913,2.9913,2.9913,2.9913,2.9913,2.9913,2.9913,2.9913,2.9913,2.9913,2.9913,2.9913,2.9913,2.9913,2.9913,2.9913,2.9913,2.9913,2.9913,2.9913,2.9913,2.9913,2.9913,2.9913,2.9913,2.9913,2.9913,2.9847,2.9579,2.9499,2.9406,2.9125,2.8845,2.8631,2.8631,2.8377,2.8177,2.8177,2.7989,2.6881,2.4155,2.3594,2.1205,0.0,0.0,0.0,1.2234,1.221,1.2868,0.0,0.0,0.0,0.0,0.0,1.1538,1.4882,1.5113,1.5181,1.5181,1.5181,1.5181,1.5181,1.5262,1.2584,0.7406,0.2285,-0.0,-0.0,-0.0,-0.0,-0.0,-0.0,-0.0,-0.0,-0.0,-0.0,-0.1394,-1.2201,-1.2852,-0.9252,0.0,0.0,2.9713,2.9713,2.9713,2.974,2.9806,2.982,2.9833,2.9913,2.9913,2.9913,2.9913,2.9913,2.9913,2.9913,2.9913,2.9913,2.9913,2.9913,2.9913,2.9913,2.9913,2.9913,2.9913,2.9913,2.9913,2.9913,2.9913,2.9913,2.9913,2.9913,2.9913,2.9913,2.9913,2.9913,2.9913,2.9913,2.9913,2.9913,2.9913,2.9913,2.9913,2.9913,2.9913,2.9913,2.9913,2.9913,2.9913,2.9913,2.9913,2.9913,2.9913,2.9913,2.9913,2.9913,2.9913,2.9913,2.9913,2.9913,2.9913,2.9913,2.9913,2.99,2.9833,2.9646,2.9459,2.9392,2.9138,2.8938,2.8938,2.8698,2.8497,2.8497,2.6413,2.4569,2.3875,2.128,1.8227,0.0,1.4101,1.3311,1.2526,1.2332,1.2433,0.0,0.0,0.0,1.3078,1.2311,1.2868,1.5065,1.5167,1.5181,1.5181,1.5181,1.5181,1.5181,1.5262,1.2584,0.7406,0.2285,-0.0,-0.0,-0.0,-0.0,-0.0,-0.0,-0.0,-0.0,-0.0,-0.0,-0.1395,-1.2079,-1.5376,-1.4343,3.1969,3.0781,2.9913,2.9913,2.9913,2.9913,2.9913,2.9913,2.9913,2.9913,2.9913,2.9913,2.9913,2.9913,2.9913,2.9913,2.9913,2.9913,2.9913,2.9913,2.9913,2.9913,2.9913,2.9913,2.9913,2.9913,2.9913,2.9913,2.9913,2.9913,2.9913,2.9913,2.9913,2.9913,2.9913,2.9913,2.9913,2.9913,2.9913,2.9913,2.9913,2.9913,2.9913,2.9913,2.9913,2.9913,2.9913,2.9913,2.9913,2.9913,2.9913,2.9913,2.9913,2.9913,2.9913,2.9913,2.9913,2.9913,2.9913,2.9913,2.9913,2.9913,2.9913,2.9913,2.9913,2.9793,2.9686,2.9686,2.9446,2.9245,2.9245,2.9005,2.8804,2.8804,2.6199,2.4168,2.4168,2.1214,1.8312,1.6315,1.5538,1.4828,1.3693,1.3519,1.3519,1.3519,1.3573,0.0,1.3722,1.3729,1.4177,1.5153,1.5181,1.5181,1.5181,1.5181,1.5181,1.5181,1.5262,1.2584,0.7406,0.2285,-0.0,-0.0,-0.0,-0.0,-0.0,-0.0,-0.0,-0.0,-0.0,-0.0,-0.1003,-0.9267,-1.3954,-1.6191,3.0959,3.0093,2.9913,2.9913,2.9913,2.9913,2.9913,2.9913,2.9913,2.9913,2.9913,2.9913,2.9913,2.9913,2.9913,2.9913,2.9913,2.9913,2.9913,2.9913,2.9913,2.9913,2.9913,2.9913,2.9913,2.9913,2.9913,2.9913,2.9913,2.9913,2.9913,2.9913,2.9913,2.9913,2.9913,2.9913,2.9913,2.9913,2.9913,2.9913,2.9913,2.9913,2.9913,2.9913,2.9913,2.9913,2.9913,2.9913,2.9913,2.9913,2.9913,2.9913,2.9913,2.9913,2.9913,2.9913,2.9913,2.9913,2.9913,2.9913,2.9913,2.9913,2.9913,2.9913,2.9913,2.9913,2.9913,2.9913,2.9726,2.9553,2.9553,2.9299,2.8965,2.8511,2.5932,2.3968,2.3968,0.0,1.9499,1.7752,1.799,1.7284,1.5042,1.4923,1.5004,1.5004,1.5113,1.5181,1.5181,1.5181,1.5181,1.5181,1.5181,1.5181,1.5181,1.5181,1.5187,1.5194,1.5269,1.2974,0.8554,0.2667,-0.0,-0.0,-0.0,-0.0,-0.0,-0.0,-0.0,-0.0,-0.0,-0.0,-0.0606,-0.6034,-1.1488,-1.6191,3.3395,3.1315,2.9913,2.9913,2.9913,2.9913,2.9913,2.9913,2.9913,2.9913,2.9913,2.9913,2.9913,2.9913,2.9913,2.9913,2.9913,2.9913,2.9913,2.9913,2.9913,2.9913,2.9913,2.9913,2.9913,2.9913,2.9913,2.9913,2.9913,2.9913,2.9913,2.9913,2.9913,2.9913,2.9913,2.9913,2.9913,2.9913,2.9913,2.9913,2.9913,2.9913,2.9913,2.9913,2.9913,2.9913,2.9913,2.9913,2.9913,2.9913,2.9913,2.9913,2.9913,2.9913,2.9913,2.9913,2.9913,2.9913,2.9913,2.9913,2.9913,2.9913,2.9913,2.9913,2.9913,2.9913,2.9913,2.9913,2.9887,2.9847,2.9847,2.9606,2.8604,2.6106,2.3006,2.0922,2.0922,0.0,1.9573,1.7815,1.9835,1.9715,1.5445,1.5133,1.5147,1.5147,1.5167,1.5181,1.5181,1.5181,1.5181,1.5181,1.5181,1.5181,1.5181,1.5181,1.5201,1.5242,1.5282,1.4734,1.3786,0.4196,-0.0,-0.0,-0.0,-0.0,-0.0,-0.0,-0.0,-0.0,-0.0,-0.0,-0.0606,-0.6034,-1.1488,-1.6191,3.1997,3.0616,2.9913,2.9913,2.9913,2.9913,2.9913,2.9913,2.9913,2.9913,2.9913,2.9913,2.9913,2.9913,2.9913,2.9913,2.9913,2.9913,2.9913,2.9913,2.9913,2.9913,2.9913,2.9913,2.9913,2.9913,2.9913,2.9913,2.9913,2.9913,2.9913,2.9913,2.9913,2.9913,2.9913,2.9913,2.9913,2.9913,2.9913,2.9913,2.9913,2.9913,2.9913,2.9913,2.9913,2.9913,2.9913,2.9913,2.9913,2.9913,2.9913,2.9913,2.9913,2.9913,2.9913,2.9913,2.9913,2.9913,2.9913,2.9913,2.9913,2.9913,2.9913,2.9913,2.9913,2.9913,2.9913,2.9913,2.9913,2.9913,2.9913,2.9806,2.8751,2.5798,2.4048,0.0,2.3073,2.3073,2.2434,2.0427,2.1422,2.0428,1.573,1.5181,1.5181,1.5181,1.5181,1.5181,1.5181,1.5181,1.5181,1.5181,1.5181,1.5181,1.5181,1.5181,1.5208,1.5248,1.2378,1.26,1.4774,0.4579,-0.0,-0.0,-0.0,-0.0,-0.0,-0.0,-0.0,-0.0,-0.0,-0.0,-0.0606,-0.6034,-1.1488,-1.6191,3.0437,2.9913,2.9913,2.9913,2.9913,2.9913,2.9913,2.9913,2.9913,2.9913,2.9913,2.9913,2.9913,2.9913,2.9913,2.9913,2.9913,2.9913,2.9913,2.9913,2.9913,2.9913,2.9913,2.9913,2.9913,2.9913,2.9913,2.9913,2.9913,2.9913,2.9913,2.9913,2.9913,2.9913,2.9913,2.9913,2.9913,2.9913,2.9913,2.9913,2.9913,2.9913,2.9913,2.9913,2.9913,2.9913,2.9913,2.9913,2.9913,2.9913,2.9913,2.9913,2.9913,2.9913,2.9913,2.9913,2.9913,2.9913,2.9913,2.9913,2.9913,2.9913,2.9913,2.9913,2.9913,2.9913,2.9913,2.9913,2.9913,2.9913,2.9913,2.9913,2.8951,2.5999,0.0,2.5518,0.0,2.5518,2.4801,2.2656,2.2556,2.0529,1.5737,1.5181,1.5181,1.5181,1.5181,1.5181,1.5181,1.5181,1.5181,1.5181,1.5181,1.5181,1.5181,1.5181,1.5208,1.5073,1.0072,0.8948,1.1477,0.3626,-0.0,-0.0,-0.0,-0.0,-0.0,-0.0,-0.0,-0.0,-0.0,-0.0,-0.0606,-0.6034,-1.1488,-1.6191,3.0781,2.9913,2.9913,2.9913,2.9913,2.9913,2.9913,2.9913,2.9913,2.9913,2.9913,2.9913,2.9913,2.9913,2.9913,2.9913,2.9913,2.9913,2.9913,2.9913,2.9913,2.9913,2.9913,2.9913,2.9913,2.9913,2.9913,2.9913,2.9913,2.9913,2.9913,2.9913,2.9913,2.9913,2.9913,2.9913,2.9913,2.9913,2.9913,2.9913,2.9913,2.9913,2.9913,2.9913,2.9913,2.9913,2.9913,2.9913,2.9913,2.9913,2.9913,2.9913,2.9913,2.9913,2.9913,2.9913,2.9913,2.9913,2.9913,2.9913,2.9913,2.9913,2.9913,2.9913,2.9913,2.9913,2.9913,2.9913,2.9913,2.9913,2.9913,2.9913,2.8951,2.5999,0.0,0.0,2.5518,2.5518,2.4801,2.2656,2.2556,2.0529,1.5737,1.5181,1.5181,1.5181,1.5181,1.5181,1.5181,1.5181,1.5181,1.5181,1.5181,1.5181,1.5181,1.5181,1.5221,1.5107,1.0081,0.5323,0.1145,0.0382,-0.0,-0.0,-0.0,-0.0,-0.0,-0.0,-0.0,-0.0,-0.0,-0.0,-0.0606,-0.6034,-1.1488,-1.6191,3.0781,2.9913,2.9913,2.9913,2.9913,2.9913,2.9913,2.9913,2.9913,2.9913,2.9913,2.9913,2.9913,2.9913,2.9913,2.9913,2.9913,2.9913,2.9913,2.9913,2.9913,2.9913,2.9913,2.9913,2.9913,2.9913,2.9913,2.9913,2.9913,2.9913,2.9913,2.9913,2.9913,2.9913,2.9913,2.9913,2.9913,2.9913,2.9913,2.9913,2.9913,2.9913,2.9913,2.9913,2.9913,2.9913,2.9913,2.9913,2.9913,2.9913,2.9913,2.9913,2.9913,2.9913,2.9913,2.9913,2.9913,2.9913,2.9913,2.9913,2.9913,2.9913,2.9913,2.9913,2.9913,2.9913,2.9913,2.9913,2.9913,2.9913,2.9913,2.9913,2.8951,2.5999,0.0,2.7602,2.5772,2.5753,2.5125,2.282,2.1267,1.8871,1.5549,1.5181,1.5181,1.5181,1.5181,1.5181,1.5181,1.5181,1.5181,1.5181,1.5181,1.5181,1.5181,1.5181,1.5221,1.5113,1.0081,0.4943,-0.0,-0.0,-0.0,-0.0,-0.0,-0.0,-0.0,-0.0,-0.0,-0.0,-0.0,-0.0,-0.0606,-0.6034,-1.1488,-1.6191,3.0781,2.9913,2.9913,2.9913,2.9913,2.9913,2.9913,2.9913,2.9913,2.9913,2.9913,2.9913,2.9913,2.9913,2.9913,2.9913,2.9913,2.9913,2.9913,2.9913,2.9913,2.9913,2.9913,2.9913,2.9913,2.9913,2.9913,2.9913,2.9913,2.9913,2.9913,2.9913,2.9913,2.9913,2.9913,2.9913,2.9913,2.9913,2.9913,2.9913,2.9913,2.9913,2.9913,2.9913,2.9913,2.9913,2.9913,2.9913,2.9913,2.9913,2.9913,2.9913,2.9913,2.9913,2.9913,2.9913,2.9913,2.9913,2.9913,2.9913,2.9913,2.9913,2.9913,2.9913,2.9913,2.9913,2.9913,2.9913,2.9913,2.9913,2.9913,2.9913,2.9259,2.7228,2.8591,2.9205,2.7175,2.6525,2.5309,2.2739,2.0344,1.7949,1.5368,1.5181,1.5181,1.5181,1.5181,1.5181,1.5181,1.5181,1.5181,1.5181,1.5181,1.5181,1.5181,1.5181,1.5221,1.5113,1.0081,0.495,-0.0,-0.0,-0.0,-0.0,-0.0,-0.0,-0.0,-0.0,-0.0,-0.0,-0.0,-0.0,-0.0606,-0.6034,-1.1488,-1.6191,3.0781,2.9913,2.9913,2.9913,2.9913,2.9913,2.9913,2.9913,2.9913,2.9913,2.9913,2.9913,2.9913,2.9913,2.9913,2.9913,2.9913,2.9913,2.9913,2.9913,2.9913,2.9913,2.9913,2.9913,2.9913,2.9913,2.9913,2.9913,2.9913,2.9913,2.9913,2.9913,2.9913,2.9913,2.9913,2.9913,2.9913,2.9913,2.9913,2.9913,2.9913,2.9913,2.9913,2.9913,2.9913,2.9913,2.9913,2.9913,2.9913,2.9913,2.9913,2.9913,2.9913,2.9913,2.9913,2.9913,2.9913,2.9913,2.9913,2.9913,2.9913,2.9913,2.9913,2.9913,2.9913,2.9913,2.9913,2.9913,2.9913,2.9913,2.9913,2.9913,2.9913,2.9913,2.9913,2.9913,2.9913,2.7702,2.5309,2.2739,2.0344,1.7949,1.5368,1.5181,1.5181,1.5181,1.5181,1.5181,1.5181,1.5181,1.5181,1.5181,1.5181,1.5181,1.5181,1.5181,1.5221,1.5113,1.0081,0.4967,-0.0,-0.0,-0.0,-0.0,-0.0,-0.0,-0.0,-0.0,-0.0,-0.0,-0.0,-0.0,-0.0606,-0.6034,-1.1488,-1.6191,3.0781,2.9913,2.9913,2.9913,2.9913,2.9913,2.9913,2.9913,2.9913,2.9913,2.9913,2.9913,2.9913,2.9913,2.9913,2.9913,2.9913,2.9913,2.9913,2.9913,2.9913,2.9913,2.9913,2.9913,2.9913,2.9913,2.9913,2.9913,2.9913,2.9913,2.9913,2.9913,2.9913,2.9913,2.9913,2.9913,2.9913,2.9913,2.9913,2.9913,2.9913,2.9913,2.9913,2.9913,2.9913,2.9913,2.9913,2.9913,2.9913,2.9913,2.9913,2.9913,2.9913,2.9913,2.9913,2.9913,2.9913,2.9913,2.9913,2.9913,2.9913,2.9913,2.9913,2.9913,2.9913,2.9913,2.9913,2.9913,2.9913,2.9913,2.9913,2.9913,2.9913,2.9913,2.9913,2.9913,2.9913,2.6229,2.3289,2.2556,1.8879,1.5917,1.5181,1.5181,1.5181,1.5181,1.5181,1.5181,1.5181,1.5181,1.5181,1.5181,1.5181,1.5181,1.5181,1.5181,1.5221,1.5113,0.9963,0.5,-0.0,-0.0,-0.0,-0.0,-0.0,-0.0,-0.0,-0.0,-0.0,-0.0,-0.0,-0.0,-0.0606,-0.6034,-1.1488,-1.6191,3.338,3.182,3.1301,3.1301,3.0437,2.9913,2.9913,2.9913,2.9913,2.9913,2.9913,2.9913,2.9913,2.9913,2.9913,2.9913,2.9913,2.9913,2.9913,2.9913,2.9913,2.9913,2.9913,2.9913,2.9913,2.9913,2.9913,2.9913,2.9913,2.9913,2.9913,2.9913,2.9913,2.9913,2.9913,2.9913,2.9913,2.9913,2.9913,2.9913,2.9913,2.9913,2.9913,2.9913,2.9913,2.9913,2.9913,2.9913,2.9913,2.9913,2.9913,2.9913,2.9913,2.9913,2.9913,2.9913,2.9913,2.9913,2.9913,2.9913,2.9913,2.9913,2.9913,2.9913,2.9913,2.9913,2.9913,2.9913,2.9913,2.9913,2.9913,2.9913,2.9913,2.9913,2.9913,2.9913,2.9913,2.5673,2.2556,2.2556,1.8135,1.5181,1.5181,1.5181,1.5181,1.5181,1.5181,1.5181,1.5181,1.5181,1.5181,1.5181,1.5181,1.5181,1.5181,1.5255,1.5133,1.52,1.216,0.6791,-0.0,-0.0,-0.0,-0.0,-0.0,-0.0,-0.0,-0.0,-0.0,-0.0,-0.0,-0.2625,-0.6461,-0.7647,-1.1478,-1.6164,3.7175,3.5114,3.3556,3.338,3.1657,3.0093,2.9913,2.9913,2.9913,2.9913,2.9913,2.9913,2.9913,2.9913,2.9913,2.9913,2.9913,2.9913,2.9913,2.9913,2.9913,2.9913,2.9913,2.9913,2.9913,2.9913,2.9913,2.9913,2.9913,2.9913,2.9913,2.9913,2.9913,2.9913,2.9913,2.9913,2.9913,2.9913,2.9913,2.9913,2.9913,2.9913,2.9913,2.9913,2.9913,2.9913,2.9913,2.9913,2.9913,2.9913,2.9913,2.9913,2.9913,2.9913,2.9913,2.9913,2.9913,2.9913,2.9913,2.9913,2.9913,2.9913,2.9913,2.9913,2.9913,2.9913,2.9913,2.9913,2.9913,2.9913,2.9913,2.9913,2.9913,2.9913,2.9913,2.9913,2.9913,2.5673,2.2556,2.2556,1.8135,1.5181,1.5181,1.5181,1.5181,1.5181,1.5181,1.5181,1.5181,1.5181,1.5181,1.5181,1.5194,1.5201,1.5201,1.52,1.4911,1.4546,1.5002,0.9811,-0.0,-0.0,-0.0,-0.0,-0.0,-0.0,-0.0,-0.0,-0.0,-0.0,-0.0,-0.6665,-1.5428,-1.048,-1.1874,-1.613,3.7175,3.6313,3.5446,3.3731,3.3043,3.1997,3.0272,2.9913,2.9913,2.9913,2.9913,2.9913,2.9913,2.9913,2.9913,2.9913,2.9913,2.9913,2.9913,2.9913,2.9913,2.9913,2.9913,2.9913,2.9913,2.9913,2.9913,2.9913,2.9913,2.9913,2.9913,2.9913,2.9913,2.9913,2.9913,2.9913,2.9913,2.9913,2.9913,2.9913,2.9913,2.9913,2.9913,2.9913,2.9913,2.9913,2.9913,2.9913,2.9913,2.9913,2.9913,2.9913,2.9913,2.9913,2.9913,2.9913,2.9913,2.9913,2.9913,2.9913,2.9913,2.9913,2.9913,2.9913,2.9913,2.9913,2.9913,2.9913,2.9913,2.9913,2.9913,2.9913,2.9913,2.9913,2.9913,2.9913,2.9913,2.5673,2.2556,2.2556,1.8135,1.5181,1.5181,1.5181,1.5181,1.5181,1.5181,1.5181,1.5181,1.5181,1.5181,1.5181,1.5296,1.5364,1.5364,1.5182,1.3251,0.9261,1.3205,0.9938,-0.0,-0.0,-0.0,-0.0,-0.0,-0.0,-0.0,-0.0,-0.0,-0.0,-0.0,-0.6665,-1.6045,-1.4775,-1.5144,-1.613,4.0259,3.9225,3.769,3.5446,3.4082,3.269,3.0272,2.9913,2.9913,2.9913,2.9913,2.9913,2.9913,2.9913,2.9913,2.9913,2.9913,2.9913,2.9913,2.9913,2.9913,2.9913,2.9913,2.9913,2.9913,3.0959,3.1657,3.1657,3.1657,3.2174,3.3204,3.3204,3.3204,3.3204,3.3204,3.2514,3.1657,3.1657,3.0959,2.9913,2.9913,2.9913,2.9913,2.9913,2.9913,2.9913,2.9913,2.9913,2.9913,2.9913,2.9913,2.9913,2.9913,2.9913,2.9913,2.9913,2.9913,2.9913,2.9913,2.9913,2.9913,2.9913,2.9913,2.9913,2.9913,2.9913,2.9913,2.9913,2.9913,2.9913,2.9913,2.9913,2.9913,2.9913,2.9913,2.9913,2.9913,2.5673,2.2556,2.2556,1.8135,1.5181,1.5181,1.5181,1.5181,1.5181,1.5181,1.5181,1.5181,1.5181,1.5215,1.5289,1.5371,1.5445,1.552,1.5341,1.2808,0.7619,0.7922,0.5191,-0.0,-0.0,-0.0,-0.0,-0.0,-0.0,-0.0,-0.0,-0.0,-0.0202,-0.283,-0.727,-1.2526,-1.5176,-1.6164,-1.6103,4.3711,4.2159,4.009,3.7347,3.5288,3.3043,3.0258,2.9913,2.9913,2.9913,2.9913,2.9913,2.9913,2.9913,2.9913,2.9913,2.9913,2.9913,2.9913,2.9913,2.9913,2.9913,2.9913,3.0093,3.0437,3.2351,3.3395,3.3395,3.3731,3.494,3.683,3.683,3.683,3.683,3.6313,3.5114,3.3395,3.3395,3.1997,2.9913,3.0258,3.0272,2.9913,2.9913,2.9913,2.9913,2.9913,2.9913,2.9913,2.9913,2.9913,2.9913,2.9913,2.9913,2.9913,2.9913,2.9913,2.9913,2.9913,2.9913,2.9913,2.9913,2.9913,2.9913,2.9913,2.9913,2.9913,2.9913,2.9913,2.9913,2.9913,2.9913,2.9913,2.9913,2.9913,2.9913,2.9913,2.5673,2.2556,2.2566,1.8135,1.5181,1.5181,1.5181,1.5181,1.5181,1.5181,1.5181,1.5181,1.5208,1.5282,1.5404,1.5459,1.5554,1.5689,1.5703,1.3376,0.8952,0.2989,-0.0,-0.0,-0.0,-0.0,-0.0,-0.0,-0.0,-0.0,-0.0,-0.101,-0.3234,-0.7689,-0.8884,-0.8647,-1.4131,-1.6137,-1.6083,4.3711,4.3526,4.1807,3.7518,3.6485,3.494,3.0616,2.9913,2.9913,2.9913,2.9913,2.9913,2.9913,2.9913,2.9913,2.9913,2.9913,2.9913,2.9913,2.9913,2.9913,2.9913,2.9913,3.0781,3.2867,3.3219,3.3395,3.3395,3.5462,3.6485,3.683,3.683,3.683,3.6658,3.4766,3.3731,3.3395,3.3395,3.1997,3.0093,3.2174,3.1657,2.9913,2.9913,2.9913,2.9913,2.9913,2.9913,2.9913,2.9913,2.9913,2.9913,2.9913,2.9913,2.9913,2.9913,2.9913,2.9913,2.9913,2.9913,2.9913,2.9913,2.9913,2.9913,2.9913,2.9913,2.9913,2.9913,2.9913,2.9913,2.9913,2.9913,2.9913,2.9913,2.9913,2.9913,2.9913,2.5673,2.2556,2.2556,1.8135,1.5181,1.5181,1.5181,1.5181,1.5181,1.5181,1.5181,1.5181,1.5309,1.5391,1.5411,1.5662,1.5818,1.5683,1.587,1.557,1.4775,0.4837,-0.0,-0.0,-0.0,-0.0,-0.0,-0.0,-0.0,-0.0,-0.0,-0.5462,-1.4042,-1.4629,-1.2125,-0.8643,-1.4077,-1.609,-1.6083,4.3711,4.3711,4.2659,3.9395,3.769,3.562,3.2351,3.0781,2.9913,2.9913,2.9913,2.9913,2.9913,2.9913,2.9913,2.9913,2.9913,2.9913,2.9913,3.1137,3.1834,3.1834,3.3028,3.4242,3.5288,3.6658,3.7158,3.7158,3.8203,3.9395,4.0614,4.0614,4.0614,4.0614,3.9564,3.8374,3.7158,3.7158,3.5967,3.3892,3.494,3.3907,3.1834,3.1834,3.0959,2.9913,2.9913,2.9913,2.9913,2.9913,2.9913,2.9913,2.9913,2.9913,2.9913,2.9913,2.9913,2.9913,2.9913,2.9913,2.9913,2.9913,2.9913,2.9913,2.9913,2.9913,2.9913,2.9913,2.9913,2.9913,2.9913,2.9913,2.9913,2.9913,2.9913,2.9913,2.9913,2.5673,2.1452,1.8693,1.6479,1.5181,1.5181,1.5181,1.5181,1.5181,1.5181,1.5221,1.5303,1.5371,1.5486,1.5655,1.5784,1.5913,1.6035,1.3073,1.3134,1.6045,0.5251,-0.0,-0.0,-0.0,-0.0,-0.0,-0.0,-0.0,-0.0,-0.0,-0.6272,-1.6112,-1.6071,-1.4574,-1.2879,-1.528,-1.6083,-1.6083]},{"header":{"parameterUnit":"m.s-1","parameterCategory":1,"la1":30.6,"la2":28.766,"lo1":-90.7593,"lo2":-88.6598,"dy":0.0162,"dx":0.0183,"nx":116,"ny":114,"refTime":"2023-04-25T18:00:00:Z","depth":0,"parameterNumber":3,"parameterNumberName":"V-component_of_WINDS"},"data":[0.0,0.0,0.0,0.0,0.0,0.0,0.0,0.0,0.0,0.0,0.0,0.0,0.0,0.0,0.0,0.0,0.0,0.0,0.0,0.0,0.0,0.0,0.0,0.0,0.0,0.0,0.0,0.0,0.0,0.0,0.0,0.0,0.0,0.0,0.0,0.0,0.0,0.0,0.0,0.0,0.0,0.0,0.0,0.0,0.0,0.0,0.0,0.0,0.0,0.0,0.0,0.0,0.0,0.0,0.0,0.0,0.0,0.0,0.0,0.0,0.0,0.0,0.0,0.0,0.0,0.0,0.0,0.0,0.0,0.0,0.0,0.0,0.0,0.0,0.0,0.0,0.0,0.0,0.0,0.0,0.0,0.0,0.0,0.0,0.0,0.0,0.0,0.0,0.0,0.0,0.0,0.0,0.0,0.0,0.0,0.0,0.0,0.0,0.0,0.0,0.0,0.0,0.0,0.0,0.0,0.0,0.0,0.0,0.0,0.0,0.0,0.0,0.0,0.0,0.0,0.0,0.0,0.0,0.0,0.0,0.0,0.0,0.0,0.0,0.0,0.0,0.0,0.0,0.0,0.0,0.0,0.0,0.0,0.0,0.0,0.0,0.0,0.0,0.0,0.0,0.0,0.0,0.0,0.0,0.0,0.0,0.0,0.0,0.0,0.0,0.0,0.0,0.0,0.0,0.0,0.0,0.0,0.0,0.0,0.0,0.0,0.0,0.0,0.0,0.0,0.0,0.0,0.0,0.0,0.0,0.0,0.0,0.0,0.0,0.0,0.0,0.0,0.0,0.0,0.0,0.0,0.0,0.0,0.0,0.0,0.0,0.0,0.0,0.0,0.0,0.0,0.0,0.0,0.0,0.0,0.0,0.0,0.0,0.0,0.0,0.0,0.0,0.0,0.0,0.0,0.0,0.0,0.0,0.0,0.0,0.0,0.0,0.0,0.0,0.0,0.0,0.0,0.0,0.0,0.0,0.0,0.0,0.0,0.0,0.0,0.0,0.0,0.0,0.0,0.0,0.0,0.0,0.0,0.0,0.0,0.0,0.0,0.0,0.0,0.0,0.0,0.0,0.0,0.0,0.0,0.0,0.0,0.0,0.0,0.0,0.0,0.0,0.0,0.0,0.0,0.0,0.0,0.0,0.0,0.0,0.0,0.0,0.0,0.0,0.0,0.0,0.0,0.0,0.0,0.0,0.0,0.0,0.0,0.0,0.0,0.0,0.0,0.0,0.0,0.0,0.0,0.0,0.0,0.0,0.0,0.0,0.0,0.0,0.0,0.0,0.0,0.0,0.0,0.0,0.0,0.0,0.0,0.0,0.0,0.0,0.0,0.0,0.0,0.0,0.0,0.0,0.0,0.0,0.0,0.0,0.0,0.0,0.0,0.0,0.0,0.0,0.0,0.0,0.0,0.0,0.0,0.0,0.0,0.0,0.0,0.0,0.0,0.0,0.0,0.0,0.0,0.0,0.0,0.0,0.0,0.0,0.0,0.0,0.0,0.0,0.0,0.0,0.0,0.0,0.0,0.0,0.0,0.0,0.0,0.0,0.0,0.0,0.0,0.0,0.0,0.0,0.0,0.0,0.0,0.0,0.0,0.0,0.0,0.0,0.0,0.0,0.0,0.0,0.0,0.0,0.0,0.0,0.0,0.0,0.0,0.0,0.0,0.0,0.0,0.0,0.0,0.0,0.0,0.0,0.0,0.0,0.0,0.0,0.0,0.0,0.0,0.0,0.0,0.0,0.0,0.0,0.0,0.0,0.0,0.0,0.0,0.0,0.0,0.0,0.0,0.0,0.0,0.0,0.0,0.0,0.0,0.0,0.0,0.0,0.0,0.0,0.0,0.0,0.0,0.0,0.0,0.0,0.0,0.0,0.0,0.0,0.0,0.0,0.0,0.0,0.0,0.0,0.0,0.0,0.0,0.0,0.0,0.0,0.0,0.0,0.0,0.0,0.0,0.0,0.0,0.0,0.0,0.0,0.0,0.0,0.0,0.0,0.0,0.0,0.0,0.0,0.0,0.0,0.0,0.0,0.0,0.0,0.0,0.0,0.0,0.0,0.0,0.0,0.0,0.0,0.0,0.0,0.0,0.0,0.0,0.0,0.0,0.0,0.0,0.0,0.0,0.0,0.0,0.0,0.0,0.0,0.0,0.0,0.0,0.0,0.0,0.0,0.0,0.0,0.0,0.0,0.0,0.0,0.0,0.0,0.0,0.0,0.0,0.0,0.0,0.0,0.0,0.0,0.0,0.0,0.0,0.0,0.0,0.0,0.0,0.0,0.0,0.0,0.0,0.0,0.0,0.0,0.0,0.0,0.0,0.0,0.0,0.0,0.0,0.0,0.0,0.0,0.0,0.0,0.0,0.0,0.0,0.0,0.0,0.0,0.0,0.0,0.0,0.0,0.0,0.0,0.0,0.0,0.0,0.0,0.0,0.0,0.0,0.0,0.0,0.0,0.0,0.0,0.0,0.0,0.0,0.0,0.0,0.0,0.0,0.0,0.0,0.0,0.0,0.0,0.0,0.0,0.0,0.0,0.0,0.0,0.0,0.0,0.0,0.0,0.0,0.0,0.0,0.0,0.0,0.0,0.0,0.0,0.0,0.0,0.0,0.0,0.0,0.0,0.0,0.0,0.0,0.0,0.0,0.0,0.0,0.0,0.0,0.0,0.0,0.0,0.0,0.0,0.0,0.0,0.0,0.0,0.0,0.0,0.0,0.0,0.0,0.0,0.0,0.0,0.0,0.0,0.0,0.0,0.0,0.0,0.0,0.0,0.0,0.0,0.0,0.0,0.0,0.0,0.0,0.0,0.0,0.0,0.0,0.0,0.0,0.0,0.0,0.0,0.0,0.0,0.0,0.0,0.0,0.0,0.0,0.0,0.0,0.0,0.0,0.0,0.0,0.0,0.0,0.0,0.0,0.0,0.0,0.0,0.0,0.0,0.0,0.0,0.0,0.0,0.0,0.0,0.0,0.0,0.0,0.0,0.0,0.0,0.0,0.0,0.0,0.0,0.0,0.0,0.0,0.0,0.0,0.0,0.0,0.0,0.0,0.0,0.0,0.0,0.0,0.0,0.0,0.0,0.0,0.0,0.0,0.0,0.0,0.0,0.0,0.0,0.0,0.0,0.0,0.0,0.0,0.0,0.0,0.0,0.0,0.0,0.0,0.0,0.0,0.0,0.0,0.0,0.0,0.0,0.0,0.0,0.0,0.0,0.0,0.0,0.0,0.0,0.0,0.0,0.0,0.0,0.0,0.0,0.0,0.0,0.0,0.0,0.0,0.0,0.0,0.0,0.0,0.0,0.0,0.0,0.0,0.0,0.0,0.0,0.0,0.0,0.0,0.0,0.0,0.0,0.0,0.0,0.0,0.0,0.0,0.0,0.0,0.0,0.0,0.0,0.0,0.0,0.0,0.0,0.0,0.0,0.0,0.0,0.0,0.0,0.0,0.0,0.0,0.0,0.0,0.0,0.0,0.0,0.0,0.0,0.0,0.0,0.0,0.0,0.0,0.0,0.0,0.0,0.0,0.0,0.0,0.0,0.0,0.0,0.0,0.0,0.0,0.0,0.0,0.0,0.0,0.0,0.0,0.0,0.0,0.0,0.0,0.0,0.0,0.0,0.0,0.0,0.0,0.0,0.0,0.0,0.0,0.0,0.0,0.0,0.0,0.0,0.0,0.0,0.0,0.0,0.0,0.0,0.0,0.0,0.0,0.0,0.0,0.0,0.0,0.0,0.0,0.0,0.0,0.0,0.0,0.0,0.0,0.0,0.0,0.0,0.0,0.0,0.0,0.0,0.0,0.0,0.0,0.0,0.0,0.0,0.0,0.0,0.0,0.0,0.0,0.0,0.0,0.0,0.0,0.0,0.0,0.0,0.0,0.0,0.0,0.0,0.0,0.0,0.0,0.0,0.0,0.0,0.0,0.0,0.0,0.0,0.0,0.0,0.0,0.0,0.0,0.0,0.0,0.0,0.0,0.0,0.0,0.0,0.0,0.0,0.0,0.0,0.0,0.0,0.0,0.0,0.0,0.0,0.0,0.0,0.0,0.0,0.0,0.0,0.0,0.0,0.0,0.0,0.0,0.0,0.0,0.0,0.0,0.0,0.0,0.0,0.0,0.0,0.0,0.0,0.0,0.0,0.0,0.0,0.0,0.0,0.0,0.0,0.0,0.0,0.0,0.0,0.0,0.0,0.0,0.0,0.0,0.0,0.0,0.0,0.0,0.0,0.0,0.0,0.0,0.0,0.0,0.0,0.0,0.0,0.0,0.0,0.0,0.0,0.0,0.0,0.0,0.0,0.0,0.0,0.0,0.0,0.0,0.0,0.0,0.0,0.0,0.0,0.0,0.0,0.0,0.0,0.0,0.0,0.0,0.0,0.0,0.0,0.0,0.0,0.0,0.0,0.0,0.0,0.0,0.0,0.0,0.0,0.0,0.0,0.0,0.0,0.0,0.0,0.0,0.0,0.0,0.0,0.0,0.0,0.0,0.0,0.0,0.0,0.0,0.0,0.0,0.0,0.0,0.0,0.0,0.0,0.0,0.0,0.0,0.0,0.0,0.0,0.0,0.0,0.0,0.0,0.0,0.0,0.0,0.0,0.0,0.0,0.0,0.0,0.0,0.0,0.0,0.0,0.0,0.0,0.0,0.0,0.0,0.0,0.0,0.0,0.0,0.0,0.0,0.0,0.0,0.0,0.0,0.0,0.0,0.0,0.0,0.0,0.0,0.0,0.0,0.0,0.0,0.0,0.0,0.0,0.0,0.0,0.0,0.0,0.0,0.0,0.0,0.0,0.0,0.0,0.0,0.0,0.0,0.0,0.0,0.0,0.0,0.0,0.0,0.0,0.0,0.0,0.0,0.0,0.0,0.0,0.0,0.0,0.0,0.0,0.0,0.0,0.0,0.0,0.0,0.0,0.0,0.0,0.0,0.0,0.0,0.0,0.0,0.0,0.0,0.0,0.0,0.0,0.0,0.0,0.0,0.0,0.0,0.0,0.0,0.0,0.0,0.0,0.0,0.0,0.0,0.0,0.0,0.0,0.0,0.0,0.0,0.0,0.0,0.0,0.0,0.0,0.0,0.0,0.0,0.0,0.0,0.0,0.0,0.0,0.0,0.0,0.0,0.0,0.0,0.0,0.0,0.0,0.0,0.0,0.0,0.0,0.0,0.0,0.0,0.0,0.0,0.0,0.0,0.0,0.0,0.0,0.0,0.0,0.0,0.0,0.0,0.0,0.0,0.0,0.0,0.0,0.0,0.0,0.0,0.0,0.0,0.0,0.0,0.0,0.0,0.0,0.0,0.0,0.0,0.0,0.0,0.0,0.0,0.0,0.0,0.0,0.0,0.0,0.0,0.0,0.0,0.0,0.0,0.0,0.0,0.0,0.0,0.0,0.0,0.0,0.0,0.0,0.0,0.0,0.0,0.0,0.0,0.0,0.0,0.0,0.0,0.0,0.0,0.0,0.0,0.0,0.0,0.0,0.0,0.0,0.0,0.0,0.0,0.0,0.0,0.0,0.0,0.0,0.0,0.0,0.0,0.0,0.0,0.0,0.0,0.0,0.0,0.0,0.0,0.0,0.0,0.0,0.0,0.0,0.0,0.0,0.0,0.0,0.0,0.0,0.0,0.0,0.0,0.0,0.0,0.0,0.0,0.0,0.0,0.0,0.0,0.0,0.0,0.0,0.0,0.0,0.0,0.0,0.0,0.0,0.0,0.0,0.0,0.0,0.0,0.0,0.0,0.0,0.0,0.0,0.0,0.0,0.0,0.0,0.0,0.0,0.0,0.0,0.0,0.0,0.0,0.0,0.0,0.0,0.0,0.0,0.0,0.0,0.0,0.0,0.0,0.0,0.0,0.0,0.0,0.0,0.0,0.0,0.0,0.0,0.0,0.0,0.0,0.0,0.0,0.0,0.0,0.0,0.0,0.0,0.0,0.0,0.0,0.0,0.0,0.0,0.0,0.0,0.0,0.0,0.0,0.0,0.0,0.0,0.0,0.0,0.0,0.0,0.0,0.0,0.0,0.0,0.0,0.0,0.0,0.0,0.0,0.0,0.0,0.0,0.0,0.0,0.0,0.0,0.0,0.0,-3.1844,0.0,0.0,0.0,0.0,0.0,0.0,0.0,0.0,0.0,0.0,0.0,0.0,0.0,0.0,0.0,0.0,0.0,0.0,0.0,0.0,0.0,0.0,0.0,0.0,0.0,0.0,0.0,0.0,0.0,0.0,0.0,0.0,0.0,0.0,0.0,0.0,0.0,0.0,0.0,-4.707,-4.8242,-4.8594,-4.9101,-4.7305,-4.3711,0.0,0.0,0.0,0.0,0.0,0.0,0.0,0.0,0.0,0.0,0.0,0.0,0.0,0.0,0.0,0.0,0.0,0.0,0.0,0.0,0.0,0.0,0.0,0.0,0.0,0.0,0.0,0.0,0.0,0.0,0.0,0.0,0.0,0.0,0.0,0.0,0.0,0.0,0.0,0.0,0.0,0.0,0.0,0.0,0.0,0.0,0.0,0.0,0.0,0.0,0.0,0.0,0.0,0.0,0.0,0.0,0.0,0.0,0.0,0.0,0.0,0.0,0.0,0.0,0.0,0.0,0.0,0.0,0.0,0.0,0.0,-3.6135,0.0,0.0,0.0,0.0,0.0,0.0,0.0,0.0,0.0,0.0,0.0,0.0,0.0,0.0,0.0,0.0,0.0,0.0,0.0,0.0,0.0,0.0,0.0,0.0,-4.2556,-4.3512,-4.3573,-4.4051,0.0,0.0,0.0,0.0,0.0,0.0,0.0,-4.5859,-4.6172,-4.5898,-4.9766,-5.2734,-5.4844,-5.4258,-5.0976,-4.5547,-4.6992,0.0,0.0,0.0,0.0,0.0,0.0,0.0,0.0,0.0,0.0,0.0,0.0,0.0,0.0,0.0,0.0,0.0,0.0,0.0,0.0,0.0,0.0,0.0,0.0,0.0,0.0,0.0,0.0,0.0,0.0,0.0,0.0,0.0,0.0,0.0,0.0,0.0,0.0,0.0,0.0,0.0,0.0,0.0,0.0,0.0,0.0,0.0,0.0,0.0,0.0,0.0,0.0,0.0,0.0,0.0,0.0,0.0,0.0,0.0,0.0,0.0,0.0,0.0,-5.007,-5.044,-5.1055,-5.1793,-5.0874,-4.8936,-5.0743,-4.5348,-3.5609,-3.936,0.0,0.0,0.0,0.0,0.0,0.0,0.0,0.0,0.0,0.0,0.0,0.0,0.0,0.0,0.0,0.0,0.0,0.0,0.0,0.0,0.0,-4.247,-4.3333,-4.4273,-4.38,-4.415,-4.5819,0.0,0.0,0.0,0.0,0.0,-4.5,-4.5859,-4.7344,-4.9492,-5.1523,-5.2695,-5.3047,-5.3711,-5.3516,-5.2656,-5.2812,-5.0389,-4.6158,0.0,0.0,0.0,0.0,0.0,0.0,0.0,0.0,0.0,0.0,0.0,0.0,0.0,0.0,0.0,0.0,0.0,0.0,0.0,0.0,0.0,0.0,0.0,0.0,0.0,0.0,0.0,0.0,0.0,0.0,0.0,0.0,0.0,0.0,0.0,0.0,0.0,0.0,0.0,0.0,0.0,-4.3662,-3.7013,0.0,0.0,0.0,0.0,0.0,0.0,0.0,0.0,0.0,0.0,0.0,0.0,0.0,-4.8492,-4.7776,-4.683,-4.6619,-4.7091,-5.1644,-5.3865,-5.4172,-6.0699,-6.3514,-6.3194,-6.3489,0.0,-4.4195,-3.8611,0.0,0.0,0.0,0.0,0.0,0.0,0.0,0.0,0.0,0.0,0.0,0.0,0.0,0.0,0.0,0.0,0.0,0.0,0.0,0.0,0.0,-4.4893,-4.6394,-4.7278,-4.8412,-4.8642,-4.7564,-4.7286,0.0,0.0,0.0,-4.5508,-4.5,-4.7734,-5.1641,-5.664,-5.7383,-5.875,-6.0703,-6.1055,-6.125,-6.125,-6.1211,-5.7773,-5.1797,-4.8697,0.0,0.0,0.0,0.0,0.0,0.0,0.0,0.0,0.0,0.0,0.0,0.0,0.0,0.0,0.0,0.0,0.0,0.0,0.0,0.0,0.0,0.0,0.0,0.0,0.0,0.0,0.0,0.0,0.0,0.0,0.0,0.0,0.0,0.0,0.0,0.0,0.0,0.0,0.0,-4.2041,-4.3044,-3.584,-4.0851,-4.2603,0.0,0.0,0.0,0.0,0.0,0.0,0.0,0.0,0.0,-4.3001,-5.0695,-5.404,-5.2182,-5.544,-5.7186,-5.7435,-5.9773,-6.0896,-6.1012,-6.4359,-6.5755,-6.5446,-6.5446,-6.2069,-5.6095,-5.0544,-4.7654,-4.6573,0.0,0.0,0.0,0.0,-4.3648,-4.258,0.0,0.0,0.0,0.0,0.0,0.0,0.0,0.0,0.0,0.0,0.0,0.0,-4.5201,-4.7855,-4.9836,-5.0509,-5.215,-5.1913,-4.9073,-4.9133,-4.7969,0.0,-4.5586,-4.5547,-4.4687,-4.9766,-5.5469,-6.1719,-6.2578,-6.4375,-6.6914,-6.6914,-6.6914,-6.6914,-6.6914,-6.332,-5.6992,-5.2578,-5.0859,-5.0585,0.0,0.0,0.0,0.0,0.0,0.0,0.0,0.0,0.0,0.0,0.0,0.0,0.0,0.0,0.0,0.0,0.0,0.0,0.0,0.0,0.0,0.0,0.0,0.0,0.0,0.0,0.0,0.0,0.0,0.0,0.0,0.0,0.0,0.0,0.0,0.0,0.0,-4.2731,-4.4102,-3.5529,-4.1128,-4.3877,0.0,0.0,0.0,0.0,0.0,0.0,-4.1205,-4.8966,-5.1934,-4.8673,-5.6548,-5.9728,-5.7434,-6.3051,-6.5897,-6.5897,-6.5897,-6.5897,-6.5897,-6.5897,-6.569,-6.5291,-6.5291,-6.5137,-6.4351,-5.9121,-5.4283,-5.0278,-5.04,-5.1119,-5.1974,-5.0996,-5.0434,-4.9608,0.0,0.0,0.0,0.0,0.0,0.0,0.0,0.0,0.0,0.0,0.0,-4.7855,-4.7894,-5.0933,-5.3028,-5.3178,-5.2564,-5.1449,-4.974,-4.8327,-4.6719,-4.4883,-4.4961,-4.4648,-4.3789,-5.1211,-5.7265,-6.1719,-6.5039,-6.6719,-6.6914,-6.6914,-6.6914,-6.6914,-6.6914,-6.3984,-5.9101,-5.9531,-5.7422,-5.3476,-4.9961,0.0,0.0,0.0,0.0,0.0,0.0,0.0,0.0,0.0,0.0,0.0,0.0,0.0,0.0,0.0,0.0,0.0,0.0,0.0,0.0,0.0,0.0,0.0,0.0,0.0,0.0,0.0,0.0,0.0,0.0,0.0,0.0,0.0,0.0,0.0,0.0,0.0,0.0,-3.9346,-4.2833,0.0,0.0,0.0,0.0,-5.0827,-5.1547,-5.0366,-4.7388,-5.4524,-5.7289,-5.4182,-6.155,-6.5474,-6.532,-6.5705,-6.5897,-6.5897,-6.5897,-6.5897,-6.5897,-6.5897,-6.5897,-6.5872,-6.5872,-6.5872,-6.5179,-5.6746,-5.4502,-5.5669,-4.9076,-4.7779,-4.9489,-4.7767,-4.6972,-4.6271,0.0,0.0,0.0,0.0,0.0,0.0,0.0,0.0,-4.2739,-4.3047,-4.6509,-4.8702,-4.8163,-5.2626,-5.5665,-5.572,-5.745,-5.7405,-5.4725,-5.252,-5.0373,-4.8163,-4.6094,-4.7187,-5.1914,-5.6875,-6.1289,-6.5039,-6.6289,-6.6914,-6.6914,-6.6914,-6.6914,-6.6914,-6.6914,-6.5898,-6.3906,-6.0312,-5.8515,-5.7734,-5.3164,-5.0703,0.0,0.0,0.0,0.0,0.0,0.0,0.0,0.0,0.0,0.0,0.0,0.0,0.0,0.0,0.0,0.0,0.0,0.0,0.0,0.0,0.0,0.0,0.0,0.0,0.0,0.0,0.0,0.0,0.0,0.0,0.0,0.0,0.0,0.0,0.0,0.0,0.0,-4.7792,-5.2126,0.0,-4.7998,-4.6616,-4.6968,-4.9148,-5.2064,-5.3238,-5.2116,-5.9317,-6.2977,-6.1858,-6.4474,-6.5897,-6.5897,-6.5897,-6.5897,-6.5897,-6.6397,-6.6667,-6.6667,-6.7244,-6.7302,-6.6995,-6.6995,-6.6834,-6.6311,-6.3196,-6.2243,-6.2414,-5.9865,-5.9369,-5.9989,-5.937,-5.9076,-5.8803,0.0,0.0,0.0,0.0,0.0,0.0,0.0,0.0,-4.3932,-4.5086,-4.8394,-5.0779,-5.1087,-5.5395,-5.8396,-5.8704,-6.0781,-6.045,-5.6537,-5.4809,-5.2205,-4.8333,-4.695,-5.0078,-5.8164,-6.0234,-6.3125,-6.6914,-6.6914,-6.6914,-6.6914,-6.6914,-6.6914,-6.6914,-6.6914,-6.6914,-6.664,-6.2617,-6.1562,-6.2187,-5.7265,-5.3437,-5.0625,0.0,0.0,0.0,0.0,0.0,0.0,0.0,0.0,0.0,0.0,0.0,0.0,0.0,0.0,0.0,0.0,0.0,0.0,0.0,0.0,0.0,0.0,0.0,0.0,0.0,0.0,0.0,0.0,0.0,0.0,0.0,0.0,0.0,0.0,0.0,-5.2203,-5.2417,-5.5921,-5.7302,-5.4613,-5.2203,-5.166,-5.3675,-5.6637,-5.8357,-5.8357,-6.3166,-6.5897,-6.5897,-6.6167,-6.6282,-6.6282,-6.659,-6.6744,-6.6744,-6.7282,-6.7552,-6.7552,-6.8129,-6.8224,-6.7875,-6.7875,-6.7681,-6.7414,-6.7414,-6.7133,-6.6744,-6.6535,-6.6441,-6.6507,-6.6653,-6.6744,-6.6744,0.0,0.0,0.0,0.0,0.0,0.0,0.0,-4.3778,-4.5509,-4.8933,-5.1587,-5.4164,-5.6665,-5.9242,-6.1127,-6.2012,-6.2127,-6.0012,-5.5011,-5.4718,-5.1799,-4.5131,-4.7715,-5.3203,-6.1523,-6.0976,-6.2656,-6.6914,-6.6914,-6.6914,-6.6914,-6.6914,-6.6914,-6.6914,-6.6914,-6.6914,-6.6914,-6.6914,-6.6914,-6.6523,-6.2305,-5.8047,-5.3828,0.0,0.0,0.0,0.0,0.0,0.0,0.0,0.0,0.0,0.0,0.0,0.0,0.0,0.0,0.0,0.0,0.0,0.0,0.0,0.0,0.0,0.0,0.0,0.0,0.0,0.0,0.0,0.0,0.0,0.0,0.0,0.0,0.0,-4.2721,-5.3238,-5.8556,-5.2974,-5.3841,-5.584,-5.8308,-5.6302,-5.7934,-6.532,-6.5897,-6.5897,-6.5936,-6.5936,-6.5936,-6.5974,-6.6744,-6.7128,-6.7128,-6.7975,-6.8398,-6.8398,-6.8436,-6.8436,-6.8436,-6.8475,-6.8475,-6.8475,-6.8475,-6.8475,-6.8475,-6.8475,-6.8475,-6.8448,-6.7845,-6.761,-6.7713,-6.8224,-6.8398,-6.8398,0.0,0.0,0.0,0.0,0.0,0.0,0.0,-4.3778,-4.5316,-4.8086,-5.1241,-5.3933,-5.5857,-5.8896,-6.1127,-6.2012,-6.2627,-6.1642,-5.8496,-5.5516,-5.205,-4.791,-5.4452,-5.9297,-6.164,-6.3945,-6.5703,-6.6914,-6.6914,-6.6914,-6.6914,-6.6914,-6.6914,-6.6914,-6.6914,-6.6914,-6.6914,-6.6914,-6.6914,-6.6797,-6.5586,-6.25,-5.8594,0.0,0.0,0.0,0.0,0.0,0.0,0.0,0.0,0.0,0.0,0.0,0.0,0.0,0.0,0.0,0.0,0.0,0.0,0.0,0.0,0.0,0.0,0.0,0.0,0.0,0.0,0.0,0.0,0.0,0.0,0.0,0.0,-5.3391,-5.4874,-5.5758,-5.7687,-6.1597,-6.2459,-6.3012,-6.3729,-6.3166,-6.3628,-6.5743,-6.5897,-6.6128,-6.6744,-6.6782,-6.7051,-6.7705,-6.7936,-6.8052,-6.8052,-6.8282,-6.8398,-6.8398,-6.9052,-6.936,-6.936,-6.9937,-7.0206,-7.0206,-7.0206,-7.0206,-7.0206,-7.0206,-7.0206,-7.009,-6.8712,-6.8157,-6.8185,-6.8345,-6.8398,-6.8398,0.0,0.0,0.0,0.0,0.0,0.0,0.0,-4.4316,-4.6124,-4.9779,-5.1972,-5.4395,-5.7511,-5.9935,-6.1666,-6.2512,-6.2103,-6.0594,-5.7757,-5.3738,-5.2316,-5.4179,-5.8672,-6.1992,-6.3828,-6.5859,-6.6914,-6.6914,-6.6914,-6.6914,-6.6914,-6.6914,-6.6914,-6.6914,-6.6914,-6.7109,-6.7422,-6.7422,-6.7656,-6.8008,-6.7969,-6.4726,-6.0,-6.082,-5.8242,-5.4336,-5.5195,-5.5508,-5.5117,-5.2617,0.0,0.0,0.0,0.0,0.0,0.0,0.0,0.0,0.0,0.0,0.0,0.0,0.0,0.0,0.0,0.0,0.0,0.0,0.0,0.0,0.0,0.0,0.0,0.0,-5.1346,-5.825,-6.205,-6.0689,-6.0935,-6.5359,-6.5897,-6.5897,-6.5897,-6.6205,-6.6397,-6.6397,-6.6744,-6.7167,-6.7628,-6.7628,-6.7898,-6.8398,-6.8744,-6.8936,-6.8936,-6.9283,-6.9436,-6.9475,-7.0321,-7.0744,-7.0783,-7.1629,-7.1975,0.0,-7.1975,-7.1975,-7.1975,-7.1975,-7.1975,0.0,0.0,0.0,0.0,0.0,-6.9436,-6.9436,0.0,0.0,0.0,0.0,0.0,0.0,0.0,-4.5047,-4.7432,-5.2549,-5.3203,-5.5126,-6.0242,-6.1589,-6.2397,-6.3243,-6.1069,-5.8256,-5.4856,-5.1835,-5.3563,-6.121,-6.1289,-6.293,-6.6836,-6.6914,-6.6914,-6.6914,-6.6914,-6.6914,-6.6914,-6.6914,-6.6953,-6.7031,-6.7031,-6.7539,-6.8359,-6.8359,-6.8789,-6.9492,-6.9414,-6.5781,-6.043,-6.1133,-5.8594,-5.4687,-5.5469,-5.5742,-5.5664,-5.5117,0.0,0.0,0.0,0.0,0.0,0.0,0.0,0.0,0.0,0.0,0.0,0.0,0.0,0.0,0.0,0.0,0.0,0.0,0.0,0.0,0.0,0.0,0.0,0.0,-5.3092,-5.8816,-6.5702,-6.6397,-6.6167,-6.6051,-6.6128,-6.6167,-6.6167,-6.6821,-6.7244,-6.7244,-6.7975,-6.8436,-6.8552,0.0,0.0,0.0,0.0,-7.0014,-7.0129,-7.086,-7.1206,-7.1206,-7.1975,-7.236,-7.236,-7.3168,-7.3514,-7.3514,-7.3514,-7.3514,-7.3514,-7.3514,-7.3514,-7.336,-7.1783,-7.1206,-7.1206,-7.1206,-7.1206,-7.1168,0.0,0.0,0.0,0.0,0.0,0.0,0.0,-4.5047,-4.7432,-5.2549,-5.3203,-5.5126,-6.0242,-6.1589,-6.2397,-6.3243,-6.1069,-5.8322,-5.5134,-5.762,-5.9639,-6.0625,-6.3867,-6.6055,-6.6875,-6.6914,-6.6914,-6.6914,-6.6914,-6.6914,-6.6914,-6.6914,-6.7265,-6.7969,-6.7969,-6.8437,-6.9258,-6.9258,-6.9336,-6.9492,-6.9414,-6.8594,-6.7461,-6.7656,-6.7109,-6.6289,-6.6445,-6.6484,-6.5898,-6.2422,-6.125,-6.0429,-5.5778,-5.1014,0.0,0.0,0.0,0.0,0.0,0.0,0.0,0.0,0.0,0.0,0.0,0.0,0.0,0.0,0.0,0.0,0.0,0.0,0.0,-4.9688,-5.8997,-6.6678,-6.8192,-6.8129,-6.7667,-6.6974,-6.7513,-6.7936,-6.7936,-6.8052,-6.8167,-6.8167,-6.8321,-6.8706,-6.9398,-6.9436,-7.0052,-7.1398,-7.1629,-7.2052,-7.2783,-7.2937,-7.3014,-7.3014,0.0,0.0,-7.3245,-7.3437,-7.3514,-7.3514,-7.3514,-7.3514,-7.3514,-7.3514,-7.3514,-7.3476,-7.3129,-7.3014,-7.3014,-7.3014,-7.3014,-7.2899,0.0,0.0,0.0,0.0,0.0,0.0,0.0,-4.5316,-4.6817,-5.0202,-5.0664,-5.2087,-5.5934,-5.7126,-5.7973,-5.8819,-5.7929,-5.6704,-5.523,-5.8866,-6.1836,-6.3594,-6.5742,-6.6914,-6.6914,-6.6914,-6.6914,-6.6914,-6.6914,-6.6914,-6.6914,-6.7344,-6.7773,-6.8203,-6.8633,-6.9297,-7.0117,-7.0117,-7.0351,-7.0742,-7.0703,-7.0703,-7.0625,-6.9805,-6.9492,-6.9453,-6.9453,-6.9414,-6.9062,-6.6914,-6.6211,-6.5351,-6.0195,-5.6719,-5.3594,0.0,0.0,0.0,0.0,0.0,0.0,0.0,0.0,0.0,0.0,0.0,0.0,0.0,0.0,-4.2438,-4.1208,0.0,-5.5903,-5.4219,-6.2463,-6.9023,-6.8899,-6.9052,-6.8783,-6.7859,-6.8129,-6.8398,-6.8398,-6.8783,-6.9052,-6.9052,-6.9821,-7.0475,-7.0937,-7.136,-7.1975,-7.2822,-7.286,-7.3053,-7.3514,-7.3514,-7.3514,-7.3514,-7.3899,-7.4091,-7.413,-7.4553,-7.4745,-7.4745,-7.4745,-7.4745,-7.4745,-7.4745,-7.4745,-7.4745,-7.4745,-7.4245,-7.3514,-7.3514,-7.3514,-7.3437,0.0,0.0,0.0,0.0,0.0,0.0,0.0,-4.5586,-4.624,-4.8125,-4.8202,-4.9125,-5.1856,-5.2779,-5.3395,-5.3797,-5.5281,-5.5997,-5.5585,-5.9375,-6.3242,-6.6758,-6.6914,-6.6914,-6.6914,-6.6914,-6.6914,-6.6914,-6.6914,-6.6914,-6.6914,-6.7773,-6.8281,-6.8476,-6.9297,-7.0156,-7.0937,-7.0937,-7.1367,-7.1992,-7.1992,-7.1992,-7.1836,-7.0508,-6.9961,-6.9922,-6.9922,-6.914,-6.8359,-6.9492,-6.914,-6.7578,-6.3906,-6.2383,-6.0117,-5.0859,-5.0725,0.0,0.0,0.0,0.0,0.0,0.0,0.0,0.0,-4.6298,-4.8137,-5.1971,-5.2752,-5.2175,-5.0169,-5.6142,-6.069,-5.8709,-6.4743,-6.9624,-6.9438,-6.986,-6.9821,-6.8975,-6.8898,-6.8898,-6.8898,-6.9667,-7.0167,-7.0167,-7.1618,-7.2437,-7.2437,-7.3129,-7.3591,-7.3745,-7.3745,-7.3822,-7.3976,-7.4014,-7.4014,-7.4014,-7.463,-7.4938,-7.4976,-7.5668,-7.6015,-7.6015,-7.6015,-7.6015,-7.6015,-7.6015,-7.6015,-7.6015,-7.6015,-7.5168,-7.4014,-7.4014,-7.4014,-7.3976,0.0,0.0,0.0,0.0,0.0,0.0,0.0,0.0,-4.6471,-4.8933,-4.8586,-4.9356,-5.2702,-5.3126,-5.27,-5.1502,-5.7136,-5.9525,-5.6638,-6.2539,-6.6406,-6.6875,-6.6914,-6.6914,-6.6914,-6.6914,-6.6914,-6.6914,-6.6914,-6.6914,-6.6914,-6.7773,-6.8594,-6.9375,-7.0195,-7.1055,-7.1836,-7.1836,-7.1914,-7.1992,-7.1992,-7.1992,-7.1992,-7.1797,-7.1719,-7.1719,-7.1719,-6.8242,-6.4531,-6.9883,-6.8164,-6.4531,-6.9258,-6.7109,-6.1875,-5.6875,-5.2034,-4.7133,-4.2041,-4.4314,-4.7447,-4.4446,-4.8468,-5.2264,0.0,-4.9647,-5.0546,-4.9608,-4.9452,-4.9334,-4.9058,-5.5347,-6.0427,-6.0156,-6.6483,-7.1363,-7.1235,-7.1091,-7.0937,-7.0667,-7.0629,-7.0629,-7.0629,-7.1426,-7.1926,-7.1926,-7.28,-7.3378,-7.3332,-7.3447,-7.3832,-7.4553,-7.4591,-7.4938,-7.5707,-7.5707,-7.5707,-7.5707,-7.5822,-7.5861,-7.5861,-7.5976,-7.6015,-7.6015,-7.6015,-7.6015,-7.6015,-7.6015,-7.6015,-7.6015,-7.6015,-7.5899,-7.5707,-7.5707,-7.5707,-7.563,0.0,0.0,0.0,0.0,0.0,0.0,0.0,0.0,0.0,-4.6355,-4.5701,-4.574,-4.7163,-4.7817,-4.7932,-4.7453,-5.4139,-5.7666,-5.5974,-6.2656,-6.6797,-6.6875,-6.6914,-6.6914,-6.6914,-6.6914,-6.6914,-6.6914,-6.6914,-6.6914,-6.6914,-6.8281,-6.9101,-6.957,-7.0859,-7.164,-7.1992,-7.1992,-7.1992,-7.1992,-7.1992,-7.1992,-7.1992,-7.1992,-7.1992,-7.1601,-6.8594,-6.5898,0.0,-6.668,-6.5859,-6.4726,-7.0273,-6.8203,-6.289,-5.8633,-5.5542,-5.3747,-5.4936,-5.3978,-5.3057,-5.4541,-5.7441,-5.9492,-5.7539,-5.8047,-5.957,-6.1875,-6.2344,-6.2344,-6.2344,-6.4961,-6.7148,-6.7148,-7.0234,-7.2528,-7.2228,-7.2559,-7.2723,-7.2454,-7.2426,-7.2234,-7.1734,-7.2454,-7.2954,-7.2965,-7.3735,-7.4197,-7.4207,-7.4668,-7.513,-7.5438,-7.5476,-7.5861,-7.6746,-7.6746,-7.6976,-7.7438,-7.7438,-7.7438,-7.7438,-7.7438,-7.7438,-7.7438,-7.7438,-7.7438,-7.7438,-7.7438,-7.7169,-7.6775,-7.6746,-7.6438,-7.6015,-7.6015,-7.6015,-7.5938,0.0,0.0,0.0,0.0,0.0,0.0,0.0,0.0,0.0,0.0,-4.3932,-4.3431,-4.347,-4.4122,-4.4716,-4.5124,-5.1106,-5.5061,-5.556,-6.1595,-6.5663,-6.6757,-6.6836,-6.6836,-6.6914,-6.6914,-6.6914,-6.6914,-6.6914,-6.6914,-6.6953,-6.8633,-6.9414,-6.9531,-7.125,-7.1992,-7.1992,-7.1992,-7.1992,-7.1992,-7.1992,-7.1992,-7.1992,-7.1992,-7.1133,-6.9375,-6.5625,-6.3242,-6.1836,-6.1836,-6.0859,-6.0586,-6.5781,-6.5,-6.1328,-5.7031,-5.4726,-5.4683,-5.9659,-5.8835,-5.7594,-6.1913,-6.4726,-6.6328,-6.5937,-6.6328,-6.789,-7.1914,-7.2734,-7.2734,-7.2734,-7.2734,-7.2734,-7.2734,-7.3242,-7.3511,-7.3126,-7.3607,-7.3878,-7.3542,-7.3696,-7.3553,-7.2965,-7.3455,-7.3812,-7.386,-7.4591,-7.5082,-7.5053,-7.5899,-7.6361,-7.6361,-7.6553,-7.6976,-7.763,-7.763,-7.79,-7.8477,-7.8477,-7.8515,-7.8515,-7.8515,-7.8477,-7.8477,-7.8477,-7.8477,-7.8477,-7.8515,-7.813,-7.7622,-7.763,-7.7246,-7.6669,-7.6438,-7.6207,-7.6015,0.0,0.0,0.0,0.0,0.0,0.0,0.0,0.0,0.0,0.0,0.0,0.0,0.0,-4.4614,-4.506,-4.5984,-4.9425,-5.2894,-5.6045,-5.9662,-6.3141,-6.6445,-6.6601,-6.6719,-6.6914,-6.6914,-6.6914,-6.6914,-6.6914,-6.6914,-6.6953,-6.8633,-6.9414,-6.9492,-7.1211,-7.1992,-7.1992,-7.1992,-7.1992,-7.1992,-7.1992,-7.1992,-7.1992,-7.1992,-6.8906,-6.4492,-6.4375,-6.0547,-5.5586,-5.5586,-5.2266,-4.9023,-5.418,-5.6289,-5.5976,-5.168,-4.6797,-4.375,-4.8203,-5.2816,-5.7483,-6.1902,-6.7422,-7.1992,-7.2812,-7.3008,-7.332,-7.4297,-7.4531,-7.4531,-7.4531,-7.4531,-7.4531,-7.4531,-7.4531,-7.4428,-7.4038,-7.3986,-7.388,-7.3534,-7.4187,-7.4639,0.0,-7.463,-7.463,-7.4678,-7.5476,-7.5976,-7.5976,-7.6784,-7.7284,-7.7246,-7.8015,-7.8438,-7.8438,-7.8438,-7.8477,-7.8507,-7.8477,-7.8515,-7.8485,-7.8515,-7.8477,-7.8507,-7.8507,-7.8477,-7.8485,-7.8485,-7.8515,-7.8438,-7.8438,-7.8438,-7.8323,-7.7553,-7.6746,-7.6015,0.0,0.0,0.0,0.0,0.0,0.0,0.0,0.0,0.0,0.0,0.0,0.0,0.0,0.0,0.0,0.0,-4.9324,-5.1784,-5.2957,-5.822,-6.189,-6.3313,-6.5451,-6.668,-6.6914,-6.6914,-6.6914,-6.6914,-6.6914,-6.6914,-6.6953,-6.8672,-6.9453,-6.9492,-7.1211,-7.1992,-7.1992,-7.1992,-7.1992,-7.1992,-7.1992,-7.1992,-7.164,-6.8203,-6.6172,-6.4258,0.0,-5.3281,-5.1055,-5.1055,-4.9883,-4.9375,-5.4531,-5.4023,-5.0625,-4.6289,-4.6601,-4.9414,-5.4375,-5.9481,-6.454,-6.9451,-7.2226,-7.3789,-7.4101,-7.414,-7.4258,-7.4531,-7.1324,-6.8515,-6.8515,-6.8484,-6.8515,-6.8515,-7.2422,-7.5326,-7.4911,-7.5332,-7.5592,-7.5178,-7.537,0.0,0.0,0.0,0.0,-7.5553,-7.5822,-7.6245,-7.6823,-7.7169,-7.7553,-7.8092,-7.8361,-7.8784,-7.9361,-7.9361,-7.9631,-8.0208,-8.0208,-8.0246,-8.0246,-8.0246,-8.0208,-8.0208,-8.0208,-8.0246,-8.0246,-8.0246,-7.99,-7.9369,-7.9369,-7.9015,-7.8477,-7.8207,-7.79,-7.7476,0.0,0.0,0.0,0.0,0.0,0.0,0.0,0.0,0.0,0.0,0.0,0.0,0.0,0.0,0.0,0.0,0.0,-4.9961,-5.125,-5.5268,-5.8259,-5.9728,-6.1779,-6.2864,-6.2773,-6.2734,-6.2617,-6.2305,-6.3828,-6.457,-6.4648,-6.7656,-6.918,-6.9453,-7.0898,-7.1719,-7.1992,-7.1992,-7.1094,-6.9687,-6.9375,-6.832,-6.6562,-6.293,-6.0742,0.0,-5.2461,-4.8633,-4.6523,-4.625,-4.6133,-4.668,-4.9687,-4.8789,-4.6445,-4.582,-4.8359,-5.3008,-6.039,-6.4609,-6.8125,-7.332,-7.4609,-7.4687,-7.5,-7.5078,-7.5156,-7.5469,-7.0598,-6.6338,-6.6338,-6.3818,-6.2027,-6.2915,-6.6102,-6.9401,-7.2097,-7.2965,-7.3966,-7.5784,-7.6015,-7.613,0.0,0.0,0.0,-7.6476,-7.6476,-7.6823,-7.7669,-7.8015,-7.8438,-7.8938,-7.9246,-7.9708,-8.0246,-8.0246,-8.0554,-8.1093,-8.1093,-8.1093,-8.1093,-8.1093,-8.1093,-8.1093,-8.1093,-8.1093,-8.1093,-8.1093,-8.0785,-8.0254,-8.0254,-7.9939,-7.94,-7.9062,-7.8946,-7.8784,0.0,0.0,0.0,0.0,0.0,0.0,0.0,0.0,0.0,0.0,0.0,0.0,0.0,0.0,0.0,0.0,0.0,0.0,-5.0742,-5.1094,-5.2629,-5.5892,-5.6192,-5.5995,-5.539,-5.5351,-5.4961,-5.4141,-5.8164,-6.0156,-6.0234,-6.5234,-6.7969,-6.8789,-6.9648,-7.0547,-7.1328,-7.1328,-6.8984,-6.5195,-6.4375,-6.1601,-5.7851,-5.6758,-5.332,-4.9141,-4.9687,-4.6719,-4.2383,-4.1562,-4.1406,-4.1484,-4.0976,-4.1914,-4.4336,-5.0117,-5.2031,-5.4609,-6.5312,-6.7812,-6.8594,-7.3515,-7.4726,-7.4961,-7.5781,-7.5976,-7.6094,-7.664,-7.1854,-6.7495,-6.713,-6.0647,-5.6121,-5.8421,-5.7352,-5.8949,-6.6776,-6.7884,-6.99,-7.5399,-7.6053,-7.6399,-7.7284,-7.7361,0.0,-7.7438,0.0,-7.7707,-7.8515,-7.9361,-7.9823,-7.9862,-8.0669,-8.1093,-8.1093,-8.1131,-8.117,-8.1208,-8.1208,-8.1208,-8.117,-8.117,-8.1131,-8.1093,-8.1093,-8.1093,-8.1093,-8.1093,-8.1093,-8.1093,-8.1093,-8.1093,-8.1016,-8.0177,-7.9869,-7.9754,0.0,0.0,0.0,0.0,0.0,0.0,0.0,0.0,0.0,0.0,0.0,0.0,0.0,0.0,0.0,0.0,0.0,0.0,-4.75,-4.9844,-5.1633,-5.2617,-5.4977,-5.6283,-5.6289,-5.6289,-5.6172,-5.5937,-5.6367,-5.6601,-5.664,-5.7969,-5.9023,-5.9883,-6.0781,-6.164,-6.2461,-6.2461,-6.1836,-6.082,-6.0586,-5.9844,-5.8437,-5.4297,-5.2305,-5.1172,-4.6875,-4.4922,-4.4101,-4.2617,-4.4258,-4.7695,-5.1953,-5.3594,-5.4375,-5.6562,-6.039,-6.4531,-6.7422,-7.1328,-7.4883,-7.6211,-7.6523,-7.6601,-7.6836,-7.6875,-7.5664,-7.1367,-6.6043,-6.055,-5.5404,-5.6823,-5.8803,-5.881,-6.5971,-7.2185,-7.3983,-7.4244,-7.4928,-7.6746,-7.6976,-7.7284,-7.8092,-7.8169,0.0,0.0,-7.8554,-7.8554,-7.9438,-7.9669,-8.0092,-8.0746,-8.0977,-8.1093,-8.1093,-8.1701,-8.2317,-8.2964,-8.2964,-8.2624,-8.2009,-8.2009,-8.1701,-8.1093,-8.1093,-8.1093,-8.1093,-8.1093,-8.1093,-8.1093,-8.1093,-8.1093,-8.1054,-8.0862,-8.0785,-8.0746,0.0,0.0,0.0,0.0,0.0,0.0,0.0,0.0,0.0,0.0,0.0,0.0,0.0,0.0,0.0,0.0,0.0,0.0,0.0,-4.8047,-4.9062,-4.9141,-5.0918,-5.1804,-5.1523,-5.1133,-5.0937,-5.0937,-5.1992,-5.2695,-5.3086,-5.5,-5.6328,-5.7226,-5.8086,-5.8945,-5.9765,-6.0117,-5.8984,0.0,0.0,-5.5,-5.2617,-4.9297,-4.832,-4.8359,-4.5351,-4.5781,-4.7969,-4.8906,-5.0586,-5.293,-5.6719,-5.789,-5.8594,-6.2109,-6.5547,-6.8789,-7.1445,-7.4609,-7.7187,-7.7187,-7.7187,-7.6523,-7.3867,-7.3186,-7.1455,-6.5393,-5.9883,-5.4919,-5.1037,-5.2601,-5.4667,-5.5279,-6.2221,-6.8678,-7.2055,-7.2877,-7.4158,-7.6976,-7.7592,-7.813,-7.8977,-7.9054,-7.9438,0.0,-7.9554,-7.9438,-8.0323,-8.0362,-8.0592,-8.1093,-8.1439,-8.1823,-8.217,-8.2663,-8.3125,-8.358,-8.358,-8.3317,-8.2901,-8.2855,-8.2624,-8.2163,0.0,-8.1662,-8.1593,-8.1246,-8.1093,-8.1093,-8.1093,-8.1093,-8.1093,-8.1093,-8.1093,-8.1093,0.0,0.0,0.0,0.0,0.0,0.0,0.0,0.0,0.0,0.0,0.0,0.0,0.0,0.0,0.0,0.0,0.0,0.0,0.0,0.0,-4.6289,-4.6289,-4.6289,-4.5937,-4.5195,-4.4414,-4.4062,-4.4062,-4.6953,-4.8789,-4.9609,-5.3203,-5.5351,-5.6211,-5.6992,-5.7773,-5.8594,-5.9453,-5.7226,-5.3086,-5.2344,-4.9336,-4.5234,0.0,-4.4062,-4.4141,-4.4883,-4.7773,-5.1953,-5.6523,-5.7851,-5.789,-5.9609,-6.0117,-6.1328,-6.7578,-6.9375,-7.0547,-7.5781,-7.7187,-7.7187,-7.7187,-7.7187,-7.5625,-6.957,-6.818,-6.6244,-5.9514,-5.4497,-5.1128,-5.0455,-4.9103,-4.9057,-5.192,-5.5074,-5.9862,-6.7683,-6.9512,-7.1953,-7.7015,-7.8246,-7.9015,-7.99,-7.9977,-8.0285,-8.1054,-8.04,-8.0285,-8.1054,-8.1093,-8.1131,-8.1246,-8.2054,-8.2862,-8.3779,-8.3779,-8.3817,-8.3926,-8.3926,-8.3894,-8.3759,-8.3779,-8.3734,-8.358,-8.2817,-8.2432,-8.224,-8.1554,-8.1208,-8.1093,-8.1093,-8.1093,-8.1093,-8.1093,-8.1093,-8.1093,0.0,0.0,0.0,0.0,0.0,0.0,0.0,0.0,0.0,0.0,-4.5789,-4.5527,0.0,0.0,0.0,0.0,0.0,0.0,0.0,0.0,0.0,-4.6289,-4.6289,-4.6211,-4.6094,-4.5937,-4.5859,-4.5859,-4.5742,-4.5742,-4.5898,-4.5937,-4.6406,-4.7226,-4.7383,-4.793,-4.8789,-4.9687,-4.9531,-4.8711,-4.8555,-4.7969,-4.7031,-4.6172,0.0,0.0,-4.6016,-4.793,-5.1289,-5.7031,-6.0742,-6.3984,-6.9844,-7.1719,-7.2226,-7.4844,-7.5625,-7.5859,-7.6914,-7.7187,-7.7187,-7.7187,-7.7187,-7.5625,-6.957,-6.867,-6.6123,-5.5768,-5.3317,-5.1773,-4.7468,-4.983,-5.3987,-5.8802,-6.4271,-6.9784,-7.5234,-7.6746,-7.7814,-7.9208,-7.9477,-7.9939,-8.0785,-8.0862,0.0,0.0,-8.0977,-8.0939,-8.1093,-8.1093,-8.14,-8.2054,-8.2939,-8.3785,-8.467,-8.4664,-8.501,-8.567,-8.567,-8.5324,-8.4676,-8.4676,-8.4291,-8.3566,-8.3413,0.0,-8.2278,-8.2163,-8.1701,-8.1093,-8.1093,-8.1093,-8.1093,-8.1093,-8.1093,-8.1093,0.0,0.0,0.0,0.0,0.0,0.0,0.0,-4.5624,-4.5764,-4.588,-4.588,-4.5683,-4.5077,-4.5351,-4.5469,0.0,0.0,0.0,0.0,0.0,0.0,0.0,0.0,0.0,-4.6289,-4.5859,-4.5859,-4.6289,0.0,-4.5234,-4.5664,-4.5234,-4.5273,-4.5703,-4.6133,-4.6601,-4.7031,-4.7891,-4.8008,-4.7656,-4.8086,-4.8008,-4.7539,0.0,0.0,0.0,-4.5781,-4.8164,-5.1797,-5.3828,-5.918,-6.6015,-7.2031,-7.4219,-7.4844,-7.6133,-7.6836,-7.7187,-7.7187,-7.7187,-7.7187,-7.7187,-7.7187,-7.4805,-6.5625,-6.4372,-6.1871,-5.0162,-4.8623,-4.8754,-4.674,-5.0642,-5.5006,-5.756,-6.5418,-7.1802,-7.351,-7.7202,-7.9785,-7.9823,-8.0208,-8.0631,-8.1054,-8.1093,-8.1093,-8.1093,-8.1093,-8.1093,-8.1093,-8.1516,-8.2324,-8.3593,-8.4055,-8.467,-8.5517,-8.5517,-8.5709,-8.6094,-8.6094,-8.5901,-8.5522,-8.5522,-8.5291,-8.4868,-8.445,0.0,-8.3632,-8.3163,-8.2471,-8.1739,-8.1739,-8.1477,-8.1093,-8.1093,-8.1093,-8.1093,0.0,0.0,0.0,0.0,0.0,0.0,0.0,-4.5624,-4.5719,-4.5886,-4.593,-4.5761,-4.5311,-4.5117,-4.5,0.0,0.0,0.0,0.0,0.0,0.0,0.0,0.0,0.0,0.0,0.0,0.0,-4.6289,-4.5625,0.0,0.0,0.0,0.0,0.0,-4.7031,-4.7305,-4.7383,-4.8242,-4.8242,0.0,0.0,-4.8203,0.0,0.0,0.0,0.0,0.0,-4.8047,-5.1289,-5.0859,-5.6015,-6.3476,-6.8633,-7.1367,-7.289,-7.3945,-7.4726,-7.5547,-7.6836,-7.7187,-7.7187,-7.7187,-7.7187,-7.4101,-6.2187,-6.0617,-5.8359,-4.6621,-4.5263,-4.6471,-4.7509,-5.0817,-5.3783,-5.513,-6.2689,-6.8904,-7.0358,-7.5236,-7.9054,-7.9977,-8.0669,-8.1093,-8.1093,-8.1093,0.0,-8.1093,-8.1246,-8.1362,-8.1362,-8.2324,-8.3478,-8.4863,-8.5093,-8.5478,-8.6094,-8.6094,-8.6094,-8.6094,-8.6094,-8.6094,-8.6094,-8.6094,-8.6094,-8.6055,-8.5406,0.0,0.0,-8.4164,-8.3356,-8.2554,-8.2355,-8.1932,-8.1323,-8.117,-8.1093,-8.1093,0.0,0.0,0.0,0.0,0.0,0.0,0.0,-4.5719,-4.5813,-4.5885,-4.5995,-4.6112,-4.6171,-4.5469,-4.5,0.0,0.0,0.0,0.0,0.0,0.0,0.0,0.0,0.0,0.0,0.0,0.0,-4.6289,-4.6211,0.0,0.0,0.0,0.0,0.0,0.0,-4.6406,-4.6484,-4.7344,0.0,0.0,0.0,0.0,0.0,0.0,0.0,0.0,0.0,-4.7148,-4.7461,-5.1211,-5.2578,-5.3633,-5.8867,-6.3242,-6.6758,-6.8437,-6.8945,-7.0234,-7.5703,-7.7187,-7.7187,-7.7187,-7.7187,-7.4258,-6.2969,-6.1481,-5.9527,-4.8988,-4.7376,-4.8394,-5.0048,-4.9452,-5.0567,-5.6155,-5.7306,-6.0943,-7.0863,-7.2827,-7.5148,-8.0362,-8.1054,-8.1093,-8.1093,-8.1093,-8.1093,-8.1093,-8.1785,-8.217,-8.217,-8.3747,-8.4747,-8.4901,-8.5632,-8.6017,-8.6094,-8.6094,-8.6094,-8.6094,-8.6094,-8.6094,-8.6094,-8.6094,-8.6094,-8.6094,-8.6017,0.0,0.0,-8.4791,-8.4291,-8.3413,-8.2593,-8.224,-8.2086,-8.1362,-8.1093,-8.1093,0.0,0.0,0.0,0.0,0.0,0.0,-4.5586,-4.5624,-4.5719,-4.5873,-4.5944,-4.6073,-4.6288,-4.5508,-4.5,-4.5,0.0,0.0,0.0,0.0,0.0,0.0,0.0,0.0,0.0,0.0,-4.6289,-4.6289,-4.6289,0.0,0.0,0.0,0.0,0.0,0.0,-4.6289,-4.6328,-4.668,0.0,0.0,0.0,0.0,0.0,0.0,0.0,0.0,0.0,0.0,-4.6484,-4.7656,-4.9883,-5.1914,-5.0351,-5.3164,-5.8515,-6.6015,-6.8203,-6.9531,-7.5547,-7.7187,-7.7187,-7.7187,-7.4453,-6.9916,-6.2728,-5.9482,-5.603,-4.9276,-4.8395,-4.924,-5.0471,-4.9702,-4.9682,-5.2165,-5.5383,-5.8684,-6.1944,-6.5149,-6.9271,-7.5082,-7.5284,-7.6592,-8.0708,-8.1093,-8.1285,-8.1785,-8.2593,-8.3324,-8.3824,-8.4516,-8.5132,-8.5632,-8.594,-8.6094,-8.6094,-8.6094,-8.6094,-8.6094,-8.6094,-8.6094,-8.6094,-8.6094,-8.6094,-8.6094,-8.6094,0.0,0.0,-8.5599,-8.5137,-8.4335,-8.3984,-8.3208,-8.224,-8.1932,-8.1516,-8.1093,0.0,0.0,0.0,0.0,0.0,-4.5586,-4.5586,-4.5586,-4.568,-4.5834,-4.5905,-4.5995,-4.621,-4.5508,-4.5,-4.5,-4.4453,0.0,0.0,0.0,0.0,0.0,0.0,0.0,0.0,0.0,-4.6289,-4.6289,-4.6289,-4.6289,0.0,0.0,-4.6289,-4.6289,0.0,0.0,0.0,0.0,0.0,0.0,0.0,0.0,0.0,0.0,0.0,0.0,0.0,0.0,0.0,0.0,0.0,-5.0078,-4.582,-4.6797,-5.1328,-6.0547,-6.4492,-6.7148,-7.2969,-7.5859,-7.7187,-7.7187,-7.2851,-6.7363,-6.2904,-5.8451,-5.4037,-4.9586,-4.926,-4.9971,-5.0587,-5.0202,-4.9779,-4.9779,-5.2993,-5.5634,-5.6032,-5.8847,-6.2953,-6.8578,-6.8436,-7.0591,-7.7438,-7.99,-8.1554,-8.2593,-8.3247,-8.4093,-8.5209,-8.5247,-8.5517,-8.6094,-8.6094,-8.6094,-8.6094,-8.6094,-8.6094,-8.6094,-8.6094,-8.6094,-8.6094,-8.6094,-8.6094,-8.6094,-8.6094,0.0,0.0,-8.6094,-8.5786,-8.5214,-8.4983,-8.4138,-8.3009,-8.2509,-8.1932,-8.14,0.0,0.0,0.0,0.0,0.0,0.0,-4.5586,-4.5586,-4.5624,-4.5796,-4.5866,-4.5956,-4.6093,-4.543,-4.5,-4.5,-4.5,0.0,0.0,0.0,0.0,0.0,0.0,0.0,0.0,0.0,-4.6289,-4.6289,-4.6289,-4.6289,-4.6289,-4.6289,-4.6289,-4.6289,0.0,0.0,0.0,0.0,0.0,0.0,0.0,0.0,0.0,0.0,0.0,0.0,0.0,0.0,0.0,0.0,0.0,0.0,0.0,-4.5703,-4.5937,-5.0273,-5.5781,-6.1601,-6.6875,-7.2656,-7.7187,-7.7187,-7.3242,-6.8226,-6.3812,-5.9379,-5.4921,-5.051,-5.0164,-5.0702,-5.0702,-5.0702,-5.0702,-5.0702,-4.9279,-5.0279,-5.6165,-5.5626,-5.6472,-6.1589,-6.1435,-6.3551,-7.036,-7.713,-8.1785,-8.3439,-8.3593,0.0,-8.6017,-8.6094,-8.6094,-8.6094,-8.6094,-8.6094,-8.6094,-8.6094,-8.6094,-8.6094,-8.6094,-8.6094,-8.6094,-8.6094,-8.6094,-8.6094,0.0,0.0,0.0,-8.6094,-8.6094,-8.6017,-8.5214,-8.4907,-8.4676,-8.2971,-8.2278,-8.2163,0.0,0.0,0.0,0.0,0.0,0.0,0.0,-4.5586,-4.5624,-4.5796,-4.5873,-4.5936,-4.6091,-4.5976,-4.5391,-4.4219,-4.4648,0.0,0.0,0.0,0.0,0.0,0.0,0.0,0.0,0.0,-4.6289,-4.6289,-4.6289,-4.6289,-4.6289,-4.6289,-4.6289,-4.6289,-4.6289,-4.6289,0.0,0.0,0.0,0.0,0.0,0.0,0.0,0.0,0.0,0.0,0.0,0.0,0.0,0.0,0.0,0.0,0.0,0.0,0.0,-4.5195,-4.9922,-5.6406,-6.2187,-6.5156,-6.6601,-6.6601,-6.2245,-5.7974,-5.8221,-5.3956,-4.999,-5.0279,-5.0048,-4.9817,-4.9817,-4.9317,-4.9125,-4.9702,-4.9356,-4.924,-5.001,-5.3126,-5.7011,-6.155,-6.9552,-7.5515,0.0,0.0,-8.1823,-8.3664,-8.3817,-8.4626,-8.6478,-8.6555,-8.6517,-8.6363,-8.6363,-8.6363,-8.6363,-8.6363,-8.6286,-8.6094,-8.6094,-8.6094,-8.6094,-8.6094,-8.6094,0.0,0.0,0.0,0.0,-8.6094,-8.6094,-8.6055,-8.5824,-8.5368,-8.483,-8.4253,-8.3324,-8.224,0.0,0.0,0.0,0.0,0.0,0.0,0.0,-4.5586,-4.5624,-4.5719,-4.5796,-4.5891,-4.6011,-4.5855,-4.5312,-4.4297,-4.4687,0.0,0.0,0.0,0.0,0.0,0.0,0.0,-4.6289,-4.6289,-4.6289,-4.6289,-4.6289,-4.6289,-4.6289,-4.6289,-4.6289,-4.6289,-4.6289,-4.6289,0.0,0.0,0.0,0.0,0.0,0.0,-4.1211,0.0,0.0,0.0,0.0,0.0,0.0,0.0,0.0,0.0,0.0,0.0,0.0,0.0,-4.6172,-5.0976,-5.6367,-5.9726,-6.1719,-6.1719,-5.7367,-5.3658,-5.5747,-5.1741,-4.8164,-5.0279,-5.001,-4.9394,-4.9394,-4.8702,-4.8279,-4.8817,-4.8663,-4.8913,-5.018,-5.3225,-5.696,-6.1209,-7.0975,0.0,0.0,-7.9584,-8.2086,-8.3888,-8.4,-8.483,-8.6699,-8.6776,-8.6781,-8.6742,-8.6636,-8.6597,-8.6594,-8.6517,-8.6401,-8.6247,-8.617,-8.6094,-8.6094,-8.6094,-8.6094,0.0,0.0,0.0,0.0,-8.6094,-8.6094,-8.6094,-8.6094,-8.5786,-8.533,-8.5022,-8.4214,-8.3208,0.0,0.0,0.0,0.0,0.0,0.0,0.0,-4.5586,-4.5586,-4.5586,-4.5719,-4.5827,-4.5911,-4.5242,-4.4844,-4.4883,0.0,0.0,0.0,0.0,0.0,0.0,0.0,0.0,-4.6289,-4.6289,-4.6289,-4.6289,-4.6367,-4.6406,-4.6406,-4.6445,-4.6445,-4.6406,-4.6406,-4.6289,0.0,0.0,0.0,0.0,0.0,0.0,0.0,0.0,0.0,0.0,0.0,0.0,0.0,0.0,0.0,0.0,0.0,0.0,0.0,0.0,0.0,0.0,0.0,-5.5625,-6.0586,-6.0586,-5.6992,-5.3849,-5.5341,-5.1933,0.0,-5.0317,-4.9933,-4.9317,-4.9317,-4.8548,-4.7971,-4.8086,-4.7432,-4.8988,-5.5053,-5.5938,-5.7622,-6.2003,-6.8102,0.0,-7.0889,-7.74,-8.2378,-8.3996,-8.4195,-8.4988,-8.667,-8.6833,-8.6937,-8.7121,-8.6925,-8.6838,-8.6825,-8.6632,-8.6531,-8.6478,-8.6247,-8.6132,-8.6094,-8.6094,-8.6094,0.0,0.0,0.0,0.0,-8.6094,-8.6094,-8.6094,-8.6094,-8.6094,-8.6017,-8.5253,-8.4945,-8.4791,0.0,0.0,0.0,0.0,0.0,0.0,0.0,0.0,0.0,0.0,-4.5719,-4.583,-4.5889,-4.5222,-4.4609,0.0,0.0,0.0,0.0,0.0,0.0,0.0,0.0,0.0,-4.6289,-4.6289,-4.6289,-4.6289,-4.6953,-4.7305,-4.7305,-4.7969,-4.793,-4.7305,-4.7305,-4.6172,0.0,0.0,0.0,0.0,0.0,0.0,0.0,0.0,0.0,0.0,-4.1406,-4.2422,0.0,0.0,0.0,0.0,0.0,0.0,0.0,0.0,-4.2851,-4.4219,-4.5234,0.0,-4.9922,-4.9922,-4.8945,-4.8397,0.0,-4.9392,-4.8644,-4.9644,-4.9086,-4.8394,-4.8394,-4.7201,-4.6624,-4.7894,-4.7432,-4.8795,-5.4318,-6.215,-6.9673,-7.589,-7.8015,-7.893,-7.8738,-8.0531,-8.2212,-8.3449,-8.4108,-8.5018,-8.6259,-8.6974,-8.7364,-8.7391,-8.7357,-8.7242,-8.7034,-8.6995,-8.6794,-8.6478,-8.644,-8.6286,-8.6094,-8.6094,-8.6094,0.0,0.0,0.0,-8.6094,-8.6094,-8.6094,-8.6094,-8.6094,-8.6094,-8.6094,-8.5901,-8.5406,-8.4868,0.0,0.0,0.0,0.0,0.0,0.0,0.0,0.0,0.0,0.0,0.0,-4.5757,-4.5834,-4.4832,0.0,0.0,0.0,0.0,0.0,0.0,0.0,0.0,0.0,-4.6289,-4.6289,-4.6289,-4.6484,-4.6914,-4.7383,-4.7812,-4.8203,-4.8672,-4.8437,-4.7578,-4.7187,-4.5781,0.0,0.0,0.0,0.0,-4.1211,0.0,0.0,0.0,0.0,0.0,-4.0742,-4.1445,0.0,-4.1992,-4.2734,-4.3633,0.0,0.0,0.0,0.0,-4.2383,-4.3711,-4.3711,-4.4961,-4.6289,-4.6289,-4.625,-4.6523,-4.7812,-4.8298,-4.8565,-4.8908,-4.8566,-4.8066,-4.7663,-4.5914,-4.5068,-4.6778,-4.8372,-5.1524,-5.7594,-6.2775,-6.8684,-7.6056,-7.6562,-7.7731,0.0,-8.1848,-8.2396,-8.3376,-8.3865,-8.474,-8.6132,-8.6639,-8.7103,-8.7465,-8.7504,-8.7442,-8.7265,-8.7148,-8.6984,-8.6747,-8.6577,-8.6401,-8.6286,-8.617,-8.6094,0.0,0.0,0.0,-8.6094,-8.6094,-8.6094,-8.6094,-8.6094,-8.6094,-8.6094,-8.6094,-8.5824,-8.5445,0.0,0.0,0.0,0.0,0.0,0.0,0.0,0.0,0.0,0.0,0.0,0.0,0.0,0.0,0.0,0.0,0.0,0.0,0.0,0.0,0.0,0.0,-4.6289,-4.6367,-4.6484,-4.6367,-4.6719,-4.7617,-4.7734,-4.8125,-4.8711,-4.9101,-4.875,-4.7734,-4.6601,-4.5195,0.0,0.0,-4.2617,0.0,-4.1211,0.0,0.0,0.0,0.0,0.0,0.0,0.0,0.0,-4.1016,-4.1523,-4.2226,-4.2226,0.0,0.0,0.0,0.0,0.0,-4.3476,-4.5351,-4.7109,-4.6289,-4.6094,-4.6289,-4.6875,-4.7695,-4.8223,-4.8023,-4.8039,-4.7835,-4.6817,-4.4987,-4.4075,-4.5401,-5.0422,-5.6553,-6.333,-6.363,-6.5682,-7.2397,-7.2542,0.0,-8.1323,-8.2194,-8.2617,-8.3359,-8.3515,-8.4258,-8.5703,-8.5937,-8.6406,-8.7265,-8.7304,-8.7383,-8.75,-8.7265,-8.7148,-8.7109,-8.6749,-8.6538,-8.6478,-8.6247,-8.6132,-8.6094,0.0,0.0,-8.6094,-8.6094,-8.6094,-8.6094,-8.6094,-8.6094,-8.6094,-8.6094,-8.6094,-8.6094,0.0,0.0,0.0,0.0,0.0,0.0,0.0,0.0,0.0,0.0,0.0,0.0,0.0,0.0,0.0,0.0,0.0,0.0,0.0,0.0,0.0,-4.6289,-4.6289,-4.6641,-4.7383,-4.668,-4.6719,-4.7617,-4.8359,-4.8398,-4.7851,-5.0,-5.0195,-4.8594,-4.625,-4.4648,-4.3633,-4.2891,-4.207,-4.1211,-4.1211,0.0,0.0,0.0,0.0,0.0,0.0,0.0,0.0,-4.0117,-4.0664,-4.1367,-4.1367,0.0,0.0,0.0,0.0,0.0,-4.2422,-4.707,-5.0664,-4.6289,-4.5195,-4.5234,-4.5351,-4.5937,-4.6484,-4.6432,-4.6946,-4.6876,-4.526,-4.5247,-4.5346,-4.4877,-5.4629,-6.4477,-7.0654,-7.5594,-7.9042,-8.024,0.0,-8.0708,-8.1893,-8.2194,-8.2344,-8.25,-8.3164,-8.3711,-8.3984,-8.4687,-8.5508,-8.6367,-8.6406,-8.6758,-8.75,-8.7461,-8.7304,-8.7109,-8.7057,-8.6841,-8.6478,-8.644,-8.6324,-8.6094,0.0,-8.6094,-8.6094,-8.6094,-8.6094,-8.6094,-8.6094,-8.6094,-8.6094,-8.6094,-8.6094,-8.6094,0.0,0.0,0.0,0.0,0.0,0.0,0.0,0.0,0.0,0.0,0.0,0.0,0.0,0.0,0.0,0.0,0.0,0.0,0.0,0.0,-4.6523,-4.6992,-4.6562,-4.6719,-4.7578,-4.7226,-4.7656,-4.8984,-4.8945,-4.8945,-4.9023,-4.9258,-4.8945,-4.8086,-4.5976,-4.4531,-4.3633,-4.2773,-4.1953,-4.1211,0.0,0.0,0.0,0.0,0.0,0.0,0.0,0.0,0.0,0.0,-3.9766,-4.0508,-4.0508,0.0,0.0,0.0,0.0,0.0,-4.1641,-4.4726,-4.793,-4.8359,-5.125,-5.4023,-5.4023,-5.4648,-5.4297,-5.0937,-5.0909,-4.9967,-4.4991,-4.7055,-5.1525,-5.7718,-6.1305,-6.5489,-7.1573,-7.1146,-7.177,0.0,0.0,-7.7526,-8.1749,-8.2266,-8.2304,-8.2304,-8.2656,-8.3086,-8.3554,-8.3984,-8.4609,-8.5469,-8.5937,-8.6406,-8.6797,-8.7265,-8.7422,-8.7304,-8.7187,-8.6996,-8.681,-8.6605,-8.644,-8.6324,0.0,-8.6094,-8.6094,-8.6094,-8.6094,-8.6094,-8.6094,-8.6094,-8.6094,-8.6094,-8.6094,-8.6094,0.0,0.0,0.0,0.0,0.0,0.0,0.0,0.0,0.0,0.0,0.0,0.0,0.0,0.0,0.0,0.0,0.0,0.0,0.0,0.0,-4.6601,-4.7266,-4.6836,-4.7109,-4.8203,-4.7617,-4.8164,-4.9883,-4.9023,-4.9023,-4.9844,-4.8125,-4.7305,-4.7226,-4.5469,-4.4219,-4.3359,-4.2461,-4.1758,-4.1211,0.0,0.0,0.0,0.0,0.0,0.0,0.0,0.0,0.0,0.0,0.0,0.0,0.0,0.0,0.0,-3.875,-3.9531,-4.0664,-4.1094,-4.3164,-4.6211,-5.0351,-5.4297,-5.7851,-6.0508,-6.0664,-5.9414,-5.6289,-5.6347,-5.4582,-4.6861,-4.9187,-5.6007,-6.7379,-6.693,-6.7342,-7.3476,-6.916,-6.761,-7.3609,-7.3737,-7.5694,-8.1718,-8.2304,-8.2304,-8.2304,-8.2304,-8.2578,-8.3242,-8.3281,-8.3711,-8.457,-8.5234,-8.5703,-8.5898,-8.6758,-8.7304,-8.75,-8.7304,-8.7148,-8.7109,-8.6765,-8.6577,-8.6478,-8.6286,-8.617,-8.6094,-8.6094,-8.6094,-8.6094,-8.6094,-8.6094,-8.6094,-8.6094,-8.6094,-8.6094,0.0,0.0,0.0,0.0,0.0,0.0,0.0,0.0,0.0,0.0,0.0,0.0,0.0,0.0,0.0,0.0,0.0,0.0,0.0,0.0,-4.6328,-4.6406,-4.7109,-4.8281,-4.9961,-4.7656,-4.7266,-4.8984,-4.8125,-4.8125,-4.8945,-4.7226,-4.6406,-4.6328,-4.457,-4.332,-4.2422,-4.1641,-4.125,-4.1211,-4.1211,0.0,0.0,0.0,0.0,0.0,0.0,0.0,0.0,0.0,0.0,0.0,0.0,0.0,-3.7617,-3.8398,-3.8672,-3.9141,-4.0742,-4.5391,-5.0,-5.1133,-4.7578,-4.6523,-5.6992,-5.5664,-5.3945,-5.9883,-6.1835,-6.0076,-5.2262,-5.1208,-5.4412,-6.332,-6.914,-7.4648,-8.0703,0.0,-8.0937,-8.1482,-8.1482,-8.1679,-8.2265,-8.2304,-8.2304,-8.2304,-8.2304,-8.2344,-8.2383,-8.2383,-8.2773,-8.3672,-8.375,-8.4179,-8.5,-8.5859,-8.6719,-8.75,-8.7461,-8.7344,-8.7109,-8.7067,-8.6845,-8.6478,-8.6478,-8.6324,-8.6094,-8.6094,-8.6094,-8.6094,-8.6094,-8.6094,-8.6094,-8.6094,-8.6094,-8.6094,0.0,0.0,0.0,0.0,0.0,0.0,0.0,0.0,0.0,0.0,0.0,0.0,0.0,0.0,0.0,0.0,0.0,0.0,0.0,-4.5781,-4.6523,-4.707,-4.6914,-4.7617,-4.9336,-4.8945,-4.9062,-4.9726,-4.8281,-4.7773,-4.8086,-4.6875,-4.6016,-4.543,-4.4258,-4.3203,-4.2344,-4.1523,-4.1211,-4.1133,-4.0625,-4.0195,0.0,0.0,0.0,0.0,0.0,0.0,0.0,0.0,-3.8594,-3.8555,-3.8359,-3.7812,-3.7344,-3.7695,-3.8164,-3.8867,-4.0078,-4.5195,-5.0273,-5.0586,-4.8945,-5.0312,-6.2109,-6.3281,-6.289,-6.6523,-6.7578,-6.5898,-5.9765,-6.125,-6.4648,-6.8476,-7.4609,-7.9687,-8.1992,-8.2304,-8.2304,-8.2304,-8.2304,-8.2304,-8.2304,-8.2304,-8.2304,-8.2304,-8.2304,-8.2304,-8.2304,-8.2304,-8.2461,-8.2773,-8.332,-8.375,-8.4101,-8.4961,-8.582,-8.6719,-8.7226,-8.7461,-8.7344,-8.7187,-8.6967,-8.6663,-8.6544,-8.6363,-8.6094,-8.6094,-8.6094,-8.6094,-8.6094,-8.6094,-8.6094,-8.6094,-8.6094,-8.6094,0.0,0.0,0.0,0.0,0.0,0.0,0.0,0.0,0.0,0.0,0.0,0.0,0.0,0.0,0.0,0.0,0.0,0.0,-4.5156,-4.5859,-4.6523,-4.7148,-4.6875,-4.7266,-4.8476,-4.9336,-4.9648,-4.9375,-4.7891,-4.7187,-4.7187,-4.6562,-4.582,-4.4961,-4.4101,-4.3203,-4.2344,-4.1523,-4.1055,-4.0742,-4.0156,-3.957,0.0,0.0,0.0,0.0,0.0,0.0,0.0,0.0,-3.8203,-3.8086,-3.75,-3.7305,-3.7344,-3.7617,-3.793,-3.8398,-3.9258,-4.2734,-4.6641,-4.8828,-4.9609,-5.3008,-6.539,-6.6719,-6.6914,-7.2422,-7.2226,-7.0117,-6.6836,-6.8906,0.0,0.0,-7.7969,-8.2304,-8.2304,-8.2304,-8.2304,-8.2304,-8.2304,-8.2304,-8.2304,-8.2304,-8.2304,-8.2304,-8.2304,-8.2304,-8.2304,-8.2304,-8.2304,-8.2304,-8.289,-8.3203,-8.3203,-8.4062,-8.4804,-8.539,-8.6523,-8.7226,-8.75,-8.7304,-8.7092,-8.688,-8.6687,-8.644,-8.6209,-8.6132,-8.6094,-8.6094,-8.6094,-8.6094,-8.6094,-8.6094,-8.6094,-8.6094,0.0,0.0,0.0,0.0,0.0,0.0,0.0,0.0,0.0,0.0,0.0,0.0,0.0,0.0,0.0,0.0,0.0,0.0,-4.6014,-4.6094,-4.6172,-4.6289,-4.7148,-4.7578,-4.7578,-4.8437,-4.8476,-4.7617,-4.6719,-4.6289,-4.6328,-4.6289,-4.582,-4.4961,-4.4101,-4.3203,-4.2344,-4.1523,-4.0703,-3.9883,-3.9883,-3.8867,-3.7305,0.0,0.0,0.0,0.0,0.0,0.0,0.0,-3.7305,-3.7305,-3.7305,-3.7305,-3.7461,-3.8359,-3.8008,-3.75,-3.8398,-3.8086,-3.9141,-4.5937,-4.8359,-5.2422,-6.5273,-6.3594,-6.3164,-7.6875,-7.5664,-7.2344,-7.3125,-7.2656,0.0,-7.3164,-7.8359,-8.2304,-8.2304,-8.2304,-8.2304,-8.2304,-8.2304,-8.2304,-8.2304,-8.2304,-8.2304,-8.2304,-8.2304,-8.2304,-8.2304,-8.2304,-8.2304,-8.2304,-8.2304,-8.2304,-8.2304,-8.3164,-8.3594,-8.3633,-8.5351,-8.664,-8.75,-8.75,-8.7364,-8.7121,-8.6896,-8.6671,-8.6478,-8.6209,-8.6094,-8.6094,-8.6094,-8.6094,-8.6094,-8.6094,-8.6094,-8.6094,0.0,0.0,0.0,0.0,0.0,0.0,0.0,0.0,0.0,0.0,0.0,0.0,0.0,0.0,0.0,0.0,0.0,0.0,-4.5815,-4.6006,-4.6133,-4.6172,-4.6484,-4.668,-4.668,-4.6953,-4.7539,-4.8516,-4.7031,-4.6601,-4.7187,-4.6601,-4.5508,-4.4062,-4.3828,-4.2891,-4.1484,-4.0664,-4.0156,-3.9805,-3.8555,-3.8125,-3.8164,0.0,0.0,0.0,0.0,0.0,0.0,0.0,0.0,0.0,-3.6406,-3.6797,-3.7461,-3.8359,-3.8437,-3.8398,-3.9297,-4.5508,-5.125,-4.9062,0.0,0.0,-6.7305,-6.7265,-6.9062,-7.8633,-7.9883,-7.7851,-7.3242,-7.6133,0.0,-7.3125,-7.7969,-8.2304,-8.2304,-8.2304,-8.2304,-8.2304,-8.2304,-8.2304,-8.2304,-8.2304,-8.2304,-8.2304,-8.2304,-8.2304,-8.2304,-8.2304,-8.2304,-8.2304,-8.2304,-8.2304,-8.2304,-8.2578,-8.3008,-8.3594,-8.4101,-8.5156,-8.6601,-8.7226,-8.7366,-8.7086,-8.6907,-8.6671,-8.6478,-8.6209,-8.6094,-8.6094,-8.6094,-8.6094,-8.6094,-8.6094,-8.6094,-8.6094,0.0,0.0,0.0,0.0,0.0,0.0,0.0,0.0,0.0,0.0,-4.4355,0.0,0.0,0.0,0.0,0.0,0.0,0.0,0.0,-4.5908,-4.5975,-4.6027,-4.6168,-4.625,-4.6289,-4.6289,-4.6797,-4.7851,-4.6797,-4.6562,-4.707,-4.6562,-4.5547,-4.4219,-4.3867,-4.2969,-4.1601,-4.0391,-3.9883,-3.9766,-3.8398,-3.8125,-3.8516,0.0,0.0,0.0,0.0,0.0,0.0,0.0,0.0,0.0,-3.6406,-3.6875,-3.7344,-3.75,-3.707,-3.7266,-4.0508,-4.6484,-5.2344,-5.4883,-6.164,-6.8594,-7.1992,0.0,0.0,0.0,-8.1679,-8.1015,-7.6875,-7.9492,0.0,-7.6758,-7.957,-8.2304,-8.2304,-8.2304,-8.2304,-8.2304,-8.2304,-8.2304,-8.2304,-8.2304,-8.2304,-8.2304,-8.2304,-8.2304,-8.2304,-8.2304,-8.2304,-8.2304,-8.2304,-8.2304,-8.2304,-8.2304,-8.2578,-8.3086,-8.3437,-8.414,-8.5195,-8.6445,-8.707,-8.7264,-8.7041,-8.6781,-8.6478,-8.6401,-8.6286,-8.6094,-8.6209,-8.6209,-8.6094,-8.6094,-8.6094,-8.6132,0.0,0.0,0.0,0.0,0.0,0.0,0.0,0.0,0.0,0.0,-4.3585,-4.3047,0.0,0.0,0.0,0.0,0.0,0.0,0.0,0.0,-4.5843,-4.5872,-4.6027,-4.6172,-4.6289,-4.6289,-4.6289,-4.6289,-4.6211,-4.6211,-4.6289,-4.6211,-4.5703,-4.4844,-4.4062,-4.3164,-4.2187,-4.0586,-3.9883,-3.9805,-3.8945,-3.8594,-3.8516,-3.7734,0.0,0.0,0.0,0.0,0.0,0.0,0.0,0.0,-3.6914,-3.7226,-3.7148,-3.6367,-3.543,-3.6055,-4.2344,-4.4336,-4.8047,-6.2187,-6.6836,0.0,-7.8008,-7.9805,-8.0078,-8.0937,0.0,-8.2304,-8.2304,-8.2304,-8.2304,-8.2304,-8.2304,-8.2304,-8.2304,-8.2304,-8.2304,-8.2304,-8.2304,-8.2304,-8.2304,-8.2304,-8.2304,-8.2304,-8.2304,-8.2304,-8.2304,-8.2304,-8.2304,-8.2304,-8.2304,-8.2304,-8.2304,-8.2304,-8.2304,-8.2304,-8.3086,-8.3515,-8.3672,-8.539,-8.664,-8.7459,-8.723,-8.6886,-8.6547,-8.6698,-8.6517,-8.617,-8.6401,-8.6363,-8.6132,-8.617,-8.617,-8.6209,0.0,0.0,0.0,0.0,0.0,0.0,0.0,0.0,0.0,0.0,0.0,0.0,0.0,0.0,0.0,0.0,0.0,0.0,0.0,0.0,-4.5791,-4.5812,-4.5986,-4.6094,-4.6133,-4.625,-4.6289,-4.6289,-4.5625,-4.5625,-4.6289,-4.5586,-4.4805,-4.3984,-4.3789,-4.2851,-4.1406,-4.0351,-3.9883,-3.9805,-3.8945,-3.8594,-3.8594,-3.8398,-3.8008,0.0,0.0,0.0,0.0,0.0,0.0,0.0,-3.6211,-3.6758,-3.7266,-3.707,-4.0586,-4.4883,-4.6367,-5.4023,0.0,-6.5781,-7.1367,-7.6836,-8.0,-8.0703,-8.0976,-8.1836,-8.2187,-8.2304,-8.2304,-8.2304,-8.2304,-8.2304,-8.2304,-8.2304,-8.2304,-8.2304,-8.2304,-8.2304,-8.2304,-8.2304,-8.2304,-8.2304,-8.2304,-8.2304,-8.2304,-8.2304,-8.2304,-8.2304,-8.2304,-8.2304,-8.2304,-8.2304,-8.2304,-8.2304,-8.2304,-8.2304,-8.25,-8.2929,-8.3672,-8.539,-8.6562,-8.7187,-8.7118,-8.6971,-8.6745,-8.6778,-8.6632,-8.644,-8.6632,-8.6594,-8.644,-8.6594,-8.6632,-8.6632,0.0,0.0,0.0,0.0,0.0,0.0,0.0,0.0,0.0,0.0,0.0,0.0,0.0,0.0,0.0,0.0,0.0,0.0,0.0,0.0,-4.5719,-4.5796,-4.5902,-4.5981,-4.6015,-4.6054,-4.5941,-4.5515,-4.4653,-4.4945,-4.6289,-4.5391,-4.4531,-4.3711,-4.3711,-4.2773,-4.1172,-4.0703,-4.0508,-4.0391,-3.9101,-3.8867,-3.9141,-3.8281,-3.7695,-3.7266,-3.6836,0.0,0.0,0.0,0.0,0.0,0.0,0.0,-3.6601,-3.6172,-3.832,-4.2226,-4.8867,-5.5586,0.0,-7.0508,0.0,-7.9922,-8.0781,-8.1328,-8.1758,-8.2226,-8.2304,-8.2304,-8.2304,-8.2304,-8.2304,-8.2304,-8.2304,-8.2304,-8.2304,-8.2304,-8.2304,-8.2304,-8.2304,-8.2304,-8.2304,-8.2304,-8.2304,-8.2304,-8.2304,-8.2304,-8.2304,-8.2304,-8.2304,-8.2304,-8.2304,-8.2304,-8.2304,-8.2304,-8.2304,-8.2304,-8.2304,-8.2773,-8.3672,-8.539,-8.6367,-8.6679,-8.7109,-8.7148,-8.6952,-8.7079,-8.6938,-8.6669,-8.6868,-8.6803,-8.6648,-8.677,-8.6804,-8.6817,0.0,0.0,0.0,0.0,0.0,0.0,0.0,0.0,0.0,0.0,0.0,0.0,0.0,0.0,0.0,0.0,0.0,0.0,0.0,0.0,0.0,-4.5757,-4.5796,-4.5843,-4.589,-4.5745,-4.5366,-4.4715,-4.3821,-4.4299,-4.5997,-4.4991,-4.4292,-4.3862,-4.3706,-4.2807,-4.1362,-4.1362,-4.1287,-4.1055,-3.9609,-3.9297,-3.9531,-3.8242,-3.7578,-3.7226,-3.6641,-3.6914,-3.7383,-3.6523,0.0,0.0,0.0,0.0,-3.5859,-3.5156,-3.5273,-3.8164,-4.9766,-5.4765,-6.0273,-7.5195,-7.9961,0.0,-8.1172,-8.1797,-8.2304,-8.2304,-8.2304,-8.2304,-8.2304,-8.2304,-8.2304,-8.2304,-8.2304,-8.2304,-8.2304,-8.2304,-8.2304,-8.2304,-8.2304,-8.2304,-8.2304,-8.2304,-8.2301,-8.2232,-8.23,-8.2265,-8.2265,-8.2265,-8.2304,-8.2304,-8.2304,-8.2304,-8.2304,-8.2304,-8.2304,-8.2304,-8.2304,-8.2695,-8.3437,-8.5039,-8.5937,-8.625,-8.6953,-8.7226,-8.7187,-8.7422,-8.7226,-8.6871,-8.7078,-8.704,-8.6867,-8.6908,-8.6922,-8.6919,0.0,0.0,0.0,0.0,0.0,0.0,0.0,0.0,0.0,0.0,0.0,0.0,0.0,0.0,0.0,0.0,0.0,0.0,0.0,0.0,0.0,-4.5624,-4.5757,-4.5774,-4.5803,-4.5202,-4.4793,-4.4716,-4.382,-4.3912,-4.4882,-4.3237,-4.324,-4.4511,-4.3771,-4.2914,-4.1993,-4.1993,-4.1597,-4.1016,-4.0781,-3.9922,-3.8828,-3.9336,-3.8633,-3.7383,-3.8008,-3.832,-3.8281,-3.7422,-3.7187,0.0,0.0,0.0,-3.5976,-3.5859,-3.9961,-4.5156,-4.7734,0.0,-6.957,0.0,-8.082,-8.1211,0.0,0.0,-8.2304,0.0,-8.2304,-8.2304,-8.2304,-8.2304,-8.2304,-8.2304,-8.2304,-8.2304,-8.2304,-8.2304,-8.2304,-8.2304,-8.2304,-8.2304,-8.2304,-8.2304,-8.2234,-8.2058,-8.2211,-8.2226,-8.2031,-8.2226,-8.2304,-8.2304,-8.2304,-8.2304,-8.2304,-8.2304,-8.2304,-8.2304,-8.2304,-8.2344,-8.25,-8.3515,-8.4765,-8.6211,-8.6328,-8.6797,-8.7461,-8.75,-8.7344,-8.7109,-8.733,-8.7284,-8.7074,-8.733,-8.7416,-8.7297,0.0,0.0,0.0,0.0,0.0,0.0,0.0,0.0,0.0,0.0,0.0,0.0,0.0,0.0,0.0,0.0,0.0,0.0,0.0,0.0,0.0,-4.5586,-4.5663,-4.568,-4.568,-4.4872,-4.4256,-4.3794,-4.2925,-4.2964,-4.3794,-4.2999,-4.3389,-4.4679,-4.4305,-4.3388,-4.2228,-4.2744,-4.2216,-4.106,-4.0507,-4.1838,-4.3798,-4.0322,-4.0574,-4.242,-3.9528,-3.8789,-3.9023,-3.7734,-3.7617,-3.7773,-3.6445,0.0,0.0,0.0,-3.8516,-4.3125,-5.1758,-6.1953,-7.1914,0.0,-8.1367,-8.1836,-8.2226,-8.2304,-8.2304,-8.2304,-8.2304,-8.2304,-8.2304,-8.2304,-8.2304,-8.2304,-8.2304,-8.2304,-8.2304,-8.2304,-8.2304,-8.2304,-8.2211,-8.2141,-8.2141,-8.2046,-8.1933,-8.1858,-8.1898,-8.1909,-8.1835,-8.2031,-8.2148,-8.2148,-8.2226,-8.2304,-8.2304,-8.2304,-8.2304,-8.2304,-8.2304,-8.2304,-8.2304,-8.2695,-8.3554,-8.4765,-8.5273,-8.5976,-8.6758,-8.6758,-8.6992,-8.7344,-8.7461,-8.742,-8.7326,-8.7444,-8.7187,-8.6719,0.0,0.0,0.0,0.0,0.0,0.0,0.0,0.0,0.0,0.0,0.0,0.0,0.0,0.0,0.0,0.0,0.0,0.0,0.0,0.0,0.0,-4.5586,-4.5586,-4.5509,-4.5278,-4.4432,-4.3585,-4.2777,-4.1893,-4.2047,-4.3085,-4.3085,-4.3756,-4.4927,-4.4932,-4.4128,-4.2825,-4.3272,-4.2795,-4.1745,-4.2086,-4.488,-4.8287,-4.2896,-4.3479,-4.6376,-4.0749,-3.9114,-3.9481,-3.8309,-3.8155,-3.8274,-3.6749,-3.6239,0.0,0.0,0.0,-4.0664,-5.3355,0.0,-6.7851,-7.6523,-7.918,-8.0156,0.0,0.0,-8.2304,0.0,-8.2304,-8.2304,-8.2304,-8.2304,-8.2304,-8.2304,-8.2304,-8.2261,-8.2241,-8.2226,-8.2202,-8.2164,-8.2025,-8.1908,-8.1893,-8.177,-8.168,-8.1641,-8.1669,-8.1708,-8.1616,-8.1797,-8.1954,-8.1992,-8.2148,-8.2265,-8.2304,-8.2304,-8.2304,-8.2304,-8.2304,-8.2304,-8.2304,-8.2304,-8.2656,-8.332,-8.4179,-8.5078,-8.5859,-8.5859,-8.625,-8.6836,-8.6836,-8.6836,-8.6836,-8.6836,-8.6445,-8.5859,0.0,0.0,0.0,0.0,0.0,0.0,0.0,0.0,0.0,0.0,0.0,0.0,-4.6778,-4.6086,-4.5586,-4.5586,-4.5586,-4.5586,-4.5586,-4.5586,-4.5586,-4.5586,-4.5586,0.0,-4.4393,-4.3585,-4.2739,-4.1893,-4.0969,-4.1431,-4.3085,-4.3085,-4.397,-4.5565,-4.5547,-4.5047,-4.4162,-4.3431,-4.3125,-4.3463,-4.7467,-4.9314,-4.9503,-4.8328,-4.7566,-4.6535,-4.1384,-3.9569,-3.9583,-3.9505,-3.8967,-3.817,-3.7229,-3.6936,-3.6954,0.0,0.0,0.0,-4.8359,-5.1336,0.0,-6.9023,-7.2461,-7.4258,0.0,0.0,-8.2304,-8.2304,-8.2304,-8.2304,-8.2304,-8.2304,-8.2304,-8.2304,-8.2304,-8.2241,-8.2057,-8.2015,-8.1955,-8.1742,-8.1719,-8.1698,-8.1724,-8.1724,-8.1629,-8.1407,-8.1578,-8.1616,-8.1407,-8.1629,-8.1814,-8.1991,-8.1992,-8.2109,-8.2304,-8.2304,-8.2304,-8.2304,-8.2304,-8.2304,-8.2304,-8.2304,-8.2304,-8.2422,-8.3281,-8.414,-8.4961,-8.4961,-8.5,-8.5039,-8.5039,-8.5039,-8.5039,-8.5039,-8.5,-8.4844,0.0,0.0,0.0,0.0,0.0,0.0,0.0,0.0,0.0,0.0,0.0,0.0,0.0,-4.5778,-4.5586,-4.5586,-4.5586,-4.5586,-4.5586,-4.5586,-4.5586,-4.5586,-4.5047,-4.4624,-4.4316,-4.297,-4.2393,-4.2624,-4.1777,-4.22,-4.3893,-4.4432,-4.5009,-4.5586,-4.5009,-4.4662,-4.4376,-4.3513,-4.3233,-4.3728,-4.8484,-5.27,-5.5538,-5.0235,-5.3087,-5.8676,-4.8721,0.0,-4.6035,-4.6087,-4.2989,-3.9083,-3.8721,-3.8245,-3.795,-3.8517,-3.9143,-4.1247,-4.8639,0.0,0.0,-6.2831,-6.8501,-7.2443,-7.4895,-7.8779,-8.1909,-8.1909,-8.1909,-8.1909,-8.1909,-8.2125,-8.2242,-8.2141,-8.2106,-8.2047,-8.185,-8.1799,-8.1792,-8.1723,-8.1594,-8.1528,-8.1508,-8.1362,-8.1285,-8.1208,-8.1246,-8.1285,-8.1208,-8.14,-8.1589,-8.1814,-8.1929,-8.2109,-8.2304,-8.2304,-8.2304,-8.2304,-8.2304,-8.2304,-8.2304,-8.2304,-8.2304,-8.2304,-8.2617,-8.3242,-8.4062,-8.4062,-8.4414,-8.4883,-8.4883,-8.4883,-8.4883,-8.4883,-8.4531,-8.4023,0.0,0.0,0.0,0.0,0.0,0.0,0.0,0.0,0.0,-4.6932,0.0,0.0,0.0,0.0,-4.5586,-4.5586,-4.5586,-4.5586,-4.5586,-4.5316,-4.5163,-4.5163,-4.4355,-4.3778,-4.347,-4.2354,-4.2085,-4.2662,-4.2085,-4.2662,-4.4316,-4.4893,-4.547,-4.597,-4.4816,-4.4509,-4.4837,-4.4243,-4.4068,-4.4701,-5.1124,-5.6268,-5.9432,-5.3699,-5.678,0.0,0.0,0.0,-5.0306,-5.2298,-4.9989,-4.5893,-4.3564,-4.0908,-3.8777,-3.9662,-3.9915,-4.1084,-4.6158,-4.7637,-4.9403,0.0,-6.1169,-6.5653,-7.0479,-7.4865,-7.861,-8.1173,-8.1716,-8.1716,-8.1716,-8.1929,-8.2065,-8.1901,-8.1919,-8.1841,-8.1613,-8.1594,-8.1554,-8.1516,-8.1362,-8.1285,-8.1285,-8.117,-8.1093,-8.1093,-8.1093,0.0,-8.1093,-8.1208,-8.1377,-8.1589,-8.187,-8.207,-8.2187,-8.2265,-8.2304,-8.2304,-8.2304,-8.2304,-8.2304,-8.2304,-8.2304,-8.2304,-8.2304,-8.2617,-8.3164,-8.3164,-8.3515,-8.4023,-8.4023,-8.4023,-8.4023,-8.4023,-8.3672,-8.3164,0.0,0.0,0.0,0.0,0.0,0.0,0.0,0.0,-4.7817,-4.6971,0.0,0.0,0.0,0.0,0.0,-4.5586,-4.5586,-4.5586,-4.5547,-4.4778,-4.4316,-4.4316,-4.3547,-4.2739,-4.1893,-4.1854,-4.1854,-4.1893,-4.1893,-4.2739,-4.4355,-4.4355,-4.524,-4.6778,-4.5124,-4.4816,-4.5586,-4.5547,-4.5586,-4.6432,-5.578,-6.005,-6.0627,-5.9127,-5.8665,0.0,-5.2087,-5.051,0.0,-5.7896,0.0,0.0,-5.1279,-4.4624,-3.9508,-4.0277,-4.06,-4.0677,0.0,0.0,0.0,-4.9015,0.0,0.0,-6.7745,0.0,-7.2134,-7.9754,-8.1354,-8.1431,-8.1662,-8.1701,-8.1666,-8.1636,-8.1644,-8.1624,-8.14,-8.1362,-8.1323,-8.1131,-8.1093,-8.1093,-8.1093,-8.1093,-8.1093,-8.1093,-8.1093,-8.1093,-8.1093,-8.1093,-8.1214,-8.1364,-8.1797,-8.1991,-8.1992,-8.2187,-8.2304,-8.2304,-8.2304,-8.2304,-8.2304,-8.2304,-8.2304,-8.2304,-8.2304,-8.2304,-8.2304,-8.2304,-8.2304,-8.2304,-8.2304,-8.2304,-8.2304,-8.2304,-8.2304,-8.2304,0.0,0.0,0.0,0.0,0.0,-4.9686,-4.8488,-4.8183,-4.7586,0.0,0.0,0.0,-4.5586,-4.5586,-4.5586,-4.5586,-4.5586,-4.5316,-4.4701,-4.5009,-4.497,-4.4316,-4.4085,-4.3855,-4.3624,-4.3047,-4.3047,-4.3624,-4.3624,-4.4162,-4.524,-4.524,-4.5509,-4.597,-4.6124,-4.597,-4.5547,-4.4932,-4.5009,-4.6471,-5.6434,-6.0589,-6.1089,0.0,0.0,0.0,0.0,-6.3705,-6.4782,0.0,-6.1243,-5.1933,-4.5086,-4.2124,-4.1046,-4.0623,-4.0523,-4.0562,-4.0508,0.0,0.0,0.0,0.0,0.0,0.0,0.0,-6.4475,-7.1552,-7.3014,-7.4707,-8.0246,-8.1246,-8.1069,-8.042,-8.0974,-8.14,-8.1208,-8.117,-8.117,-8.1093,-8.1093,-8.1093,-8.1093,-8.1093,-8.1093,0.0,-8.1093,-8.1093,-8.1093,-8.1246,-8.1308,-8.1379,-8.1799,-8.2007,-8.1992,-8.2187,-8.2304,-8.2304,-8.2304,-8.2304,-8.2304,-8.2304,-8.2304,-8.2304,-8.2304,-8.2304,-8.2304,-8.2304,-8.2304,-8.2304,-8.2304,-8.2304,-8.2304,-8.2304,-8.2304,-8.2304,0.0,0.0,0.0,0.0,0.0,-4.9467,-4.8304,-4.8123,-4.7625,0.0,0.0,0.0,-4.5586,-4.5932,-4.6124,-4.6124,-4.6124,-4.5932,-4.5432,-4.5163,-4.4816,-4.4316,-4.397,-4.3816,-4.3816,-4.3355,-4.3508,-4.4316,-4.4316,-4.4739,-4.5586,-4.5586,-4.5778,-4.6163,-4.6278,-4.6278,-4.6124,-4.5586,-4.5663,-4.7009,-5.7242,0.0,0.0,-6.6936,-7.1168,0.0,0.0,0.0,-7.1129,-7.3745,-6.582,0.0,0.0,-4.5432,-4.1162,-4.0662,-4.0508,-4.0508,-4.0508,-4.0562,-4.06,-4.0508,0.0,0.0,-5.2818,-5.6665,-6.1935,0.0,-7.4476,-7.5822,-8.0285,-8.1093,-8.0823,-7.9939,-8.0323,-8.0669,-8.0554,-8.0554,-8.0708,-8.1054,-8.1093,-8.1093,-8.1093,-8.1093,-8.1093,-8.1093,-8.1093,-8.1093,-8.1093,-8.1208,-8.1246,-8.1246,-8.1554,-8.1779,-8.1858,-8.2063,-8.2226,-8.2304,-8.2304,-8.2304,-8.2304,-8.2304,-8.2304,-8.2304,-8.2304,-8.2304,-8.2304,-8.2304,-8.2304,-8.2304,-8.2304,-8.2304,-8.2304,-8.2304,-8.2304,-8.2304,0.0,0.0,-4.7976,-4.7426,-4.8497,-4.9144,-4.84,-4.8136,-4.778,0.0,-4.6355,-4.5817,-4.574,-4.6509,-4.7009,-4.6932,-4.6894,-4.6817,-4.6624,-4.524,-4.4393,-4.4316,-4.3701,-4.3393,-4.3393,-4.347,-4.3816,-4.4432,-4.4547,-4.4932,-4.5586,-4.5586,-4.6009,-4.674,-4.6047,-4.6163,-4.6932,-4.7009,-4.7432,-4.8856,-5.8396,-6.2589,0.0,0.0,-7.1898,-7.1898,-7.2014,-7.2514,-7.3745,-7.7553,-7.136,0.0,0.0,0.0,0.0,0.0,-4.1046,-4.147,-4.07,-4.0508,-4.0508,-4.0508,-3.9392,0.0,-5.5203,-5.7126,-6.0089,0.0,-7.7284,-7.7515,-7.8284,-7.8438,-7.8092,-7.7015,-7.763,-7.8592,-7.9515,-7.9669,-7.9939,-8.0708,-8.0823,-8.0823,-8.0823,-8.09,-8.0977,-8.0977,-8.1054,-8.1093,-8.1093,-8.1093,-8.1093,-8.1093,-8.1285,-8.1516,-8.1692,-8.1909,-8.2109,-8.2304,-8.2304,-8.2304,-8.2304,-8.2304,-8.2304,-8.2304,-8.2304,-8.2304,-8.2304,-8.2304,-8.2304,-8.2304,-8.2304,-8.2304,-8.2304,-8.2304,-8.2304,-8.2304,-4.7976,-4.7682,-4.7574,-4.8412,-4.8837,-4.8933,-4.8732,-4.8067,-4.7673,-4.7818,-4.774,-4.7355,-4.674,-4.7394,-4.7625,-4.6971,-4.6894,-4.6317,-4.4893,-4.5163,-4.5009,-4.4316,-4.4816,-4.5086,-4.5086,-4.5817,-4.5893,-4.5355,-4.6047,-4.6124,-4.5586,-4.5586,-4.5701,-4.5893,-4.6394,-4.674,-4.6932,-4.7586,0.0,-5.5511,-6.0896,-6.2781,-6.3474,-7.4053,-7.8054,-7.8169,-7.8861,-7.9208,-7.8669,-7.4168,-7.1437,-6.7936,0.0,0.0,0.0,-4.3932,0.0,0.0,-4.2008,-4.0508,-4.0508,0.0,0.0,0.0,-4.2085,-4.22,-4.4162,0.0,-5.3587,-5.5241,-6.0704,-6.1704,-6.0973,-5.8742,-6.4128,-7.0975,-7.7784,-7.8746,-7.8823,-7.8977,-7.9015,-7.9015,-7.9015,-7.9631,-8.0054,-8.0061,-8.0708,-8.1093,-8.1093,-8.1093,-8.1093,-8.1093,-8.1285,-8.1493,-8.1677,-8.1919,-8.2109,-8.2304,-8.2304,-8.2304,-8.2304,-8.2304,-8.2304,-8.2304,-8.2304,-8.2304,-8.2304,-8.2304,-8.2304,-8.2304,-8.2304,-8.2304,-8.2304,-8.2304,-8.2304,-8.2383,-4.6507,-4.6507,-4.6691,-4.7311,-4.7887,-4.8509,-4.9029,-4.896,-4.8945,-4.9317,-4.9009,-4.8432,-4.7586,-4.7855,-4.7932,-4.7548,-4.7124,-4.6547,-4.5663,-4.6009,-4.6047,-4.5624,-4.6394,-4.6855,-4.6855,-4.6894,-4.6701,-4.624,-4.624,-4.6009,-4.5586,-4.5586,-4.5163,-4.4393,-4.5663,-4.6009,-4.5701,-4.7394,-5.1279,-5.678,-6.1897,0.0,-6.8706,-7.7207,-8.0439,-8.0516,-8.0939,-8.1093,-8.0592,-7.713,-7.2052,0.0,-6.2127,-5.905,-5.5511,0.0,-4.8009,-4.9202,0.0,0.0,0.0,-4.0508,0.0,0.0,0.0,-4.3047,-4.4355,-5.1202,-5.2241,-5.2972,-5.6357,-5.6626,-5.5818,-5.4126,-6.0627,-6.559,-6.4743,-7.2283,-7.8054,-7.8438,-7.8477,-7.8477,-7.8477,-7.89,-7.9323,-7.9754,-8.0631,-8.1093,-8.1093,-8.1093,-8.1093,-8.1093,-8.1208,-8.1323,-8.1554,-8.1758,-8.1959,-8.2148,-8.2265,-8.2304,-8.2304,-8.2304,-8.2304,-8.2304,-8.2304,-8.2539,-8.2969,-8.2969,-8.3203,-8.3554,-8.3125,-8.3203,-8.3594,-8.3594,-8.3594,-8.3672,-4.5076,-4.5333,-4.5773,-4.6067,-4.6942,-4.7979,-4.9213,-4.9532,-4.9758,-5.0043,-4.949,-4.876,-4.7876,-4.8411,-4.8754,-4.86,-4.8979,-4.8886,-4.8009,-4.8086,-4.7895,-4.7163,-4.7586,-4.7855,-4.7855,-4.724,-4.6817,-4.6663,-4.6124,-4.5855,-4.5855,-4.5855,-4.5124,-4.3932,-4.6624,-4.6663,-4.5009,-4.8394,0.0,-5.7819,0.0,-6.8167,-7.4053,-7.9169,-8.1208,-8.1323,-8.1323,-8.1323,-8.117,-8.0208,-7.3014,-6.4897,-6.7051,-6.2358,0.0,0.0,0.0,0.0,0.0,0.0,0.0,0.0,0.0,-3.9815,0.0,0.0,0.0,-5.2664,0.0,0.0,-5.2395,0.0,0.0,-4.8894,0.0,0.0,0.0,-6.1358,0.0,-7.2552,-7.5822,-7.7323,-7.5515,-7.5322,-7.6592,-7.9592,-7.8631,-7.8861,-8.0977,-8.1093,-8.1093,-8.1093,-8.1093,-8.1208,-8.14,-8.1608,-8.1792,-8.1992,-8.2187,-8.2304,-8.2304,-8.2304,-8.2383,-8.2539,-8.2539,-8.3047,-8.3867,-8.3867,-8.4375,-8.5078,-8.4179,-8.4297,-8.4883,-8.4883,-8.4883,-8.4922,-4.5773,-4.5259,-4.5296,-4.6728,-4.7095,-4.7609,-4.8766,-4.8418,-4.795,-4.7891,-4.7876,-4.7554,-4.6713,-4.9504,-5.1185,-5.0468,-5.4872,-5.6026,-5.2041,-5.2448,-5.1381,-4.8106,-4.7355,-4.7048,-4.7048,-4.6971,-4.6509,-4.574,-4.6432,-4.674,-4.674,-4.674,-4.6663,-4.674,-5.2933,-5.2318,-4.7009,-5.3318,-5.8934,0.0,-6.432,-6.8167,0.0,-7.9169,-8.1554,-8.217,-8.217,-8.217,-8.1477,0.0,-7.4476,-7.1283,0.0,-6.3128,-6.7321,-4.8355,0.0,0.0,0.0,0.0,0.0,0.0,-3.9815,0.0,0.0,0.0,-3.7892,-3.8084,0.0,-3.6546,-3.5776,0.0,0.0,0.0,0.0,0.0,-3.5622,-4.4432,-5.1433,-5.1548,-6.6205,-7.3053,-6.4743,-6.3935,-6.8359,-7.9015,-7.1514,-7.0744,-8.0592,-8.1093,-8.1093,-8.1093,-8.1093,-8.1208,-8.14,-8.157,-8.1815,-8.1992,-8.2187,-8.2304,-8.2304,-8.2304,-8.2734,-8.3437,-8.3437,-8.3945,-8.4765,-8.4765,-8.5273,-8.5976,-8.5078,-8.4804,-8.4883,-8.4883,-8.4883,-8.5,-4.5883,-4.5626,-4.5773,-4.6911,-4.7131,-4.75,-4.8699,-4.9408,-4.9776,-4.9719,-5.0412,-5.056,-4.9677,-5.0558,0.0,-5.3669,0.0,-5.5094,0.0,-5.3888,-5.2476,-4.8298,-4.8279,-4.8125,-4.7625,-4.7163,-4.6971,-4.7048,-4.6971,-4.7163,-4.7586,-4.7586,-4.6817,-4.5701,-5.301,-5.4126,-5.0856,0.0,-6.0242,0.0,0.0,0.0,0.0,-8.0054,-8.2324,-8.3054,-8.3054,-8.3054,-8.2708,0.0,-7.4938,0.0,0.0,0.0,0.0,-5.5895,0.0,0.0,0.0,0.0,0.0,0.0,0.0,0.0,-3.8354,0.0,-3.5776,0.0,0.0,0.0,0.0,0.0,0.0,0.0,-3.4314,0.0,0.0,0.0,-4.7932,-4.7471,0.0,0.0,-6.1204,-6.1781,-6.6628,-7.7515,-6.9821,-6.9206,-7.9785,-8.0823,-8.1093,-8.1093,-8.1093,-8.1131,-8.1208,-8.1439,-8.1615,-8.1811,-8.2021,-8.2461,-8.3047,-8.3047,-8.3515,-8.4336,-8.4336,-8.4844,-8.5664,-8.5664,-8.6172,-8.6914,-8.6562,-8.6406,-8.6406,-8.6406,-8.6406,-8.6445,-4.6544,-4.6214,-4.614,-4.6985,-4.7131,-4.7463,-4.8563,-5.0033,-5.0968,-5.0968,-5.1586,-5.1835,-5.1315,-5.2119,0.0,0.0,-5.7777,-5.7366,0.0,-5.5737,-5.4316,-4.9679,-4.9181,-4.9336,-4.9963,-4.8183,-4.7509,-4.8086,-4.7509,-4.7663,-4.8471,-4.8471,-4.7355,-4.5663,-5.3087,-5.5357,-5.3818,0.0,-6.2743,-6.8052,-6.8859,-7.1783,-7.6169,-8.1131,-8.3247,-8.3632,-8.3862,-8.3939,-8.3747,-8.2324,-7.5707,0.0,-7.6746,0.0,-6.0819,0.0,0.0,0.0,-4.7278,0.0,0.0,0.0,0.0,0.0,0.0,0.0,0.0,0.0,0.0,0.0,0.0,0.0,-2.9813,-2.8005,0.0,-3.343,0.0,-3.2968,0.0,0.0,0.0,0.0,0.0,-5.4664,-5.8896,-7.2129,-6.5013,-6.5859,-7.9092,-8.0631,-8.1093,-8.1093,-8.1093,-8.1093,-8.1093,-8.1285,-8.1501,-8.1699,-8.2137,-8.2773,-8.3594,-8.3867,-8.4414,-8.5273,-8.5273,-8.5742,-8.6562,-8.6562,-8.6914,-8.75,-8.75,-8.75,-8.75,-8.75,-8.75,-8.75,-4.8233,-4.6985,-4.614,-4.6985,-4.7131,-4.7388,-4.8159,-4.9342,0.0,0.0,0.0,0.0,0.0,0.0,0.0,0.0,0.0,-6.6883,-5.7847,0.0,-5.801,0.0,0.0,-5.021,-5.46,-5.0342,-4.8086,-4.8086,-4.8086,-4.8509,-4.9356,-4.9356,-4.8856,-4.8279,-5.5164,-5.6819,-5.4934,-6.2435,-6.8552,-7.3322,-7.413,-7.4591,-7.5476,0.0,-8.4324,-8.3708,-8.4555,0.0,0.0,-7.9169,-7.7207,0.0,0.0,0.0,0.0,0.0,0.0,0.0,0.0,0.0,0.0,-4.3431,0.0,0.0,0.0,0.0,-3.5493,0.0,0.0,0.0,0.0,-3.1506,-2.9044,-2.4937,-2.5813,0.0,0.0,-2.0312,0.0,0.0,0.0,0.0,0.0,-3.7199,-4.0085,-6.1012,-5.3933,-5.7742,-7.8669,-8.0631,-8.1093,-8.1093,-8.1093,-8.1093,-8.1093,-8.1285,-8.1508,-8.1693,-8.2767,-8.3398,-8.3633,-8.4453,-8.5312,-8.6172,-8.6172,-8.664,-8.7461,-8.7461,-8.7461,-8.75,-8.75,-8.75,-8.75,-8.75,-8.75,-8.75,-4.8306,-4.7865,-4.7755,-4.86,0.0,0.0,0.0,-5.0491,0.0,0.0,-5.4611,0.0,0.0,-6.0074,-6.2295,0.0,0.0,-6.5557,-5.8665,-6.0598,0.0,0.0,0.0,-5.1376,0.0,-5.0396,-4.8394,-4.8971,-4.8971,-4.9125,-4.9394,-4.9971,-4.9471,-4.8394,-5.5241,-5.9704,0.0,0.0,0.0,0.0,0.0,-7.236,-7.6553,0.0,-7.8323,-7.9208,-8.3978,-8.5709,0.0,-8.3708,-8.0131,-7.6823,-7.8977,-7.4899,-6.9706,-7.1591,-6.9975,0.0,0.0,0.0,-6.2474,-5.0625,0.0,0.0,0.0,0.0,0.0,0.0,0.0,0.0,0.0,-3.116,-2.9583,-2.7044,-2.7082,-2.6082,0.0,-1.9812,0.0,0.0,0.0,0.0,0.0,0.0,-4.6471,-6.1012,-5.9665,-6.4512,-7.9015,-8.0631,-8.1093,-8.1093,-8.1093,-8.1093,-8.1093,-8.117,-8.1662,-8.2579,-8.2915,-8.3887,-8.5312,-8.5625,-8.625,-8.707,-8.707,-8.7226,-8.75,-8.75,-8.75,-8.75,-8.75,-8.75,-8.75,-8.75,-8.75,-8.75,-4.8306,-4.8306,-4.8489,0.0,0.0,0.0,0.0,0.0,0.0,0.0,-5.6586,0.0,-6.2657,0.0,-6.5597,0.0,-6.9013,-6.6334,-5.9111,-6.2449,0.0,-5.5769,-5.5148,-5.6565,0.0,0.0,-5.166,-5.2196,-5.0622,-5.001,-5.0317,-5.0856,-5.0356,-4.924,-5.3933,-5.9704,-6.5974,-6.709,-7.2052,0.0,0.0,-6.9321,0.0,0.0,-7.3591,-7.7323,0.0,-8.6094,-8.6094,-8.6094,-8.3208,-8.0362,-8.4709,-8.0092,-7.3937,-7.8323,-7.6092,-7.1706,-6.9321,-7.0821,0.0,-5.8165,-5.7203,0.0,-4.3585,0.0,-3.8623,0.0,0.0,0.0,0.0,-3.1198,-2.9852,-2.8159,-2.789,-2.6582,0.0,-1.9658,-1.7196,-1.5811,0.0,0.0,0.0,-3.3506,-4.1316,-5.6011,-5.7896,-6.3051,-7.3822,-7.8669,-8.1093,-8.1093,-8.1093,-8.1093,-8.1093,-8.1093,-8.167,-8.2855,-8.325,-8.4366,-8.6054,-8.6484,-8.6953,-8.75,-8.75,-8.75,-8.75,-8.75,-8.75,-8.75,-8.75,-8.75,-8.75,-8.75,-8.75,-8.75,-4.8306,-4.8306,0.0,0.0,-4.904,0.0,0.0,0.0,-5.0398,0.0,-5.5647,-5.7,-6.326,-6.6344,-6.8157,-6.8556,-7.1711,-6.9556,-5.9621,-6.4846,0.0,0.0,-6.1902,-6.4967,-6.9447,0.0,0.0,-5.7279,-5.2909,-5.1125,-5.1856,-5.1933,-5.151,-5.0741,-5.1548,-5.6934,-6.5551,-6.7167,-7.4053,-8.2862,-7.0744,-6.5897,-6.5974,-6.6282,-7.0937,-7.8054,-8.3978,-8.6094,-8.6094,-8.6094,-8.6094,-8.6094,-8.6094,-8.6094,-8.6094,-8.6094,-8.6094,-8.4709,-7.8246,-7.5861,-7.336,-6.5705,0.0,0.0,0.0,0.0,-4.5393,0.0,0.0,0.0,0.0,0.0,-3.0352,-2.8236,-2.7775,-2.6274,-2.2081,-1.9388,-1.7503,-1.6657,-1.5849,-1.9427,-2.9929,-2.2697,-2.589,-4.6624,-4.8971,-5.4126,-6.4859,-7.4938,-8.0631,-8.1093,-8.1093,-8.1093,-8.1093,-8.1131,-8.167,-8.267,-8.3811,-8.4902,-8.5898,-8.6992,-8.75,-8.75,-8.75,-8.75,-8.75,-8.75,-8.75,-8.75,-8.75,-8.75,-8.75,-8.75,-8.75,-8.75,-4.8306,-4.8306,-4.8306,0.0,-4.9517,-5.0472,0.0,0.0,0.0,0.0,-5.8988,-6.1091,-6.9336,-7.1397,-7.2186,-7.2318,-7.3692,0.0,0.0,0.0,0.0,-6.5801,-6.4979,-6.6425,-7.03,-6.177,-5.7279,-5.7279,-5.3483,-5.1395,-5.1048,-5.2279,-5.2087,-5.0741,-5.1548,-5.4664,-5.9319,-5.9742,-6.3743,-6.959,-6.6974,-6.6244,-6.7282,0.0,-7.5014,-7.8054,-8.3978,-8.6094,-8.6094,-8.6094,-8.6094,-8.6094,-8.6094,-8.6094,-8.6094,-8.6094,-8.6094,-8.5709,-8.3978,-8.2901,-8.0439,-7.2783,-6.959,-6.6244,0.0,0.0,0.0,0.0,0.0,0.0,0.0,0.0,0.0,-2.9198,-2.6323,-2.4245,-2.185,-2.0427,0.0,-1.758,0.0,0.0,-2.0196,-2.5428,-3.4353,-4.8048,-4.9856,-5.8127,-7.5938,0.0,-7.3899,-8.0862,-8.1093,-8.1093,-8.1093,-8.1708,-8.2516,-8.3587,-8.4648,-8.5736,-8.6797,-8.7265,-8.75,-8.75,-8.75,-8.75,-8.75,-8.75,-8.75,-8.75,-8.75,-8.75,-8.75,-8.75,-8.75,-8.75,-4.8783,-4.915,0.0,-4.9407,0.0,0.0,-5.2931,-5.0288,0.0,-6.0896,-6.0713,0.0,-7.011,-7.2899,-7.4221,-7.4221,-7.4955,0.0,-6.8151,0.0,0.0,-6.911,-7.0027,-7.1472,-7.3518,-6.671,0.0,-6.0815,-5.6768,-5.3966,-5.2356,-5.3318,-5.3049,-5.1818,-5.2664,-5.4934,-5.8434,-6.3666,-6.564,-6.5561,-6.8932,-7.0402,0.0,-7.458,-7.813,-8.1593,-8.4901,-8.6094,-8.6094,-8.6094,-8.6094,-8.6094,-8.6094,-8.6094,-8.6094,-8.6094,-8.6094,-8.6094,-8.6094,-8.5786,-8.4324,-7.9669,-7.7476,-7.4361,-6.632,-6.3858,-6.2358,0.0,0.0,0.0,0.0,0.0,0.0,-3.0006,-2.6274,-2.4159,0.0,0.0,0.0,0.0,-1.8273,0.0,-1.7657,-2.3197,-3.1545,-4.3008,-4.4316,-4.9586,-6.1089,0.0,-6.936,-7.4284,-7.4784,-7.713,-8.1593,-7.8015,-7.8938,-8.4356,-8.5158,-8.601,-8.6971,-8.7338,-8.75,-8.75,-8.75,-8.75,-8.75,-8.75,-8.75,-8.75,-8.75,-8.75,-8.75,-8.75,-8.75,-8.75,-4.9591,-5.0325,0.0,0.0,0.0,0.0,0.0,-5.2747,0.0,-6.2401,0.0,-6.3392,-6.9082,-7.2899,-7.5065,-7.5065,0.0,-7.4617,-7.0739,-7.4785,-7.5573,-7.1754,-7.5264,-7.7304,-7.7304,-7.3074,-6.9022,0.0,-6.1035,-5.7385,-5.4511,-5.4626,-5.4203,-5.3395,-5.4164,-5.6236,0.0,-7.0046,-7.0968,-6.6205,-7.2997,-7.5379,-7.5057,-7.6514,-8.0811,-8.5954,-8.5954,-8.6026,-8.6094,-8.6094,-8.6094,-8.6094,-8.6094,-8.6094,-8.6094,-8.6094,-8.6094,-8.6094,-8.6094,-8.6094,-8.5901,-8.5093,-8.4247,-8.1631,-7.4091,-7.1783,-6.9321,-6.2666,-6.0704,-5.9796,0.0,0.0,0.0,-3.2083,0.0,0.0,0.0,0.0,0.0,0.0,0.0,0.0,-1.9458,-1.9311,-2.4159,-3.5815,-3.5661,-3.6699,-4.0469,0.0,-6.609,-6.7821,-6.8552,-7.2629,-8.04,-7.3783,-7.4668,-8.3093,-8.4818,-8.6041,-8.6794,-8.7236,-8.7461,-8.75,-8.75,-8.75,-8.75,-8.75,-8.75,-8.75,-8.75,-8.75,-8.75,-8.75,-8.75,-8.75,-5.0545,0.0,0.0,0.0,0.0,-5.7886,-6.1043,-5.9685,-6.0603,-6.699,-6.6439,-6.7577,-7.323,-7.5065,-7.5909,-7.5909,-7.6644,0.0,0.0,0.0,0.0,-7.6176,-7.6925,-7.7304,-7.7304,-7.3628,-6.9581,0.0,0.0,-5.853,-5.4511,-5.5164,-5.5049,-5.428,-5.4434,-5.5691,-5.7739,-5.8386,0.0,-6.3871,-7.135,-7.4299,-7.4815,-8.0598,-8.384,-8.528,-8.528,-8.5627,-8.6094,-8.6094,-8.6094,-8.6094,-8.6094,-8.6094,-8.6094,-8.6094,-8.6094,-8.6094,-8.6094,-8.6094,-8.5901,-8.5093,-8.4247,-8.3016,-8.0823,-7.9669,-7.8707,-7.74,-7.6976,-7.4589,-6.7063,0.0,0.0,0.0,0.0,0.0,0.0,0.0,0.0,0.0,0.0,-2.9571,0.0,-2.1043,-2.5428,-3.593,-3.0237,-3.6699,-6.0512,0.0,-6.2627,0.0,-7.8554,0.0,0.0,0.0,-7.8361,-7.3476,-8.217,-8.6478,-8.6794,-8.7079,-8.7304,-8.75,-8.75,-8.75,-8.75,-8.75,-8.75,-8.75,-8.75,-8.75,-8.75,-8.75,-8.75,-8.75,-5.1426,0.0,0.0,0.0,0.0,0.0,0.0,-6.8348,-6.9265,-6.9486,-6.9229,-7.0036,-7.2753,-7.5249,-7.6717,-7.6717,-7.7084,-7.7304,-7.7304,-7.7304,-7.7304,-7.7304,-7.7745,-7.7965,-7.7965,-7.6663,-7.2775,-6.6224,0.0,-6.0896,-5.4509,-5.489,-5.4728,-5.4226,-5.6333,-5.7625,0.0,0.0,0.0,-6.9293,-7.6423,-7.9053,-7.9177,-8.2824,-8.456,-8.5079,-8.474,-8.5037,-8.5551,-8.5551,-8.536,-8.5079,-8.5079,-8.532,-8.5514,-8.52,-8.559,-8.5988,-8.5664,-8.5846,-8.6017,-8.5632,-8.4901,-8.3951,-8.2786,-8.1872,-8.1035,-8.0278,-8.0086,-7.7417,-6.8603,-5.6608,0.0,0.0,0.0,0.0,0.0,0.0,-4.9433,0.0,0.0,0.0,0.0,0.0,0.0,0.0,0.0,0.0,0.0,0.0,-5.9358,0.0,0.0,0.0,-7.6284,0.0,-7.7592,-7.8861,-8.4016,-8.6624,-8.6815,-8.6995,-8.7265,-8.75,-8.75,-8.75,-8.75,-8.75,-8.75,-8.75,-8.75,-8.75,-8.75,-8.75,-8.75,-8.75,0.0,-5.3225,0.0,0.0,-6.3025,0.0,-7.066,-7.4735,-7.5946,-7.2129,-7.2202,-7.2606,-7.2606,-7.5432,-7.7304,-7.7304,-7.7304,-7.7414,-7.7561,-7.7598,-7.7671,-7.7818,-7.8479,-7.8846,-7.8846,-7.9617,-7.6317,0.0,0.0,0.0,0.0,-5.4824,-5.4867,0.0,0.0,0.0,0.0,0.0,-7.5394,-7.6439,-8.1655,-8.3433,-8.3053,-8.3597,-8.4179,-8.4613,-8.4179,-8.4325,-8.4696,-8.4696,-8.4467,-8.4179,-8.4179,-8.4513,-8.4828,-8.4513,-8.5079,-8.5775,-8.5242,-8.5514,-8.5846,-8.5739,-8.5051,-8.4134,-8.2792,-8.1794,-8.0832,-7.9441,-7.9105,-7.6442,-6.8044,-6.1318,0.0,0.0,0.0,0.0,0.0,0.0,0.0,0.0,0.0,0.0,-3.9931,0.0,0.0,0.0,0.0,0.0,-3.9738,0.0,0.0,0.0,0.0,-7.1398,-7.7592,0.0,-7.7015,-8.317,-8.5363,-8.6555,-8.6813,-8.6962,-8.7221,-8.75,-8.75,-8.75,-8.75,-8.75,-8.75,-8.75,-8.75,-8.75,-8.75,-8.75,-8.7451,-8.7401,0.0,0.0,0.0,0.0,0.0,0.0,-7.0587,-7.4735,-7.7157,-7.6717,-7.6717,-7.6754,-7.6754,-7.7084,-7.7304,-7.7304,-7.7304,-7.7671,-7.8442,-7.8479,-7.8809,-7.9507,-7.9617,-7.969,-7.969,-8.0461,-7.8565,0.0,0.0,-6.4949,0.0,-5.5847,0.0,0.0,0.0,0.0,0.0,-7.4285,-7.7103,-8.148,-8.2123,-8.2343,-8.2279,-8.2343,-8.2793,-8.3378,-8.3266,-8.3322,-8.3378,-8.3378,-8.372,-8.4179,-8.4179,-8.4228,-8.4372,-8.4872,-8.5121,-8.5162,-8.5121,-8.5162,-8.5079,-8.4513,-8.3729,-8.285,-8.1972,-8.1141,-8.0264,-7.9349,-7.8754,-7.5981,-6.7959,-6.5426,-6.2433,0.0,0.0,0.0,0.0,0.0,-7.3949,-6.466,0.0,0.0,-5.0471,-3.4468,0.0,0.0,-3.7392,0.0,0.0,0.0,0.0,-6.6705,-6.7898,-6.5166,-5.8357,-7.513,-8.0208,-7.3591,-8.2093,-8.6363,-8.6813,-8.6824,-8.7078,-8.75,-8.75,-8.75,-8.75,-8.75,-8.75,-8.75,-8.75,-8.75,-8.75,-8.75,-8.7339,-8.7156,0.0,0.0,0.0,0.0,0.0,0.0,0.0,-7.6276,-7.7304,-7.7304,-7.7304,-7.7304,-7.7304,-7.7304,-7.7524,-7.8038,-7.8075,-7.8442,-7.925,-7.9323,-7.9433,-7.9764,-8.0241,-8.0534,-8.0534,-8.1305,-7.9412,0.0,0.0,0.0,0.0,0.0,0.0,0.0,0.0,-7.1056,-7.4679,-7.7717,-8.0246,-8.2186,-8.2186,-8.2186,-8.2186,-8.2186,-8.2585,-8.3132,-8.2732,-8.2853,-8.3132,-8.2732,-8.2793,-8.2994,-8.2994,-8.3303,-8.3597,-8.3433,-8.389,-8.4467,-8.4042,-8.4239,-8.4513,-8.4276,-8.3915,-8.3363,-8.2167,-8.1237,-8.0309,-7.9131,-7.8274,-7.6712,-7.3589,-6.8948,-6.6174,0.0,0.0,0.0,0.0,0.0,0.0,-6.6768,0.0,-5.2279,-5.2644,-3.5776,0.0,0.0,0.0,0.0,0.0,0.0,0.0,-5.9396,0.0,-7.3437,-6.4897,-7.8669,-8.3901,-8.0592,-8.4324,-8.6363,-8.6781,-8.6821,-8.7058,-8.75,-8.75,-8.75,-8.75,-8.75,-8.75,-8.75,-8.75,-8.75,-8.7578,-8.8047,-8.8063,-8.7944,-6.6843,0.0,-6.6659,0.0,-7.1908,-7.2496,-7.7011,-7.7708,-7.7781,-7.8002,-7.8038,-7.7965,-7.7708,-7.7892,-7.8295,-7.8883,-7.8956,-7.9286,-8.0094,-8.0131,-8.0241,-8.0498,-8.1048,0.0,-8.1342,-8.1893,-8.0498,-7.7047,-7.2202,0.0,0.0,0.0,0.0,0.0,-7.3222,-7.5453,-7.646,-8.0498,-8.2186,-8.2186,-8.2186,-8.2186,-8.2186,-8.2186,-8.2497,-8.2853,-8.2343,-8.2497,-8.2853,-8.2343,-8.2186,-8.2186,-8.2186,-8.256,-8.2853,-8.2585,-8.3132,-8.3772,-8.3359,-8.3543,-8.3824,-8.3651,-8.3597,-8.3264,-8.1954,-8.1116,-8.0052,-7.8529,-7.7745,-7.7304,-7.7304,-7.2777,-7.0126,-7.3309,0.0,0.0,0.0,-7.6728,0.0,-6.724,-5.8211,-5.3949,-5.7351,-4.0739,0.0,0.0,0.0,0.0,0.0,0.0,0.0,0.0,0.0,0.0,-7.0975,-8.1016,-8.6094,-8.6094,-8.6094,-8.6363,-8.6813,-8.6941,-8.7198,-8.75,-8.75,-8.75,-8.75,-8.75,-8.75,-8.75,-8.75,-8.7656,-8.7929,-8.8476,-8.8677,-8.8729,-7.0477,-6.7393,-6.688,-7.5689,-7.3303,-7.2018,-7.7708,-7.8589,-7.8883,-7.9653,-7.9764,-7.947,-7.8662,-7.9286,-7.9764,-7.9764,-7.9764,-8.0131,-8.0938,-8.1012,-8.1342,0.0,0.0,-8.2186,-8.2186,-8.2186,-8.215,-8.2113,0.0,0.0,-7.2239,0.0,-6.7907,-7.4771,-7.4037,-7.6827,-8.2076,-8.215,-8.2186,-8.2186,-8.2186,-8.2186,-8.2186,-8.2186,-8.2186,-8.2186,-8.2186,-8.2186,-8.2186,-8.2186,-8.2186,-8.2186,-8.2186,-8.2186,-8.2343,-8.2994,-8.3189,-8.3189,-8.3189,-8.3189,-8.3053,-8.2407,-8.2251,-8.1966,-8.1195,-8.0388,-7.9323,-7.7671,-7.7341,-7.7304,-7.7304,-7.7231,-7.461,-6.6985,0.0,0.0,0.0,-7.3001,0.0,-6.7476,-5.8816,-5.7368,-6.7268,-5.1279,0.0,0.0,0.0,0.0,0.0,0.0,0.0,-6.7936,-7.009,0.0,-7.0898,-8.1016,-8.6094,-8.6094,-8.6094,-8.6363,-8.6813,-8.7292,-8.75,-8.75,-8.75,-8.75,-8.75,-8.75,-8.75,-8.75,-8.75,-8.8008,-8.8672,-8.8711,-8.8955,-8.9294,-7.6754,-7.5836,-7.5689,-7.8516,-7.7708,-7.7304,-7.914,-7.9396,-7.9507,-7.9764,-8.0277,-8.0534,-8.0277,-7.9984,-8.0021,0.0,-8.0608,-8.0975,0.0,-8.1819,-8.1929,-8.2186,-8.2186,-8.2186,-8.2186,-8.2186,-8.2186,-8.2186,0.0,0.0,0.0,-7.2312,-7.4478,-7.9874,-7.9617,-8.0498,-8.2186,-8.2186,-8.2186,-8.2186,-8.2186,-8.2186,-8.2186,-8.2186,-8.2186,-8.2186,-8.2186,-8.2186,-8.2186,-8.2186,-8.2186,-8.2186,-8.2186,-8.2186,-8.2251,-8.2434,-8.2497,-8.2497,-8.2497,-8.2497,-8.2434,-8.2251,-8.2186,-8.2113,-8.1893,-8.0755,-7.947,-7.8405,-7.7708,-7.7304,-7.7304,-7.7304,-7.646,-7.397,-7.5676,0.0,-7.3934,0.0,-6.6489,-5.8051,-4.9318,-4.7933,-5.7928,-4.724,0.0,0.0,0.0,0.0,0.0,0.0,0.0,0.0,-7.3514,0.0,-7.1822,-8.1285,-8.6094,-8.6094,-8.6094,-8.6366,-8.6842,-8.729,-8.75,-8.75,-8.75,-8.75,-8.75,-8.75,-8.75,-8.7539,-8.8086,-8.8476,-8.8828,-9.0039,-9.0367,-9.0285,-7.959,-7.98,-7.98,-7.98,-7.98,-7.9874,-8.0204,-8.0241,-8.0351,-8.0645,-8.1122,-8.1452,-8.1452,-8.0975,0.0,-8.1415,-8.1452,-8.1672,-8.215,-8.2186,-8.2186,-8.2186,-8.2186,-8.2186,-8.2186,-8.2186,0.0,-8.2186,-7.914,-7.7635,-7.7635,-7.7635,-7.9286,-8.2186,-8.2186,-8.2186,-8.2186,-8.2186,-8.2186,-8.2186,-8.2186,-8.2186,-8.2186,-8.2186,-8.2186,-8.2186,-8.2186,-8.2186,-8.2186,-8.2186,-8.2186,-8.2186,-8.2186,-8.2186,-8.2186,-8.2186,-8.2186,-8.2186,-8.2186,-8.2186,-8.2186,-8.2186,-8.2186,-8.2113,-8.1819,-8.0975,-8.0021,-7.9213,-7.8369,-7.7818,-7.7818,-7.7524,-7.7304,-7.7304,-7.7304,-7.6276,-7.323,0.0,-6.2475,0.0,0.0,0.0,0.0,-5.4241,-5.4434,0.0,0.0,0.0,0.0,0.0,0.0,-6.7398,-7.9092,-8.2785,-7.7476,-8.3208,-8.6094,-8.6094,-8.6286,-8.6517,-8.6833,-8.7275,-8.75,-8.75,-8.75,-8.75,-8.75,-8.75,-8.7695,-8.8008,-8.8515,-8.9101,-8.9803,-9.0823,-9.114,-9.1141,-7.9617,-7.9947,-7.9947,0.0,-7.9947,0.0,-8.0975,-8.1085,-8.1342,-8.2113,-8.2186,-8.2186,-8.2186,-8.2186,-8.2186,-8.2186,0.0,0.0,0.0,-8.2186,-8.2186,-8.2186,-8.2186,-8.2186,-8.2186,-8.2186,-8.2186,-8.2186,-8.2186,-8.2186,-8.2186,-8.2186,-8.2186,-8.2186,-8.2186,-8.2186,-8.2186,-8.2186,-8.2186,-8.2186,-8.2186,-8.2186,-8.2186,-8.2186,-8.2186,-8.2186,-8.2186,-8.2186,-8.2186,-8.2186,-8.2186,-8.2186,-8.2186,-8.2186,-8.2186,-8.2186,-8.2186,-8.2186,-8.2186,-8.2186,-8.2186,-8.2186,-8.2186,-8.2003,-8.1269,-8.1048,-8.0791,-8.0021,-7.925,-7.8662,-7.8662,-7.7965,-7.7414,-7.7414,-7.69,-7.3854,-6.6366,-6.4824,-6.2022,0.0,0.0,0.0,-6.7653,-6.9244,-7.2976,0.0,0.0,0.0,0.0,0.0,-6.5436,-8.4401,-8.5709,-8.6094,-8.6094,-8.6094,-8.6094,-8.6094,-8.6555,-8.6788,-8.6833,-8.7275,-8.75,-8.75,-8.75,-8.75,-8.75,-8.7578,-8.8008,-8.8711,-8.8828,-8.9883,-9.1278,-9.114,-9.1445,-9.1879,0.0,0.0,-8.1636,-8.1636,-8.1636,-8.1709,-8.1893,-8.1929,-8.1966,-8.2186,-8.2186,-8.2186,-8.2186,-8.2186,-8.2186,-8.2186,-8.2186,-8.2186,-8.2186,-8.2186,-8.2186,-8.2186,-8.2186,-8.2186,-8.2186,-8.2186,-8.2186,-8.2186,-8.2186,-8.2186,-8.2186,-8.2186,-8.2186,-8.2186,-8.2186,-8.2186,-8.2186,-8.2186,-8.2186,-8.2186,-8.2186,-8.2186,-8.2186,-8.2186,-8.2186,-8.2186,-8.2186,-8.2186,-8.2186,-8.2186,-8.2186,-8.2186,-8.2186,-8.2186,-8.2186,-8.2186,-8.2186,-8.2186,-8.2186,-8.2186,-8.2186,-8.2186,-8.2186,-8.215,-8.1966,-8.1452,-8.0938,-8.0755,-8.0057,-7.9507,-7.9507,-7.8846,-7.8295,-7.8295,-7.2569,-6.7504,-6.5595,-6.0093,-5.6097,0.0,-5.5019,-5.8825,-6.9267,-6.9937,-7.0514,0.0,0.0,0.0,-7.4168,-6.9821,-7.2976,-8.544,-8.6017,-8.6094,-8.6094,-8.6094,-8.6094,-8.6094,-8.6555,-8.6788,-8.6833,-8.7275,-8.75,-8.75,-8.75,-8.75,-8.7539,-8.8164,-8.8515,-8.8828,-9.0156,-9.0937,-9.1356,-9.1747,-9.1886,-9.1855,-8.1157,-8.1782,-8.2186,-8.2186,-8.2186,-8.2186,-8.2186,-8.2186,-8.2186,-8.2186,-8.2186,-8.2186,-8.2186,-8.2186,-8.2186,-8.2186,-8.2186,-8.2186,-8.2186,-8.2186,-8.2186,-8.2186,-8.2186,-8.2186,-8.2186,-8.2186,-8.2186,-8.2186,-8.2186,-8.2186,-8.2186,-8.2186,-8.2186,-8.2186,-8.2186,-8.2186,-8.2186,-8.2186,-8.2186,-8.2186,-8.2186,-8.2186,-8.2186,-8.2186,-8.2186,-8.2186,-8.2186,-8.2186,-8.2186,-8.2186,-8.2186,-8.2186,-8.2186,-8.2186,-8.2186,-8.2186,-8.2186,-8.2186,-8.2186,-8.2186,-8.2186,-8.2186,-8.2186,-8.2186,-8.2186,-8.1856,-8.1562,-8.1562,-8.0901,-8.0351,-8.0351,-7.969,-7.914,-7.914,-7.1982,-6.6402,-6.6402,-5.9495,-5.6357,-6.1425,-6.1747,-6.5531,-7.5725,-7.6669,-7.6669,-7.6669,-7.6976,0.0,-7.7823,-7.7861,-8.04,-8.594,-8.6094,-8.6094,-8.6094,-8.6094,-8.6094,-8.6094,-8.6555,-8.6788,-8.6833,-8.7275,-8.75,-8.75,-8.75,-8.7695,-8.8086,-8.8515,-8.9179,-8.9961,-9.0937,-9.1523,-9.1908,-9.2034,-9.1994,-9.1825,-8.1715,-8.2121,-8.2186,-8.2186,-8.2186,-8.2186,-8.2186,-8.2186,-8.2186,-8.2186,-8.2186,-8.2186,-8.2186,-8.2186,-8.2186,-8.2186,-8.2186,-8.2186,-8.2186,-8.2186,-8.2186,-8.2186,-8.2186,-8.2186,-8.2186,-8.2186,-8.2186,-8.2186,-8.2186,-8.2186,-8.2186,-8.2186,-8.2186,-8.2186,-8.2186,-8.2186,-8.2186,-8.2186,-8.2186,-8.2186,-8.2186,-8.2186,-8.2186,-8.2186,-8.2186,-8.2186,-8.2186,-8.2186,-8.2186,-8.2186,-8.2186,-8.2186,-8.2186,-8.2186,-8.2186,-8.2186,-8.2186,-8.2186,-8.2186,-8.2186,-8.2186,-8.2186,-8.2186,-8.2186,-8.2186,-8.2186,-8.2186,-8.2186,-8.1672,-8.1195,-8.1195,-8.0498,-7.958,-7.8332,-7.1248,-6.5852,-6.5852,0.0,-5.9133,-6.864,-7.0837,-7.4866,-8.3182,-8.4632,-8.5093,-8.5093,-8.5709,-8.6094,-8.6094,-8.6094,-8.6094,-8.6094,-8.6094,-8.6094,-8.6094,-8.6094,-8.6132,-8.617,-8.6594,-8.6809,-8.6845,-8.7303,-8.75,-8.75,-8.75,-8.7969,-8.8711,-8.8828,-8.9844,-9.1328,-9.1445,-9.1953,-9.2537,-9.2068,-9.1902,-9.1825,-8.0623,-8.1579,-8.2186,-8.2186,-8.2186,-8.2186,-8.2186,-8.2186,-8.2186,-8.2186,-8.2186,-8.2186,-8.2186,-8.2186,-8.2186,-8.2186,-8.2186,-8.2186,-8.2186,-8.2186,-8.2186,-8.2186,-8.2186,-8.2186,-8.2186,-8.2186,-8.2186,-8.2186,-8.2186,-8.2186,-8.2186,-8.2186,-8.2186,-8.2186,-8.2186,-8.2186,-8.2186,-8.2186,-8.2186,-8.2186,-8.2186,-8.2186,-8.2186,-8.2186,-8.2186,-8.2186,-8.2186,-8.2186,-8.2186,-8.2186,-8.2186,-8.2186,-8.2186,-8.2186,-8.2186,-8.2186,-8.2186,-8.2186,-8.2186,-8.2186,-8.2186,-8.2186,-8.2186,-8.2186,-8.2186,-8.2186,-8.2186,-8.2186,-8.2113,-8.2003,-8.2003,-8.1342,-7.8589,-7.1725,-6.3209,-5.7483,-5.7483,0.0,-5.9356,-6.9511,-7.6695,-8.2119,-8.5411,-8.5824,-8.5901,-8.5901,-8.6017,-8.6094,-8.6094,-8.6094,-8.6094,-8.6094,-8.6094,-8.6094,-8.6094,-8.6094,-8.6209,-8.644,-8.6671,-8.6884,-8.704,-8.736,-8.75,-8.75,-8.75,-8.7969,-8.875,-8.9492,-9.039,-9.1367,-9.2109,-9.2461,-9.2537,-9.2068,-9.1902,-9.1825,-8.123,-8.1885,-8.2186,-8.2186,-8.2186,-8.2186,-8.2186,-8.2186,-8.2186,-8.2186,-8.2186,-8.2186,-8.2186,-8.2186,-8.2186,-8.2186,-8.2186,-8.2186,-8.2186,-8.2186,-8.2186,-8.2186,-8.2186,-8.2186,-8.2186,-8.2186,-8.2186,-8.2186,-8.2186,-8.2186,-8.2186,-8.2186,-8.2186,-8.2186,-8.2186,-8.2186,-8.2186,-8.2186,-8.2186,-8.2186,-8.2186,-8.2186,-8.2186,-8.2186,-8.2186,-8.2186,-8.2186,-8.2186,-8.2186,-8.2186,-8.2186,-8.2186,-8.2186,-8.2186,-8.2186,-8.2186,-8.2186,-8.2186,-8.2186,-8.2186,-8.2186,-8.2186,-8.2186,-8.2186,-8.2186,-8.2186,-8.2186,-8.2186,-8.2186,-8.2186,-8.2186,-8.1893,-7.8993,-7.0881,-6.6072,0.0,-6.3392,-6.3392,-6.7049,-7.6904,-8.1368,-8.4278,-8.5915,-8.6094,-8.6094,-8.6094,-8.6094,-8.6094,-8.6094,-8.6094,-8.6094,-8.6094,-8.6094,-8.6094,-8.6094,-8.6094,-8.6247,-8.6478,-8.6699,-8.6904,-8.7115,-8.738,-8.75,-8.7539,-8.7969,-8.8633,-8.9453,-9.0351,-9.1211,-9.2031,-9.2422,-9.2617,-9.2537,-9.2068,-9.1902,-9.1825,-8.1952,-8.2186,-8.2186,-8.2186,-8.2186,-8.2186,-8.2186,-8.2186,-8.2186,-8.2186,-8.2186,-8.2186,-8.2186,-8.2186,-8.2186,-8.2186,-8.2186,-8.2186,-8.2186,-8.2186,-8.2186,-8.2186,-8.2186,-8.2186,-8.2186,-8.2186,-8.2186,-8.2186,-8.2186,-8.2186,-8.2186,-8.2186,-8.2186,-8.2186,-8.2186,-8.2186,-8.2186,-8.2186,-8.2186,-8.2186,-8.2186,-8.2186,-8.2186,-8.2186,-8.2186,-8.2186,-8.2186,-8.2186,-8.2186,-8.2186,-8.2186,-8.2186,-8.2186,-8.2186,-8.2186,-8.2186,-8.2186,-8.2186,-8.2186,-8.2186,-8.2186,-8.2186,-8.2186,-8.2186,-8.2186,-8.2186,-8.2186,-8.2186,-8.2186,-8.2186,-8.2186,-8.2186,-7.9543,-7.1431,0.0,-7.011,0.0,-7.011,-7.3589,-8.31,-8.4179,-8.4696,-8.5954,-8.6094,-8.6094,-8.6094,-8.6094,-8.6094,-8.6094,-8.6094,-8.6094,-8.6094,-8.6094,-8.6094,-8.6094,-8.6094,-8.6247,-8.6588,-8.6722,-8.6962,-8.7177,-8.7425,-8.7617,-8.7812,-8.8437,-8.9297,-9.0351,-9.1015,-9.1797,-9.2617,-9.2617,-9.2617,-9.2537,-9.2068,-9.1902,-9.1825,-8.1782,-8.2186,-8.2186,-8.2186,-8.2186,-8.2186,-8.2186,-8.2186,-8.2186,-8.2186,-8.2186,-8.2186,-8.2186,-8.2186,-8.2186,-8.2186,-8.2186,-8.2186,-8.2186,-8.2186,-8.2186,-8.2186,-8.2186,-8.2186,-8.2186,-8.2186,-8.2186,-8.2186,-8.2186,-8.2186,-8.2186,-8.2186,-8.2186,-8.2186,-8.2186,-8.2186,-8.2186,-8.2186,-8.2186,-8.2186,-8.2186,-8.2186,-8.2186,-8.2186,-8.2186,-8.2186,-8.2186,-8.2186,-8.2186,-8.2186,-8.2186,-8.2186,-8.2186,-8.2186,-8.2186,-8.2186,-8.2186,-8.2186,-8.2186,-8.2186,-8.2186,-8.2186,-8.2186,-8.2186,-8.2186,-8.2186,-8.2186,-8.2186,-8.2186,-8.2186,-8.2186,-8.2186,-7.9543,-7.1431,0.0,0.0,-7.011,-7.011,-7.3589,-8.31,-8.4179,-8.4696,-8.5954,-8.6094,-8.6094,-8.6094,-8.6094,-8.6094,-8.6094,-8.6094,-8.6094,-8.6094,-8.6094,-8.6094,-8.6094,-8.6094,-8.6324,-8.6781,-8.6799,-8.7025,-8.7453,-8.7499,-8.789,-8.8594,-8.8672,-8.9648,-9.1211,-9.1289,-9.1797,-9.2617,-9.2617,-9.2617,-9.2537,-9.2068,-9.1902,-9.1825,-8.1782,-8.2186,-8.2186,-8.2186,-8.2186,-8.2186,-8.2186,-8.2186,-8.2186,-8.2186,-8.2186,-8.2186,-8.2186,-8.2186,-8.2186,-8.2186,-8.2186,-8.2186,-8.2186,-8.2186,-8.2186,-8.2186,-8.2186,-8.2186,-8.2186,-8.2186,-8.2186,-8.2186,-8.2186,-8.2186,-8.2186,-8.2186,-8.2186,-8.2186,-8.2186,-8.2186,-8.2186,-8.2186,-8.2186,-8.2186,-8.2186,-8.2186,-8.2186,-8.2186,-8.2186,-8.2186,-8.2186,-8.2186,-8.2186,-8.2186,-8.2186,-8.2186,-8.2186,-8.2186,-8.2186,-8.2186,-8.2186,-8.2186,-8.2186,-8.2186,-8.2186,-8.2186,-8.2186,-8.2186,-8.2186,-8.2186,-8.2186,-8.2186,-8.2186,-8.2186,-8.2186,-8.2186,-7.9543,-7.1431,0.0,-7.5836,-7.0807,-7.4792,-7.9687,-8.3703,-8.4513,-8.5121,-8.5988,-8.6094,-8.6094,-8.6094,-8.6094,-8.6094,-8.6094,-8.6094,-8.6094,-8.6094,-8.6094,-8.6094,-8.6094,-8.6094,-8.6324,-8.6819,-8.6799,-8.7047,-8.7539,-8.8008,-8.8398,-8.875,-8.9844,-9.0703,-9.1328,-9.1875,-9.2304,-9.2617,-9.2617,-9.2617,-9.2537,-9.2068,-9.1902,-9.1825,-8.1782,-8.2186,-8.2186,-8.2186,-8.2186,-8.2186,-8.2186,-8.2186,-8.2186,-8.2186,-8.2186,-8.2186,-8.2186,-8.2186,-8.2186,-8.2186,-8.2186,-8.2186,-8.2186,-8.2186,-8.2186,-8.2186,-8.2186,-8.2186,-8.2186,-8.2186,-8.2186,-8.2186,-8.2186,-8.2186,-8.2186,-8.2186,-8.2186,-8.2186,-8.2186,-8.2186,-8.2186,-8.2186,-8.2186,-8.2186,-8.2186,-8.2186,-8.2186,-8.2186,-8.2186,-8.2186,-8.2186,-8.2186,-8.2186,-8.2186,-8.2186,-8.2186,-8.2186,-8.2186,-8.2186,-8.2186,-8.2186,-8.2186,-8.2186,-8.2186,-8.2186,-8.2186,-8.2186,-8.2186,-8.2186,-8.2186,-8.2186,-8.2186,-8.2186,-8.2186,-8.2186,-8.2186,-8.0388,-7.4808,-7.8552,-8.0241,-7.4661,-7.9274,-8.3433,-8.4129,-8.474,-8.536,-8.606,-8.6094,-8.6094,-8.6094,-8.6094,-8.6094,-8.6094,-8.6094,-8.6094,-8.6094,-8.6094,-8.6094,-8.6094,-8.6094,-8.6324,-8.6819,-8.6799,-8.7164,-8.789,-8.8437,-8.8984,-8.957,-9.0781,-9.1445,-9.1758,-9.2344,-9.2617,-9.2617,-9.2617,-9.2617,-9.2537,-9.2068,-9.1902,-9.1825,-8.1782,-8.2186,-8.2186,-8.2186,-8.2186,-8.2186,-8.2186,-8.2186,-8.2186,-8.2186,-8.2186,-8.2186,-8.2186,-8.2186,-8.2186,-8.2186,-8.2186,-8.2186,-8.2186,-8.2186,-8.2186,-8.2186,-8.2186,-8.2186,-8.2186,-8.2186,-8.2186,-8.2186,-8.2186,-8.2186,-8.2186,-8.2186,-8.2186,-8.2186,-8.2186,-8.2186,-8.2186,-8.2186,-8.2186,-8.2186,-8.2186,-8.2186,-8.2186,-8.2186,-8.2186,-8.2186,-8.2186,-8.2186,-8.2186,-8.2186,-8.2186,-8.2186,-8.2186,-8.2186,-8.2186,-8.2186,-8.2186,-8.2186,-8.2186,-8.2186,-8.2186,-8.2186,-8.2186,-8.2186,-8.2186,-8.2186,-8.2186,-8.2186,-8.2186,-8.2186,-8.2186,-8.2186,-8.2186,-8.2186,-8.2186,-8.2186,-8.2186,-8.2793,-8.3433,-8.4129,-8.474,-8.536,-8.606,-8.6094,-8.6094,-8.6094,-8.6094,-8.6094,-8.6094,-8.6094,-8.6094,-8.6094,-8.6094,-8.6094,-8.6094,-8.6094,-8.6324,-8.6819,-8.6799,-8.7476,-8.8711,-8.8711,-8.9648,-9.1289,-9.1328,-9.1797,-9.2617,-9.2617,-9.2617,-9.2617,-9.2617,-9.2617,-9.2537,-9.2068,-9.1902,-9.1825,-8.1782,-8.2186,-8.2186,-8.2186,-8.2186,-8.2186,-8.2186,-8.2186,-8.2186,-8.2186,-8.2186,-8.2186,-8.2186,-8.2186,-8.2186,-8.2186,-8.2186,-8.2186,-8.2186,-8.2186,-8.2186,-8.2186,-8.2186,-8.2186,-8.2186,-8.2186,-8.2186,-8.2186,-8.2186,-8.2186,-8.2186,-8.2186,-8.2186,-8.2186,-8.2186,-8.2186,-8.2186,-8.2186,-8.2186,-8.2186,-8.2186,-8.2186,-8.2186,-8.2186,-8.2186,-8.2186,-8.2186,-8.2186,-8.2186,-8.2186,-8.2186,-8.2186,-8.2186,-8.2186,-8.2186,-8.2186,-8.2186,-8.2186,-8.2186,-8.2186,-8.2186,-8.2186,-8.2186,-8.2186,-8.2186,-8.2186,-8.2186,-8.2186,-8.2186,-8.2186,-8.2186,-8.2186,-8.2186,-8.2186,-8.2186,-8.2186,-8.2186,-8.3189,-8.3979,-8.4179,-8.5159,-8.5881,-8.6094,-8.6094,-8.6094,-8.6094,-8.6094,-8.6094,-8.6094,-8.6094,-8.6094,-8.6094,-8.6094,-8.6094,-8.6094,-8.6094,-8.6324,-8.6819,-8.7442,-8.8061,-8.875,-8.9961,-9.082,-9.1328,-9.1953,-9.2344,-9.2617,-9.2617,-9.2617,-9.2617,-9.2617,-9.2617,-9.2537,-9.2068,-9.1902,-9.1825,-8.0587,-8.1299,-8.1542,-8.1542,-8.1952,-8.2186,-8.2186,-8.2186,-8.2186,-8.2186,-8.2186,-8.2186,-8.2186,-8.2186,-8.2186,-8.2186,-8.2186,-8.2186,-8.2186,-8.2186,-8.2186,-8.2186,-8.2186,-8.2186,-8.2186,-8.2186,-8.2186,-8.2186,-8.2186,-8.2186,-8.2186,-8.2186,-8.2186,-8.2186,-8.2186,-8.2186,-8.2186,-8.2186,-8.2186,-8.2186,-8.2186,-8.2186,-8.2186,-8.2186,-8.2186,-8.2186,-8.2186,-8.2186,-8.2186,-8.2186,-8.2186,-8.2186,-8.2186,-8.2186,-8.2186,-8.2186,-8.2186,-8.2186,-8.2186,-8.2186,-8.2186,-8.2186,-8.2186,-8.2186,-8.2186,-8.2186,-8.2186,-8.2186,-8.2186,-8.2186,-8.2186,-8.2186,-8.2186,-8.2186,-8.2186,-8.2186,-8.2186,-8.3322,-8.4179,-8.4179,-8.532,-8.6094,-8.6094,-8.6094,-8.6094,-8.6094,-8.6094,-8.6094,-8.6094,-8.6094,-8.6094,-8.6094,-8.6094,-8.6094,-8.6094,-8.6517,-8.6935,-8.7319,-8.7913,-8.8764,-8.9765,-9.082,-9.1484,-9.1836,-9.2383,-9.2617,-9.2617,-9.2617,-9.2617,-9.2617,-9.2617,-9.2541,-9.2391,-9.2026,-9.1824,-9.1672,-7.8822,-7.9804,-8.0514,-8.0587,-8.1405,-8.2121,-8.2186,-8.2186,-8.2186,-8.2186,-8.2186,-8.2186,-8.2186,-8.2186,-8.2186,-8.2186,-8.2186,-8.2186,-8.2186,-8.2186,-8.2186,-8.2186,-8.2186,-8.2186,-8.2186,-8.2186,-8.2186,-8.2186,-8.2186,-8.2186,-8.2186,-8.2186,-8.2186,-8.2186,-8.2186,-8.2186,-8.2186,-8.2186,-8.2186,-8.2186,-8.2186,-8.2186,-8.2186,-8.2186,-8.2186,-8.2186,-8.2186,-8.2186,-8.2186,-8.2186,-8.2186,-8.2186,-8.2186,-8.2186,-8.2186,-8.2186,-8.2186,-8.2186,-8.2186,-8.2186,-8.2186,-8.2186,-8.2186,-8.2186,-8.2186,-8.2186,-8.2186,-8.2186,-8.2186,-8.2186,-8.2186,-8.2186,-8.2186,-8.2186,-8.2186,-8.2186,-8.2186,-8.3322,-8.4179,-8.4179,-8.532,-8.6094,-8.6094,-8.6094,-8.6094,-8.6094,-8.6094,-8.6094,-8.6094,-8.6094,-8.6094,-8.6094,-8.617,-8.6209,-8.6209,-8.7319,-8.7924,-8.8104,-8.8463,-8.9581,-9.1289,-9.1367,-9.1836,-9.2617,-9.2617,-9.2617,-9.2617,-9.2617,-9.2617,-9.2617,-9.2617,-9.2416,-9.2194,-9.1983,-9.1735,-9.1479,-7.8822,-7.9222,-7.9614,-8.044,-8.0768,-8.123,-8.2055,-8.2186,-8.2186,-8.2186,-8.2186,-8.2186,-8.2186,-8.2186,-8.2186,-8.2186,-8.2186,-8.2186,-8.2186,-8.2186,-8.2186,-8.2186,-8.2186,-8.2186,-8.2186,-8.2186,-8.2186,-8.2186,-8.2186,-8.2186,-8.2186,-8.2186,-8.2186,-8.2186,-8.2186,-8.2186,-8.2186,-8.2186,-8.2186,-8.2186,-8.2186,-8.2186,-8.2186,-8.2186,-8.2186,-8.2186,-8.2186,-8.2186,-8.2186,-8.2186,-8.2186,-8.2186,-8.2186,-8.2186,-8.2186,-8.2186,-8.2186,-8.2186,-8.2186,-8.2186,-8.2186,-8.2186,-8.2186,-8.2186,-8.2186,-8.2186,-8.2186,-8.2186,-8.2186,-8.2186,-8.2186,-8.2186,-8.2186,-8.2186,-8.2186,-8.2186,-8.2186,-8.3322,-8.4179,-8.4179,-8.532,-8.6094,-8.6094,-8.6094,-8.6094,-8.6094,-8.6094,-8.6094,-8.6094,-8.6094,-8.6094,-8.6094,-8.6748,-8.7132,-8.7132,-8.8353,-8.8664,-8.8108,-8.9697,-9.0746,-9.1328,-9.1992,-9.2422,-9.2617,-9.2617,-9.2617,-9.2617,-9.2617,-9.2617,-9.2617,-9.2617,-9.2416,-9.2168,-9.1985,-9.1727,-9.1479,-7.7336,-7.7822,-7.8577,-7.9614,-8.0292,-8.0911,-8.2055,-8.2186,-8.2186,-8.2186,-8.2186,-8.2186,-8.2186,-8.2186,-8.2186,-8.2186,-8.2186,-8.2186,-8.2186,-8.2186,-8.2186,-8.2186,-8.2186,-8.2186,-8.2186,-8.1715,-8.1405,-8.1405,-8.1405,-8.116,-8.0659,-8.0659,-8.0659,-8.0659,-8.0659,-8.0982,-8.1405,-8.1405,-8.1715,-8.2186,-8.2186,-8.2186,-8.2186,-8.2186,-8.2186,-8.2186,-8.2186,-8.2186,-8.2186,-8.2186,-8.2186,-8.2186,-8.2186,-8.2186,-8.2186,-8.2186,-8.2186,-8.2186,-8.2186,-8.2186,-8.2186,-8.2186,-8.2186,-8.2186,-8.2186,-8.2186,-8.2186,-8.2186,-8.2186,-8.2186,-8.2186,-8.2186,-8.2186,-8.2186,-8.2186,-8.2186,-8.2186,-8.3322,-8.4179,-8.4179,-8.532,-8.6094,-8.6094,-8.6094,-8.6094,-8.6094,-8.6094,-8.6094,-8.6094,-8.6094,-8.6286,-8.6709,-8.7171,-8.7594,-8.8017,-8.9277,-8.9715,-8.9324,-9.0552,-9.1415,-9.1953,-9.2383,-9.2617,-9.2617,-9.2617,-9.2617,-9.2617,-9.2617,-9.2617,-9.2617,-9.2613,-9.237,-9.2042,-9.1919,-9.1672,-9.1325,-7.5709,-7.645,-7.7424,-7.874,-7.9727,-8.0768,-8.2018,-8.2186,-8.2186,-8.2186,-8.2186,-8.2186,-8.2186,-8.2186,-8.2186,-8.2186,-8.2186,-8.2186,-8.2186,-8.2186,-8.2186,-8.2186,-8.2186,-8.2121,-8.1952,-8.1089,-8.0623,-8.0623,-8.044,-7.988,-7.8983,-7.8983,-7.8983,-7.8983,-7.9222,-7.9804,-8.0623,-8.0623,-8.123,-8.2186,-8.2018,-8.2055,-8.2186,-8.2186,-8.2186,-8.2186,-8.2186,-8.2186,-8.2186,-8.2186,-8.2186,-8.2186,-8.2186,-8.2186,-8.2186,-8.2186,-8.2186,-8.2186,-8.2186,-8.2186,-8.2186,-8.2186,-8.2186,-8.2186,-8.2186,-8.2186,-8.2186,-8.2186,-8.2186,-8.2186,-8.2186,-8.2186,-8.2186,-8.2186,-8.2186,-8.2186,-8.2186,-8.3322,-8.4179,-8.4216,-8.532,-8.6094,-8.6094,-8.6094,-8.6094,-8.6094,-8.6094,-8.6094,-8.6094,-8.6247,-8.6671,-8.7363,-8.7671,-8.8209,-8.8979,-9.0206,-9.0856,-9.0888,-9.1318,-9.1914,-9.2617,-9.2617,-9.2617,-9.2617,-9.2617,-9.2617,-9.2617,-9.2617,-9.2611,-9.26,-9.2532,-9.2268,-9.1899,-9.1809,-9.1518,-9.121,-7.5709,-7.5771,-7.6599,-7.8659,-7.9143,-7.988,-8.1885,-8.2186,-8.2186,-8.2186,-8.2186,-8.2186,-8.2186,-8.2186,-8.2186,-8.2186,-8.2186,-8.2186,-8.2186,-8.2186,-8.2186,-8.2186,-8.2186,-8.1782,-8.084,-8.0695,-8.0623,-8.0623,-7.965,-7.9143,-7.8983,-7.8983,-7.8983,-7.9063,-7.9956,-8.044,-8.0623,-8.0623,-8.123,-8.2121,-8.116,-8.1405,-8.2186,-8.2186,-8.2186,-8.2186,-8.2186,-8.2186,-8.2186,-8.2186,-8.2186,-8.2186,-8.2186,-8.2186,-8.2186,-8.2186,-8.2186,-8.2186,-8.2186,-8.2186,-8.2186,-8.2186,-8.2186,-8.2186,-8.2186,-8.2186,-8.2186,-8.2186,-8.2186,-8.2186,-8.2186,-8.2186,-8.2186,-8.2186,-8.2186,-8.2186,-8.2186,-8.3322,-8.4179,-8.4179,-8.532,-8.6094,-8.6094,-8.6094,-8.6094,-8.6094,-8.6094,-8.6094,-8.6094,-8.6824,-8.7286,-8.7401,-8.8825,-8.971,-9.009,-9.1168,-9.1814,-9.1985,-9.2295,-9.25,-9.2617,-9.2617,-9.2617,-9.2617,-9.2617,-9.2617,-9.2617,-9.2617,-9.2612,-9.2574,-9.2364,-9.2096,-9.186,-9.1462,-9.1248,-9.121,-7.5709,-7.5709,-7.6173,-7.7736,-7.8577,-7.9536,-8.1089,-8.1782,-8.2186,-8.2186,-8.2186,-8.2186,-8.2186,-8.2186,-8.2186,-8.2186,-8.2186,-8.2186,-8.2186,-8.1647,-8.1336,-8.1336,-8.0732,-8.0182,-7.9727,-7.9063,-7.8786,-7.8786,-7.8328,-7.7736,-7.7194,-7.7194,-7.7194,-7.7194,-7.765,-7.8245,-7.8786,-7.8786,-7.938,-8.033,-7.988,-8.0366,-8.1336,-8.1336,-8.1715,-8.2186,-8.2186,-8.2186,-8.2186,-8.2186,-8.2186,-8.2186,-8.2186,-8.2186,-8.2186,-8.2186,-8.2186,-8.2186,-8.2186,-8.2186,-8.2186,-8.2186,-8.2186,-8.2186,-8.2186,-8.2186,-8.2186,-8.2186,-8.2186,-8.2186,-8.2186,-8.2186,-8.2186,-8.2186,-8.2186,-8.2186,-8.2186,-8.3322,-8.4467,-8.52,-8.5775,-8.6094,-8.6094,-8.6094,-8.6094,-8.6094,-8.6094,-8.6324,-8.6786,-8.7171,-8.7825,-8.8786,-8.9517,-9.0248,-9.0941,-9.1571,-9.1997,-9.2168,-9.2468,-9.2617,-9.2617,-9.2617,-9.2617,-9.2617,-9.2617,-9.2617,-9.2617,-9.2617,-9.26,-9.2553,-9.2322,-9.2017,-9.1638,-9.1308,-9.121,-9.121]}]]